GFSMW_prec_cloud_003.txt.gz
Cloud_Cover
0 0 0 0 0 0 0 0 0 2 0 0 0 5 5 53 45 54 85 7 6 5 5 5 5 29 5 32 8 5 5 5 5 5 8 99 100 100 100 100 100 100 100
0 0 0 0 0 0 0 4 5 5 5 9 12 32 30 40 44 6 5 5 5 5 5 34 6 3 12 9 65 7 19 18 44 17 32 83 77 70 91 99 97 100 100
0 0 0 0 4 5 5 2 5 5 5 2 5 5 5 5 5 0 5 0 0 2 5 4 6 5 19 15 9 32 73 100 90 52 42 83 87 64 99 99 97 76 96
0 0 0 5 2 4 5 5 4 2 5 5 5 5 5 5 3 4 0 0 0 3 5 44 14 5 16 17 46 99 100 100 92 95 100 85 64 100 100 100 100 100 100
0 0 0 0 0 0 3 3 0 0 5 5 5 20 19 5 5 3 0 0 0 1 0 0 0 15 22 23 24 25 93 100 100 66 100 100 100 100 100 99 99 100 100
0 4 4 5 1 0 1 2 6 8 20 63 64 29 7 5 7 2 0 0 0 0 0 0 7 22 30 14 20 6 7 71 79 89 87 99 81 92 100 100 100 100 100
5 5 5 5 5 8 51 100 100 88 40 8 5 5 5 5 1 5 17 5 1 1 0 0 4 5 7 5 40 1 5 5 45 100 95 97 83 100 99 100 100 100 100
5 5 5 5 5 8 69 42 31 18 54 11 5 4 5 19 39 70 37 7 0 5 0 5 5 2 5 5 3 5 5 47 88 100 100 100 100 98 100 94 95 100 100
5 6 75 100 98 92 53 7 51 60 32 16 40 83 80 90 99 95 47 1 5 0 0 2 0 2 4 2 1 5 22 16 97 100 100 100 94 83 99 100 76 100 100
5 5 5 4 5 5 38 10 62 99 100 99 45 4 0 1 0 0 0 0 0 2 2 2 4 5 5 5 5 25 12 82 100 100 100 100 100 100 100 99 100 94 88
5 5 5 5 5 5 5 5 5 5 5 5 3 4 5 2 0 5 5 5 35 20 5 5 5 5 47 100 98 84 99 51 53 67 78 100 100 100 100 100 100 100 100
5 5 5 5 2 1 0 31 52 82 14 69 5 5 5 0 0 0 2 5 73 5 5 7 68 78 80 78 100 65 100 59 97 100 100 100 100 100 100 100 100 100 100
13 13 29 28 6 5 7 8 83 100 100 5 5 4 4 3 5 4 6 51 4 5 5 13 93 100 100 100 100 100 100 94 100 100 100 100 100 100 100 100 100 100 100
100 100 100 100 100 100 100 100 100 100 85 33 3 0 0 0 5 5 5 5 4 0 0 0 5 10 4 54 87 100 99 69 85 100 100 100 100 100 100 100 100 99 100
100 100 100 100 89 51 15 52 98 18 10 0 0 4 0 5 10 84 6 38 0 4 4 1 4 5 5 10 58 31 5 6 88 91 100 97 100 100 100 100 100 100 100
100 97 96 59 37 7 4 5 5 4 6 5 5 1 0 35 100 94 5 0 0 0 0 0 0 0 5 20 5 5 5 5 5 16 98 100 100 100 100 100 99 93 100
2 5 5 21 14 20 30 16 17 5 33 45 40 8 4 10 4 1 0 0 0 0 0 0 0 0 3 3 5 5 53 25 5 5 6 56 100 98 100 100 100 100 100
4 5 4 5 7 66 40 5 33 5 4 3 5 5 35 5 0 0 0 0 0 3 0 0 0 0 0 1 16 4 5 51 57 13 5 52 100 100 100 100 100 100 100
1 5 6 12 6 7 5 5 5 5 4 3 0 0 2 0 0 0 1 0 0 2 4 0 0 2 15 51 93 76 17 14 14 9 5 70 99 100 100 100 100 100 100
5 5 5 5 5 5 5 5 0 0 0 0 0 0 0 0 0 3 1 0 0 0 5 5 5 5 4 4 0 3 21 54 30 37 100 99 100 100 100 100 100 100 100
17 19 8 8 5 5 5 5 5 5 4 6 13 5 5 0 0 0 1 0 0 0 2 5 5 0 0 0 0 2 36 100 100 100 61 99 100 100 100 100 100 100 100
97 97 98 100 44 5 5 5 5 5 5 2 5 5 5 4 0 0 0 0 0 4 2 4 0 0 0 0 0 0 8 37 100 100 100 100 100 100 100 100 100 100 100
65 73 96 99 100 100 96 32 5 5 5 5 5 5 1 0 0 0 0 0 0 0 0 5 5 0 0 0 0 0 0 35 100 100 100 100 100 100 100 100 100 100 100
100 99 100 100 100 100 100 82 43 26 24 9 5 5 0 0 0 0 0 0 0 0 0 0 5 5 5 5 2 3 5 5 100 100 100 100 100 100 100 100 100 100 100
100 100 100 100 100 100 100 100 100 78 35 4 2 0 0 0 0 0 0 0 0 0 0 0 3 3 5 5 5 20 37 6 100 100 100 100 100 100 100 100 100 100 100
100 100 99 99 97 87 72 32 5 5 4 0 0 0 0 0 0 0 0 0 0 0 0 0 0 5 5 5 52 28 98 5 98 100 100 100 100 100 100 100 100 100 100

GFSMW_prec_cloud_006.txt.gz
Cloud_Cover
100 54 5 5 5 4 0 0 0 0 3 0 1 0 0 0 0 0 0 0 4 5 3 0 0 0 0 3 37 99 86 94 64 5 5 4 8 13 5 5 15 53 100
5 5 5 5 3 0 0 0 0 0 4 5 3 4 5 2 0 0 0 0 0 0 0 4 4 3 3 5 0 0 0 44 75 10 64 71 30 5 5 6 90 97 68
0 0 0 0 0 0 0 0 0 0 2 0 0 0 4 5 0 0 2 0 0 2 5 1 0 5 5 5 0 5 10 4 7 60 99 100 20 2 6 91 22 75 100
0 0 0 0 0 0 0 0 3 2 0 0 0 0 0 0 0 0 0 0 1 3 0 3 5 12 52 25 19 39 52 67 38 72 100 98 38 54 59 100 50 100 100
0 0 0 0 0 0 0 0 0 2 0 0 0 0 4 5 5 0 0 0 4 5 6 5 10 52 85 81 69 98 100 100 97 2 68 100 94 75 100 84 100 83 97
0 0 3 0 0 0 0 0 5 5 0 1 5 5 5 5 0 0 3 2 1 4 7 6 5 5 1 23 32 88 100 94 55 5 5 44 100 71 100 100 98 100 67
5 5 0 0 0 0 0 4 5 5 5 5 5 4 0 0 0 2 3 5 14 30 57 29 6 1 0 0 39 97 100 94 100 75 12 5 23 38 100 100 96 100 44
5 1 0 5 5 5 5 30 18 6 5 5 5 5 4 4 9 96 47 10 7 6 0 11 94 98 89 51 16 46 100 100 100 100 92 66 92 100 100 100 100 100 100
5 8 9 38 63 55 5 5 5 5 5 5 0 0 5 5 43 96 14 5 5 5 5 2 5 5 73 92 100 100 73 84 90 97 89 98 100 100 100 100 100 100 100
32 16 14 22 10 5 5 5 6 5 1 3 42 63 6 2 3 4 6 15 6 5 5 0 2 4 5 5 5 6 18 34 97 100 100 97 100 100 100 100 100 100 100
5 3 5 5 5 8 5 10 5 5 29 5 5 5 5 9 49 97 88 30 28 5 0 1 5 4 6 29 31 18 54 24 58 43 87 100 100 100 100 100 100 100 100
5 5 5 66 90 98 96 99 99 100 99 100 100 100 100 100 100 81 68 46 5 5 4 25 2 0 3 24 92 99 89 63 5 73 78 77 89 100 100 100 100 100 100
94 39 100 100 100 100 100 100 100 100 98 64 58 50 51 73 100 63 9 5 5 4 0 5 4 5 5 5 5 5 8 56 62 96 100 100 97 51 33 95 85 100 100
92 66 5 6 12 42 55 57 39 5 5 5 19 94 64 21 9 19 5 0 0 0 1 5 5 8 6 5 0 0 0 0 0 0 3 18 33 5 6 72 100 100 100
81 100 100 100 69 20 57 56 29 52 49 76 62 46 87 42 5 5 5 6 28 6 5 6 5 5 5 4 2 0 0 0 3 0 0 0 1 2 7 99 25 100 100
100 100 100 100 89 85 64 54 37 5 5 5 5 5 5 6 41 5 5 2 5 0 0 0 0 0 0 0 0 2 73 33 0 0 0 0 5 5 5 40 67 97 98
86 87 13 8 6 2 5 5 5 5 4 4 5 5 8 4 4 4 4 0 0 0 0 0 2 0 0 0 11 70 54 98 54 10 10 0 34 33 16 53 6 76 100
22 39 46 41 5 5 5 5 5 5 5 5 4 0 0 0 0 0 0 0 0 0 0 0 0 4 5 59 98 24 5 5 4 37 64 43 59 96 100 100 93 70 58
70 69 83 85 31 22 41 63 56 54 8 5 5 3 4 3 4 0 1 5 5 5 5 70 5 54 6 10 5 2 0 0 0 62 99 88 37 2 9 100 100 40 100
100 100 100 100 99 79 12 5 7 40 66 55 67 62 16 6 5 5 5 5 5 5 4 0 1 1 2 2 5 5 3 0 5 4 0 46 50 58 60 100 100 100 99
85 80 98 98 92 66 8 21 5 5 5 5 65 91 99 64 7 14 49 49 26 5 5 4 2 3 2 0 1 5 5 5 2 0 2 5 99 100 94 98 100 100 100
98 69 84 100 100 89 61 5 5 5 5 56 91 98 91 97 100 80 5 5 2 0 0 0 0 0 0 0 0 0 5 5 5 5 5 22 100 100 100 100 100 100 100
52 51 89 100 100 90 45 72 86 17 5 45 76 57 11 8 5 5 1 0 0 0 0 0 0 0 0 0 0 5 5 5 5 5 6 98 100 100 100 100 100 99 100
86 100 100 100 100 100 100 79 5 5 5 5 5 5 5 5 5 1 0 0 0 0 0 0 0 0 0 0 5 5 5 5 5 14 58 100 100 100 100 100 100 100 100
100 100 100 100 99 61 15 5 5 6 20 44 8 3 0 0 0 0 0 0 0 0 1 1 5 5 5 5 10 5 5 5 9 46 85 100 100 100 100 100 100 100 100
100 100 95 85 55 50 5 5 5 5 4 2 0 0 0 0 0 0 0 0 0 5 5 5 5 44 4 5 67 5 5 5 20 47 100 100 100 100 100 100 100 100 100

GFSMW_prec_cloud_009.txt.gz
Cloud_Cover
51 70 68 11 5 10 66 8 5 4 0 0 0 0 0 0 0 5 1 0 0 0 0 0 0 0 0 5 5 3 5 36 5 5 4 5 5 5 5 5 5 5 0
65 5 5 4 0 3 4 3 5 0 0 0 0 0 0 0 0 0 0 1 0 0 0 0 0 5 7 35 66 6 14 5 6 8 61 80 23 2 4 0 3 5 5
7 5 5 3 4 0 0 0 0 0 0 0 0 2 5 5 0 0 0 0 0 0 0 0 5 5 5 5 5 6 10 20 11 29 100 100 45 5 5 3 4 3 2
6 3 0 0 0 0 0 0 0 0 0 2 5 5 5 5 5 4 1 5 4 5 0 0 0 5 5 5 6 21 72 97 100 100 100 100 99 94 54 5 5 5 5
0 0 0 0 0 0 0 0 0 4 1 0 4 5 5 5 5 0 0 1 0 8 5 5 5 5 2 14 12 36 100 100 100 100 100 100 100 82 100 100 5 7 31
0 0 0 0 0 0 4 1 0 2 5 5 5 5 0 5 4 5 2 3 12 5 5 5 5 48 38 50 59 91 92 91 100 100 100 100 100 100 100 100 100 88 49
0 0 0 0 0 4 5 5 5 5 5 5 4 0 4 5 5 5 16 63 9 5 5 5 17 64 100 100 100 100 100 89 49 84 100 100 100 100 100 100 100 100 99
1 0 0 5 5 5 5 5 5 5 5 5 5 5 5 5 4 5 5 5 1 5 5 6 51 45 27 82 79 99 100 100 39 22 16 72 90 100 100 100 100 100 100
5 5 0 0 3 5 5 5 5 5 5 5 5 5 5 5 0 5 5 5 5 7 68 26 7 38 8 81 100 66 22 5 0 0 60 97 95 69 83 92 100 100 100
5 4 1 4 7 10 5 11 19 6 5 5 12 5 5 5 5 5 4 4 5 37 62 95 100 100 100 81 23 2 5 5 3 5 13 31 66 48 76 30 63 98 100
0 0 4 23 84 62 40 6 5 6 51 22 4 4 3 4 5 5 11 19 20 10 5 45 86 24 5 6 0 0 0 0 1 4 15 25 59 94 63 15 9 96 100
36 92 79 70 12 13 98 100 69 11 23 76 62 79 68 44 58 94 93 78 96 60 13 5 5 5 1 0 0 0 0 1 23 24 0 0 2 5 62 92 50 71 100
100 17 13 33 5 5 21 48 95 90 86 99 100 100 100 100 92 92 80 38 5 5 5 4 2 0 0 0 0 0 0 0 0 0 0 0 0 0 0 0 2 5 12
100 70 40 7 5 5 21 26 62 85 88 84 87 80 90 89 77 41 4 3 2 0 0 0 0 0 0 0 0 0 1 4 5 5 5 3 1 3 0 3 21 40 63
5 6 31 68 81 96 97 100 100 90 98 94 37 11 5 2 0 0 0 0 0 0 0 0 0 0 0 0 0 0 10 88 97 19 5 3 5 3 4 46 41 52 72
5 24 96 100 100 96 73 46 5 5 5 5 5 5 4 2 0 0 0 0 3 5 5 5 6 5 5 5 5 5 97 92 18 4 4 5 29 86 71 100 54 99 100
95 94 96 82 6 5 5 11 5 5 5 5 5 5 5 5 5 5 4 0 0 0 0 0 0 0 0 5 8 67 46 21 20 10 5 5 32 40 53 33 22 13 27
7 10 40 43 12 25 56 52 59 26 12 5 5 5 5 0 0 0 0 0 0 2 3 4 7 19 5 3 65 79 10 8 20 15 24 9 3 2 1 56 100 100 94
5 9 36 65 93 68 84 83 72 15 5 5 5 5 5 0 0 0 0 3 5 5 2 4 1 4 3 3 5 8 1 2 2 4 5 4 0 0 2 62 100 100 100
97 100 98 59 8 7 5 47 53 5 5 5 5 5 5 4 0 0 0 0 0 0 0 3 5 4 1 0 0 0 0 3 6 6 5 5 4 1 5 100 100 100 100
100 96 99 100 67 5 5 5 5 5 5 5 5 3 3 3 0 0 2 5 4 3 2 0 0 0 0 0 0 1 5 13 87 34 17 5 5 5 90 100 100 100 100
93 93 100 38 7 14 5 5 5 5 5 5 1 0 0 0 0 0 0 2 0 0 0 0 0 0 0 0 0 5 8 73 100 67 30 5 6 100 100 100 100 100 100
100 100 95 68 91 63 5 6 8 5 5 5 5 2 0 0 0 0 0 0 0 0 0 0 1 5 1 1 4 5 47 88 93 43 13 27 100 100 100 100 100 100 100
100 100 100 100 99 47 83 89 54 5 5 5 3 0 0 0 0 0 0 0 0 0 5 5 12 5 5 5 44 22 72 13 7 5 14 84 100 100 100 100 100 100 100
100 90 100 100 100 94 94 100 53 12 5 0 0 0 0 0 0 0 0 0 0 5 90 65 91 93 56 34 99 100 99 96 100 100 81 89 100 100 100 100 100 100 100
96 93 98 100 84 46 20 26 5 2 0 0 0 0 0 0 0 0 0 0 5 16 62 88 100 100 92 100 100 100 100 100 96 96 100 100 100 100 100 100 100 100 100

GFSMW_prec_cloud_012.txt.gz
Cloud_Cover
0 0 4 2 4 1 0 0 66 100 100 100 11 8 5 0 0 0 0 0 0 5 5 5 0 0 0 5 5 1 0 5 3 39 2 16 40 5 5 14 62 61 11
28 20 6 5 5 6 6 29 84 88 80 54 5 4 0 0 0 0 3 1 4 0 0 0 0 0 4 5 1 0 4 14 28 87 100 100 79 46 5 5 57 22 24
16 28 52 34 39 40 17 5 5 5 5 18 94 1 0 0 0 0 5 5 5 5 5 5 24 10 5 5 5 5 5 5 69 100 100 100 100 81 95 35 32 22 56
100 100 58 5 11 41 76 14 5 5 5 6 5 0 3 4 0 0 5 5 4 4 3 5 39 6 5 5 7 38 41 35 66 100 100 100 100 100 100 100 100 69 8
5 5 5 5 6 13 3 0 0 0 0 0 0 0 4 5 5 5 7 23 8 5 5 5 5 5 6 6 5 100 100 100 64 80 100 100 100 100 100 100 90 52 52
0 1 4 3 0 0 0 0 0 0 0 0 1 4 5 5 7 15 29 38 15 25 6 5 5 5 20 74 25 37 100 98 100 100 100 100 100 100 98 100 100 100 84
0 0 0 0 0 0 0 0 0 0 4 5 5 5 16 49 79 69 25 7 5 5 5 5 3 0 2 5 19 10 5 6 41 100 100 100 100 100 100 100 100 100 99
0 0 0 0 0 0 4 4 2 5 5 6 69 95 100 36 5 5 10 11 5 5 5 5 4 5 2 5 5 8 28 5 5 5 31 100 41 70 99 100 100 100 100
0 0 0 0 5 74 53 5 5 5 5 7 24 5 5 5 5 31 23 5 5 4 5 2 5 5 5 5 5 3 5 38 92 93 4 0 4 12 32 32 45 100 100
0 3 5 5 15 64 11 5 5 5 5 5 4 5 5 5 5 5 2 3 5 8 5 3 4 3 0 1 3 5 3 1 0 3 0 1 1 1 4 19 57 96 96
5 5 5 5 5 5 5 18 28 15 5 5 5 5 16 17 6 17 80 84 23 2 0 0 9 27 23 12 2 0 0 0 0 0 0 0 4 5 5 16 5 5 35
5 5 5 5 5 21 40 91 67 7 12 28 40 44 35 16 26 7 29 53 90 97 37 8 5 0 0 0 0 0 0 0 0 0 0 0 5 1 5 3 13 28 11
100 100 100 100 75 38 21 19 47 88 54 52 40 29 13 40 65 51 82 61 34 5 0 0 0 0 0 4 4 5 5 5 5 5 9 2 1 0 1 3 20 5 21
100 100 100 100 100 97 92 52 30 41 29 8 37 70 86 77 92 50 3 0 0 0 0 0 0 0 0 0 0 1 0 5 3 5 5 5 4 3 5 35 51 80 98
100 100 100 100 98 76 26 5 7 5 19 84 95 95 30 5 5 0 0 0 0 0 0 0 0 0 0 2 5 5 7 5 20 16 79 82 100 100 100 94 57 98 100
5 4 5 5 5 8 5 12 8 6 18 61 100 14 5 5 5 2 0 0 0 0 0 0 0 0 0 5 5 5 5 5 5 15 56 93 97 100 100 100 100 100 100
5 5 27 55 82 72 100 89 18 34 34 13 5 5 5 4 0 0 0 0 0 0 0 0 0 0 0 0 0 0 0 3 5 4 5 5 87 90 98 99 100 99 95
11 15 7 5 49 56 9 80 6 5 5 5 5 5 5 0 0 0 0 0 0 0 0 0 0 0 0 0 0 0 0 0 0 3 0 3 5 5 5 6 5 5 27
4 4 5 5 20 75 72 71 59 5 8 37 5 5 4 0 0 0 0 0 0 0 0 0 0 0 0 0 0 0 0 4 5 5 5 5 5 5 6 20 74 93 100
6 50 13 100 100 100 100 14 5 5 5 5 5 5 5 0 0 0 0 0 0 0 0 0 0 0 0 0 0 5 8 6 5 17 12 5 5 5 5 79 100 100 100
33 73 100 100 95 100 43 49 68 5 5 5 5 5 5 5 2 0 0 0 0 0 0 0 0 0 0 0 5 12 82 93 100 40 7 5 9 55 59 100 100 100 100
30 99 90 100 54 100 80 72 25 31 5 5 5 5 5 4 0 0 0 1 0 0 0 0 1 5 5 5 17 96 100 100 100 100 8 33 87 66 100 100 100 100 100
100 100 100 97 100 95 90 8 6 5 5 5 5 0 0 5 5 5 5 5 3 0 2 11 85 61 5 5 14 96 100 80 98 40 98 100 96 100 100 100 100 100 100
100 100 100 100 98 86 81 5 5 5 5 0 0 0 1 5 5 4 0 0 0 4 26 100 100 94 61 94 24 98 78 14 63 61 35 84 96 98 90 94 100 100 100
100 100 99 92 93 44 7 4 1 5 5 0 3 5 5 0 0 0 0 0 4 82 100 94 100 100 100 37 100 100 99 100 100 100 61 91 53 64 78 100 100 98 100
97 80 21 7 36 14 5 3 17 5 0 0 0 0 0 0 0 0 0 1 5 20 63 87 100 100 100 100 100 100 100 100 100 88 100 87 98 100 100 100 99 100 100

GFSMW_prec_cloud_015.txt.gz
Cloud_Cover
5 0 0 0 1 0 0 0 0 0 0 2 27 94 100 100 96 100 6 4 0 0 0 20 42 34 43 32 54 58 51 38 42 100 100 100 79 8 5 5 5 5 5
24 0 0 0 0 0 2 21 25 4 4 5 7 26 16 32 55 80 13 0 0 0 0 0 6 5 7 21 31 64 71 95 58 96 100 100 100 69 10 5 5 5 8
99 26 23 37 28 45 11 51 56 72 57 48 41 39 24 20 5 5 4 0 1 5 0 0 0 0 8 5 15 19 48 63 19 25 97 100 100 100 98 93 83 46 16
100 100 100 100 100 99 49 58 70 89 86 37 27 20 41 32 5 5 0 0 0 0 0 1 5 8 6 5 5 28 73 100 100 79 100 100 100 100 100 100 100 100 100
36 59 41 43 27 5 5 47 27 22 16 5 5 1 0 0 0 0 0 0 0 1 5 5 5 5 9 62 96 78 24 82 100 100 100 100 100 100 100 100 100 100 100
9 4 3 1 5 4 1 4 6 32 2 0 0 0 0 0 2 24 46 81 91 63 52 84 100 100 81 16 5 5 5 5 5 5 12 58 87 99 100 100 100 100 53
3 0 0 0 0 0 0 0 0 0 0 0 3 5 5 5 39 49 69 87 100 100 98 60 31 7 5 5 5 5 5 5 5 5 5 5 5 4 16 45 10 64 24
0 0 0 0 0 0 0 0 0 0 0 2 5 5 5 40 18 23 11 16 21 9 5 26 49 88 85 42 7 5 8 55 46 4 1 0 3 4 5 36 61 74 27
0 0 0 0 0 0 0 0 0 0 5 5 5 5 5 6 22 50 73 53 57 89 82 97 89 6 5 5 5 5 5 5 4 4 2 0 2 4 2 32 83 89 100
0 1 1 0 0 0 0 1 5 5 5 5 5 5 41 92 61 16 5 5 5 5 9 5 5 5 4 5 4 4 1 0 0 0 0 0 0 0 2 5 10 52 94
6 5 5 5 1 3 5 5 5 13 5 20 35 15 33 18 7 12 5 5 7 5 17 40 46 14 5 5 0 0 0 0 0 0 0 0 1 2 3 5 10 62 100
93 47 30 65 50 8 24 84 54 36 24 28 16 26 53 6 34 6 5 69 95 72 6 5 4 0 0 0 0 0 0 0 0 0 0 4 6 5 5 5 5 6 8
99 100 100 100 100 100 70 40 93 41 5 5 5 5 5 6 32 72 100 100 79 40 5 0 0 0 0 0 0 0 0 0 0 5 4 5 5 5 88 100 98 80 93
100 100 100 100 100 86 79 63 47 25 6 16 42 31 100 100 97 42 25 3 0 0 0 0 0 0 0 0 0 0 0 0 5 3 5 33 42 70 67 54 92 100 94
100 100 100 100 100 100 84 35 64 88 70 50 17 25 2 3 5 0 0 0 0 0 0 0 0 0 0 0 0 0 0 4 0 0 0 0 0 0 1 4 29 5 13
100 100 100 97 26 37 6 65 99 31 33 6 8 5 5 5 5 3 0 0 0 0 0 0 0 0 0 0 0 0 0 0 0 0 0 0 0 0 5 5 6 52 100
60 26 39 45 32 5 11 21 44 100 100 93 5 5 5 5 5 5 3 4 1 0 0 0 0 0 0 0 0 0 0 0 0 1 0 0 4 5 10 5 5 26 95
5 5 5 4 5 7 70 76 100 100 93 5 5 5 5 5 5 5 5 4 0 0 0 0 0 0 0 0 0 1 4 5 5 5 4 5 5 35 35 5 5 5 5
4 2 0 2 5 72 89 79 78 99 44 8 36 65 7 5 5 5 3 0 0 0 0 0 0 0 0 0 0 5 5 5 5 5 16 90 79 80 95 94 78 26 82
5 5 5 93 100 100 82 7 76 100 69 10 52 36 5 5 4 0 0 0 0 0 0 0 0 0 0 0 5 45 64 64 67 76 85 5 86 99 99 100 100 100 100
5 8 41 43 100 100 100 78 100 95 74 66 5 5 5 0 0 0 0 0 0 0 0 0 0 0 4 5 38 94 100 100 100 94 5 7 62 100 100 100 100 100 100
12 30 78 97 100 99 100 100 83 40 19 5 3 0 0 0 0 0 0 0 0 0 0 0 2 5 5 6 56 100 100 100 100 86 84 100 100 100 99 98 97 100 100
81 100 100 9 85 100 100 80 5 5 0 0 1 0 0 0 0 0 0 0 0 0 1 5 88 82 5 5 8 75 96 88 96 79 100 100 92 76 34 78 100 100 98
47 19 32 69 100 91 16 4 5 2 0 0 1 0 0 0 0 0 0 0 0 2 6 90 100 97 80 82 7 94 94 13 32 100 86 5 15 86 89 93 94 97 100
76 100 100 95 47 4 3 3 5 5 5 2 0 0 0 0 0 0 0 0 0 13 100 99 100 100 97 85 100 100 98 100 100 100 22 6 99 100 100 99 100 100 100
100 74 44 4 5 5 4 5 4 0 0 0 0 0 0 0 0 0 0 1 5 11 53 99 100 100 100 100 100 100 100 100 100 100 37 100 100 100 100 100 100 100 100

GFSMW_prec_cloud_018.txt.gz
Cloud_Cover
99 70 100 17 5 0 0 0 0 0 0 0 0 0 0 0 0 4 5 4 5 5 5 24 5 0 0 0 0 10 30 9 98 100 31 25 5 5 6 6 5 4 4
100 86 90 99 5 0 0 0 0 0 0 4 0 0 1 4 13 56 64 71 35 5 5 5 5 1 4 0 3 21 99 100 100 100 100 100 93 11 16 5 5 4 5
93 45 100 100 95 33 14 39 45 35 7 5 5 4 5 5 5 4 3 3 5 5 4 5 3 0 0 2 5 9 41 96 66 96 100 100 100 100 76 38 5 7 36
71 0 75 100 100 100 100 100 100 100 53 25 5 11 51 7 5 1 1 0 0 0 0 0 0 4 5 5 5 18 17 5 13 14 53 94 100 100 100 99 100 99 86
66 30 26 100 100 100 100 100 86 63 66 100 98 28 5 5 0 0 0 0 0 0 1 5 5 5 6 5 5 16 11 5 5 1 1 2 4 5 65 80 29 40 54
86 5 31 79 100 36 9 12 26 79 53 22 4 5 4 0 0 0 0 0 0 2 5 5 5 5 5 5 5 5 5 5 5 5 5 5 65 76 80 95 83 98 44
100 5 5 1 2 0 0 0 0 0 0 0 0 0 0 0 0 0 2 5 5 5 5 5 5 5 5 5 5 5 5 5 4 5 4 5 7 3 9 50 42 64 8
93 41 5 2 0 0 0 0 0 0 0 0 0 0 0 0 1 5 5 5 5 5 5 5 5 5 5 5 5 5 5 5 5 5 5 2 3 1 0 21 43 59 1
5 5 5 5 0 0 0 0 0 0 0 0 0 0 0 1 5 5 35 26 21 20 5 5 20 9 5 5 5 5 5 1 0 0 0 0 0 0 6 39 94 100 67
6 5 3 0 4 1 0 4 5 33 20 5 4 4 7 39 8 5 5 5 15 17 40 8 5 5 5 5 5 0 0 0 0 0 0 0 0 14 86 80 30 13 50
5 5 5 5 10 5 19 95 93 73 64 29 53 78 48 7 21 52 55 15 5 5 4 4 5 5 4 1 0 0 0 0 0 0 3 15 3 2 2 2 1 3 5
5 5 5 64 97 98 100 100 100 100 81 98 51 5 57 64 41 6 5 5 5 2 5 5 5 0 0 0 0 0 0 0 0 3 5 0 0 0 0 0 0 0 5
5 5 5 12 100 100 100 100 100 91 44 20 91 31 8 5 5 5 5 5 8 16 13 0 0 0 0 0 0 0 0 0 0 5 0 0 0 0 0 1 4 4 6
5 5 46 100 100 99 100 91 25 5 12 73 65 83 71 47 21 5 5 5 4 0 0 0 0 0 0 0 0 0 0 0 0 0 0 4 3 0 5 5 5 6 93
47 71 100 100 87 98 55 37 21 8 32 42 77 98 52 70 10 5 5 5 0 0 0 0 0 0 0 0 0 0 0 0 0 0 0 4 5 5 5 79 31 97 98
100 100 100 98 97 37 100 69 71 95 68 25 5 20 83 79 5 5 5 0 0 0 0 0 0 0 0 0 0 0 4 3 3 4 2 0 4 5 6 80 98 100 100
100 99 87 47 54 94 28 27 43 51 26 59 93 55 5 5 5 5 5 0 0 0 0 0 0 0 0 0 0 5 5 5 5 5 5 5 5 24 14 28 88 62 74
62 52 36 32 55 52 21 50 98 57 43 8 15 5 5 5 5 5 0 0 0 0 0 2 0 0 0 0 5 5 5 5 5 5 5 83 90 15 100 96 72 54 30
86 7 50 50 64 17 98 78 52 42 5 51 83 5 5 5 0 0 0 3 3 5 0 0 0 0 0 0 5 65 34 5 5 5 6 100 38 75 100 100 95 66 17
4 5 5 6 97 100 55 5 69 61 99 96 7 5 5 0 1 2 5 3 4 0 0 0 0 0 0 3 53 94 100 85 29 13 90 5 56 100 100 100 100 98 5
5 5 7 8 44 86 100 5 5 53 72 5 4 0 3 5 4 5 4 0 0 0 0 0 0 0 5 5 69 100 100 86 100 99 5 5 77 100 96 99 96 98 100
26 7 28 20 100 99 10 5 5 23 3 0 0 5 5 2 5 5 0 0 0 0 0 0 2 5 81 46 75 100 100 100 100 93 5 65 100 86 6 59 99 100 100
61 37 45 18 89 6 5 5 5 0 0 1 5 5 5 5 5 0 0 0 0 0 0 5 88 99 86 63 5 50 98 99 100 44 90 70 31 5 5 72 100 92 87
6 67 97 79 62 5 5 1 0 1 5 5 2 5 5 5 0 0 0 0 0 0 7 100 100 99 96 93 10 94 93 87 41 95 99 18 5 5 81 76 67 96 100
58 38 48 19 6 4 0 2 5 5 4 1 0 5 5 0 0 0 0 0 0 28 99 100 100 99 96 81 100 100 100 99 100 100 6 6 84 100 99 100 100 100 100
10 5 9 5 5 5 4 2 2 2 1 5 5 5 1 0 0 0 0 2 5 47 15 72 100 100 100 100 100 100 100 100 100 68 20 100 100 100 100 100 100 100 100

GFSMW_prec_cloud_021.txt.gz
Cloud_Cover
8 96 68 80 19 8 5 5 0 0 0 0 0 0 0 0 0 0 0 0 0 1 5 5 5 5 5 3 0 5 5 1 38 64 23 88 49 5 4 5 5 5 5
60 11 100 35 100 17 47 5 2 0 0 0 0 2 0 0 0 0 3 32 70 48 45 36 16 5 3 0 0 0 0 0 0 82 38 23 5 5 21 46 67 20 40
42 10 100 82 70 13 44 70 91 89 42 5 5 0 0 3 5 5 5 5 4 3 0 0 0 0 0 0 0 0 0 0 0 2 38 61 5 67 12 35 48 52 18
5 5 65 100 98 9 6 73 100 99 100 95 79 7 5 5 5 5 5 5 0 0 0 0 0 0 0 0 0 0 0 0 0 5 5 0 0 0 0 0 1 1 2
5 5 5 100 100 12 5 5 42 100 82 10 66 83 76 47 5 5 4 0 0 0 0 0 0 0 0 0 0 0 0 0 3 5 1 5 5 5 42 53 4 0 0
5 5 5 84 100 66 58 42 5 1 2 6 73 64 42 5 2 0 0 0 0 0 0 0 0 0 1 4 5 5 5 5 5 4 0 43 72 75 2 0 0 0 2
0 4 4 5 41 91 100 98 12 5 5 0 0 0 0 0 0 0 0 0 4 0 3 5 5 5 5 5 4 3 0 2 2 3 19 0 0 2 4 6 50 98 76
2 4 4 4 0 2 88 99 5 5 5 4 3 0 0 0 0 3 4 5 5 5 18 6 5 5 5 5 5 5 5 5 2 0 0 0 0 2 5 13 92 100 8
3 0 0 0 0 1 5 96 5 5 5 10 5 5 5 32 61 48 27 5 26 27 5 5 5 5 9 6 5 5 0 5 0 0 0 0 4 8 5 32 27 92 13
0 0 1 0 0 0 5 5 5 5 73 36 6 59 98 100 96 60 54 29 6 5 10 42 56 84 63 5 2 0 0 0 0 0 0 2 4 0 0 0 0 0 3
0 0 0 0 0 0 4 5 7 5 5 5 51 93 62 10 19 6 30 11 5 5 5 5 5 5 4 0 0 0 0 0 0 0 0 5 0 0 0 0 0 2 5
0 0 4 0 0 3 5 5 5 5 12 35 82 72 32 22 65 10 20 6 5 2 4 5 5 2 0 0 0 0 0 0 0 0 5 5 0 0 0 0 5 5 53
0 0 1 5 5 11 11 5 5 43 76 76 52 71 36 89 5 6 5 5 5 5 5 5 5 1 0 0 0 0 0 0 0 0 0 0 0 0 2 5 34 64 94
3 4 5 13 50 83 53 66 93 100 82 93 99 62 83 96 11 5 5 5 5 5 5 4 0 0 0 0 0 0 0 0 0 0 5 2 5 5 23 46 63 84 71
5 5 70 45 95 60 97 100 100 91 71 93 47 97 99 52 6 5 5 5 5 5 0 0 0 0 0 0 0 0 0 4 4 5 5 5 5 5 83 100 100 100 92
17 34 61 22 75 96 100 92 78 81 34 99 86 95 75 6 5 5 5 5 4 0 0 0 0 0 0 0 0 5 5 5 5 5 5 5 5 22 94 92 98 100 100
98 96 69 96 100 79 82 96 38 67 91 100 99 12 5 5 5 2 5 0 0 0 0 0 0 0 0 0 0 5 13 44 5 61 43 5 57 76 67 9 88 95 86
100 100 100 100 100 95 78 99 90 100 100 84 7 5 5 5 2 0 0 0 0 0 0 0 0 0 0 0 5 40 58 24 60 79 61 74 94 18 100 86 98 34 4
100 100 100 100 100 100 65 100 100 100 8 5 5 5 2 0 0 0 0 0 0 0 0 0 0 0 0 2 28 82 36 19 63 16 86 100 16 40 100 100 87 5 5
100 100 100 99 65 57 100 100 100 77 5 5 3 0 0 0 0 0 0 0 1 3 0 0 0 0 0 5 76 95 48 19 5 83 84 11 60 100 100 100 90 84 6
100 100 100 100 100 100 84 54 70 5 5 0 0 0 0 0 0 0 0 0 2 0 0 0 0 1 6 60 82 100 100 86 98 99 36 5 62 100 100 100 97 94 100
100 100 99 100 100 96 13 17 5 4 0 0 0 0 0 0 1 4 5 1 0 0 0 0 3 5 29 75 97 100 100 100 100 70 45 79 100 84 95 71 100 100 99
94 81 78 95 100 35 20 5 4 0 0 0 0 0 0 5 5 1 0 0 0 0 0 4 15 8 5 28 53 87 100 100 100 98 100 94 21 54 28 51 100 90 84
98 58 98 96 32 12 5 5 1 3 2 0 0 0 3 0 0 0 0 0 0 4 5 58 94 74 5 62 12 97 96 71 97 100 32 5 5 93 41 43 55 100 100
18 72 42 5 5 5 5 5 2 0 0 0 0 0 0 0 0 0 0 0 4 6 66 76 100 96 92 68 100 100 100 100 100 100 5 5 48 67 28 89 100 100 100
86 35 10 5 5 3 0 0 0 0 0 0 0 0 0 0 0 0 0 4 5 5 7 84 100 100 100 100 100 100 100 100 100 81 38 78 94 99 100 100 100 100 100

GFSMW_prec_cloud_024.txt.gz
Cloud_Cover
1 0 4 6 26 85 56 98 7 5 5 0 0 0 0 0 0 0 0 0 0 0 0 0 0 4 20 32 5 1 0 0 0 0 0 0 0 0 0 28 100 3 4
0 0 5 5 23 100 43 60 28 5 5 48 98 77 86 22 2 0 1 4 5 21 69 78 91 77 8 4 0 0 0 0 0 0 0 0 2 1 0 1 2 5 5
0 4 5 5 19 100 71 88 39 55 8 6 6 24 43 8 5 1 5 5 5 14 10 5 5 5 1 0 0 0 0 0 1 0 0 1 0 0 5 5 5 2 0
0 5 5 5 5 5 76 92 85 48 14 13 5 6 4 5 5 5 4 4 5 5 5 5 3 0 0 0 0 4 3 0 0 0 5 3 0 4 2 0 0 5 5
4 5 5 5 5 5 55 100 99 99 97 100 83 5 5 4 5 5 5 5 5 5 0 0 0 0 0 0 5 1 0 0 1 4 5 5 5 0 0 2 0 0 0
0 1 5 5 5 5 40 98 98 92 75 49 16 63 8 13 5 0 0 0 0 0 0 0 1 4 5 5 5 5 5 5 5 0 0 4 2 0 3 0 0 0 2
0 0 0 0 0 4 5 5 5 5 5 5 8 14 25 7 6 5 0 0 0 0 0 5 5 5 5 5 5 5 5 1 2 0 1 2 0 0 0 0 5 5 4
0 0 0 0 2 0 2 5 5 0 0 0 5 5 5 10 34 11 5 2 4 12 50 46 6 5 17 5 5 5 4 4 4 5 1 0 0 0 5 5 5 6 0
0 0 0 0 0 4 5 3 0 0 0 1 5 5 24 99 56 49 9 22 96 100 81 49 6 5 5 5 5 5 5 4 0 0 0 0 0 2 3 0 4 5 4
0 0 0 0 0 0 0 0 1 5 5 2 5 9 64 58 63 75 71 84 79 98 60 16 5 5 4 5 5 5 1 0 0 0 0 0 0 4 0 0 0 0 3
0 0 0 0 0 0 0 4 22 56 4 5 8 86 13 78 100 97 76 64 25 6 5 5 5 5 5 5 0 0 0 0 0 0 0 0 0 0 0 0 0 5 28
0 0 0 0 0 1 0 4 1 9 8 96 94 64 90 79 60 76 53 26 5 5 5 5 5 5 5 0 0 0 0 0 0 0 0 0 0 0 0 5 5 62 91
0 0 0 0 0 1 3 5 3 5 8 65 55 100 97 34 76 80 14 6 5 5 1 5 5 0 0 0 0 0 0 0 0 0 0 4 5 5 5 13 81 97 98
0 0 3 5 5 5 5 5 5 18 23 72 100 96 30 82 46 8 5 7 6 4 5 0 0 0 0 0 0 0 0 0 0 2 5 5 5 12 54 77 99 100 95
3 4 5 4 5 5 5 5 8 56 45 93 75 27 82 69 12 6 63 18 0 0 0 0 0 0 0 0 0 0 0 2 5 5 5 14 38 73 99 100 99 100 55
5 5 5 9 40 26 34 97 91 100 82 20 88 87 22 6 16 98 5 0 0 0 0 0 0 0 0 0 0 5 5 5 5 5 6 63 94 100 100 100 100 100 100
5 5 5 5 6 62 97 96 82 52 19 63 99 78 45 92 28 4 0 0 0 0 0 0 0 0 0 0 2 5 5 64 58 82 73 74 90 100 100 99 97 100 100
5 23 64 91 86 92 90 62 80 85 93 54 29 87 81 12 0 0 0 0 0 0 0 0 0 0 0 0 5 29 32 42 63 92 100 98 100 100 100 82 98 100 100
46 68 81 97 100 100 100 100 100 100 36 43 32 25 5 0 0 0 0 0 0 0 0 0 0 0 0 0 24 76 77 75 88 99 100 100 100 100 100 100 96 32 8
100 100 100 100 100 100 100 84 77 82 100 100 55 5 0 0 0 0 0 0 0 0 0 0 0 0 0 2 69 93 100 91 100 97 100 100 100 100 100 100 99 91 6
100 100 100 100 100 81 100 75 67 100 83 5 5 4 0 0 0 0 0 0 0 0 0 0 0 0 4 5 74 100 100 98 60 81 81 96 100 100 100 100 100 100 100
100 100 100 79 99 100 99 100 93 39 7 5 4 0 0 0 0 0 0 0 0 0 0 0 0 5 5 50 78 98 100 100 100 61 80 99 100 100 100 100 100 100 100
100 100 100 100 82 100 64 70 56 5 5 1 0 0 0 0 0 0 0 0 0 0 0 0 5 5 48 66 80 100 100 100 100 99 99 100 100 100 58 100 100 100 99
100 100 99 73 100 85 34 5 5 5 1 0 0 0 0 0 0 0 0 0 0 0 0 5 5 9 58 84 82 37 72 91 85 92 98 34 100 94 96 70 15 87 100
100 92 88 97 53 5 5 5 5 5 4 0 0 0 0 0 0 0 0 0 0 4 5 5 23 80 62 100 100 100 100 99 100 100 19 100 89 59 51 24 84 91 100
99 95 90 6 5 5 5 4 5 3 0 0 0 0 0 0 0 0 0 0 5 5 5 15 95 96 100 100 100 100 100 100 100 99 100 100 95 90 98 100 100 100 100

GFSMW_prec_cloud_027.txt.gz
Cloud_Cover
0 0 0 0 0 0 37 5 7 66 83 70 88 32 0 0 0 2 1 0 0 0 0 0 0 0 0 0 1 18 67 48 8 5 4 0 0 0 0 0 0 0 0
0 0 0 0 0 4 5 75 100 90 100 100 100 99 84 71 61 10 0 0 0 3 5 5 5 7 22 50 49 56 71 59 6 0 0 0 0 0 0 0 0 5 5
0 0 0 0 5 2 1 8 100 88 98 28 98 90 100 58 68 5 2 0 0 0 2 4 5 5 5 18 6 5 5 3 0 0 0 0 0 2 5 30 43 59 15
0 0 3 0 5 5 5 8 70 89 94 93 100 90 12 5 15 5 5 5 4 1 3 1 0 0 0 4 3 0 0 0 0 0 0 0 0 0 0 4 18 6 46
0 3 2 5 5 5 70 38 60 100 56 6 15 67 98 54 82 6 5 6 42 7 5 37 2 0 0 0 4 5 0 0 0 0 0 0 5 5 1 0 0 0 0
0 0 4 3 5 26 23 55 37 92 50 38 5 12 36 70 9 3 5 4 3 5 4 5 5 17 53 8 4 1 1 4 0 5 0 0 0 3 1 0 4 0 1
0 0 5 0 0 5 5 4 2 1 0 1 5 5 3 0 0 0 0 3 5 6 5 5 5 11 5 5 5 5 5 5 4 5 5 5 5 3 0 0 0 5 2
0 0 5 5 0 0 0 0 0 0 0 1 3 0 0 0 2 0 5 5 26 11 60 58 21 5 7 5 5 5 5 5 5 5 6 33 12 4 0 0 5 2 0
0 0 0 5 3 0 0 0 0 0 0 0 0 0 4 5 0 5 7 21 29 13 38 41 88 77 5 5 5 5 5 5 5 5 5 2 0 0 0 0 4 5 2
0 0 0 0 0 0 0 0 0 0 0 0 0 4 5 5 5 8 56 100 78 96 45 49 40 5 15 5 5 5 4 3 5 1 0 0 0 0 0 0 0 1 4
0 0 0 0 0 0 0 0 0 0 0 0 0 1 5 5 5 42 64 94 86 96 100 82 40 6 5 5 5 3 2 1 0 0 0 0 0 0 0 0 2 5 31
0 0 0 0 0 0 0 0 0 0 0 5 1 0 5 5 24 54 100 100 100 96 44 6 5 6 5 5 0 0 0 0 0 0 0 0 0 4 5 5 5 6 10
0 0 0 0 0 0 0 0 0 0 1 1 4 3 5 70 5 10 98 93 68 45 6 9 14 28 5 0 0 0 0 0 0 0 0 0 5 5 5 31 63 6 80
0 0 0 0 0 4 1 0 0 0 3 4 5 32 87 78 89 51 18 70 27 10 32 6 5 4 0 0 0 0 0 0 0 0 5 5 5 15 5 5 31 58 39
0 0 0 5 5 5 5 5 5 5 5 8 66 85 59 45 5 54 11 6 5 5 5 2 0 0 0 0 0 0 0 3 5 5 5 5 16 81 100 100 85 30 93
0 1 5 5 5 5 5 4 5 5 87 100 99 74 20 57 94 18 5 5 5 5 5 0 0 0 0 0 0 0 5 5 5 5 5 5 25 78 100 100 100 100 100
0 3 5 5 5 5 5 5 44 91 96 92 100 100 100 95 70 28 5 5 5 1 0 0 0 0 0 0 0 3 5 5 5 5 5 5 5 95 22 43 100 96 95
0 5 5 5 5 5 7 68 100 99 91 98 100 100 95 72 9 11 5 2 0 0 0 0 0 0 0 0 0 5 5 20 65 61 72 36 6 54 100 100 100 91 49
5 5 34 83 5 54 100 81 96 100 100 100 87 10 5 20 26 5 0 0 1 1 0 0 0 0 0 0 5 19 45 5 5 99 100 100 92 98 100 100 100 43 5
19 39 97 100 100 100 99 93 100 100 100 62 5 8 5 5 2 0 5 5 0 0 0 0 0 0 0 0 5 71 97 64 89 59 55 63 100 100 100 100 100 89 8
100 100 98 100 100 100 100 100 100 65 61 50 52 5 4 0 4 5 4 0 0 0 0 0 0 0 0 5 10 78 100 100 94 94 43 92 100 100 100 100 100 91 100
100 100 100 100 100 100 97 63 100 65 58 51 5 5 2 3 4 0 0 0 0 0 0 0 0 0 0 5 17 94 100 100 100 93 92 99 100 100 100 100 100 100 100
100 100 100 100 100 89 100 95 50 43 51 5 5 5 4 2 0 0 0 0 0 0 0 0 0 1 5 5 36 98 100 100 100 100 100 99 98 100 72 96 100 100 88
100 100 100 100 100 100 100 89 89 86 8 5 4 0 0 3 5 0 0 0 0 0 0 2 5 5 6 37 26 34 87 66 92 100 97 14 92 90 80 58 98 69 100
100 100 100 100 100 99 86 92 92 41 5 5 2 5 5 5 0 0 0 0 0 1 5 5 36 78 81 38 100 100 100 100 100 100 6 26 93 18 49 79 100 100 100
74 87 100 99 90 100 100 100 43 5 5 5 6 20 5 2 0 0 0 0 0 2 5 14 89 88 100 100 100 100 100 100 100 89 87 100 100 98 100 100 100 100 100

GFSMW_prec_cloud_030.txt.gz
Cloud_Cover
27 68 26 41 87 34 5 5 0 5 27 55 30 8 21 38 18 5 5 37 12 12 5 5 4 0 2 4 1 5 5 5 0 5 53 87 68 33 31 7 18 2 0
21 62 91 88 6 9 3 0 5 5 5 84 34 59 75 74 70 85 99 41 66 88 15 4 1 0 0 0 3 5 5 5 5 4 5 5 59 11 5 4 2 1 2
70 86 63 34 1 0 0 5 3 5 5 5 5 5 5 19 42 23 6 18 62 5 5 0 0 2 0 1 5 4 3 4 1 0 0 1 2 0 5 2 4 4 5
86 73 6 0 0 0 4 5 5 5 5 5 5 8 53 51 14 5 83 59 5 4 0 4 0 0 2 4 5 5 5 5 25 7 5 2 0 0 1 5 12 12 69
36 2 0 0 0 4 5 5 5 5 5 5 5 5 5 5 5 5 5 5 3 4 5 5 2 0 0 1 0 3 2 2 0 0 0 5 5 2 0 0 0 0 2
5 0 0 0 0 5 5 57 58 7 5 5 5 5 0 0 0 1 0 0 0 0 0 0 0 0 0 2 4 5 3 4 4 3 5 4 4 0 0 3 4 2 5
5 0 0 0 0 2 0 4 2 3 5 2 0 0 0 0 0 0 0 0 3 4 3 0 5 4 5 5 5 5 5 4 5 5 16 5 5 5 5 5 0 0 0
5 0 0 0 0 0 0 4 2 5 0 0 0 0 0 0 0 0 0 1 5 0 5 5 5 5 5 5 5 5 5 5 5 5 5 24 58 5 0 0 0 0 0
4 5 0 0 0 0 0 3 3 0 0 0 0 0 0 0 0 0 0 0 1 5 5 5 5 7 5 5 5 5 5 6 16 62 15 16 5 5 3 0 0 0 5
5 5 0 0 0 0 0 0 0 0 0 0 0 0 0 0 0 4 3 2 5 15 63 73 59 37 5 5 5 8 56 100 60 6 22 45 4 0 0 0 0 1 5
5 3 0 0 0 0 0 0 0 0 0 0 0 0 0 0 3 4 4 15 79 88 98 88 11 5 5 20 51 74 64 20 6 20 2 0 0 0 0 0 4 5 28
3 3 0 0 0 0 0 0 0 0 0 0 0 0 0 0 2 5 20 93 92 79 81 70 45 18 69 37 9 73 15 37 4 0 0 0 0 0 1 5 5 5 5
5 4 0 0 0 0 0 0 2 3 0 0 0 0 3 5 5 89 96 100 100 100 67 49 11 16 66 92 29 71 5 4 0 0 0 0 0 5 5 5 5 5 16
0 0 0 0 0 0 0 0 3 5 5 5 4 5 5 6 99 99 100 100 100 100 95 68 99 99 64 18 5 5 0 0 0 0 0 4 5 12 35 58 80 100 100
0 0 0 0 0 1 5 5 5 5 3 2 5 10 73 100 100 100 100 100 100 100 100 99 76 62 8 5 1 0 0 0 0 0 5 5 14 60 99 100 99 100 77
0 0 0 3 5 5 5 5 5 5 4 6 42 100 100 100 100 100 100 100 100 96 100 32 5 0 2 0 0 0 0 1 5 5 5 5 5 34 98 100 100 100 100
0 0 0 0 1 5 5 5 5 15 94 96 100 100 100 100 100 100 100 88 75 53 5 5 0 0 0 0 0 0 5 5 5 5 5 5 5 34 14 9 99 98 99
0 0 0 0 3 5 5 28 99 46 100 99 99 100 100 100 100 93 60 26 15 5 0 0 0 0 0 0 0 3 5 5 5 5 10 16 5 42 100 79 100 100 75
3 2 3 4 9 60 86 100 100 100 99 100 100 100 100 95 56 31 34 5 5 1 0 0 0 0 0 0 0 5 10 5 5 18 100 97 72 94 100 100 100 84 45
4 5 16 93 92 100 100 100 100 100 100 100 100 67 16 37 33 55 8 5 2 0 0 0 0 0 0 0 3 5 31 86 32 79 71 68 100 100 100 100 100 96 5
56 98 100 100 86 84 100 100 100 100 100 69 75 20 25 49 36 91 24 5 0 0 0 0 0 0 0 0 5 20 100 100 90 94 80 52 69 100 100 100 99 100 100
100 100 93 100 94 88 100 100 100 95 75 69 27 10 30 94 87 5 5 1 0 0 0 0 0 0 1 5 10 98 100 100 100 98 18 67 100 100 100 100 100 100 100
99 100 100 100 97 100 100 100 75 99 51 6 16 98 100 74 5 5 4 5 4 0 0 0 0 1 5 5 15 99 100 100 100 86 81 100 100 100 50 68 100 100 92
91 100 100 100 100 100 95 71 94 44 32 98 100 98 13 5 5 5 3 0 0 0 0 0 5 5 5 5 8 97 83 79 99 88 99 67 33 33 66 98 100 100 100
100 100 100 100 99 95 73 82 79 100 100 100 53 5 36 18 5 5 4 1 0 0 0 5 5 25 25 35 100 100 100 100 100 100 19 5 16 79 100 100 100 100 100
100 100 100 93 80 100 81 74 96 100 66 5 26 25 5 5 5 3 0 0 0 0 0 5 30 52 94 100 100 100 100 100 100 96 16 89 100 100 100 100 100 100 100

GFSMW_prec_cloud_033.txt.gz
Cloud_Cover
31 5 84 100 100 100 100 100 100 14 30 5 58 7 26 88 100 87 46 86 78 64 90 87 79 68 5 2 4 3 0 0 0 0 0 0 0 3 5 5 5 5 5
5 6 52 52 96 99 83 22 36 15 36 6 5 5 4 51 22 56 5 19 79 92 43 5 15 6 5 1 0 0 0 0 0 0 0 1 4 0 0 0 0 0 0
5 68 10 41 71 91 40 50 55 84 5 5 5 5 5 29 11 3 5 5 6 7 28 31 5 2 0 0 0 0 0 0 0 0 0 4 5 16 55 37 24 28 23
37 63 46 70 86 21 39 86 21 2 5 5 30 36 5 5 5 5 5 5 5 3 0 0 0 0 0 0 0 0 0 0 0 0 0 0 0 0 5 22 81 76 45
60 12 69 43 5 5 39 5 0 5 5 6 5 5 5 5 61 39 1 0 0 0 0 0 0 0 0 0 0 0 0 0 0 0 0 0 0 0 0 0 0 0 5
28 8 39 44 18 46 2 0 0 2 5 5 5 5 5 4 1 0 0 0 0 0 0 0 0 0 0 0 2 5 5 5 3 0 0 0 0 1 0 0 2 0 1
5 5 85 56 39 2 0 1 5 5 4 0 0 0 0 0 0 0 0 0 0 0 0 0 0 0 5 5 5 5 5 5 2 0 0 0 0 0 0 0 0 0 0
5 10 65 9 2 0 0 0 0 0 0 0 0 0 0 0 0 0 0 0 0 0 0 0 1 5 5 5 5 5 5 5 3 3 0 5 5 5 5 2 0 0 0
5 15 5 5 5 4 0 0 0 0 0 0 0 0 0 0 0 0 0 0 0 0 0 5 6 56 54 5 5 5 5 5 5 5 5 17 10 5 2 0 0 4 5
17 5 5 5 5 0 0 0 0 0 0 0 0 0 0 0 0 0 0 0 0 5 43 76 91 57 11 5 5 5 5 5 6 5 7 40 5 5 0 0 0 0 5
5 5 5 4 0 3 0 0 0 0 0 3 0 0 0 0 0 0 0 5 19 75 97 81 71 19 5 5 12 55 37 54 63 11 5 5 1 0 0 0 2 5 5
6 5 0 0 0 1 5 0 0 0 4 0 0 0 0 3 4 4 5 95 98 96 75 69 30 5 5 54 88 62 49 11 13 5 5 0 0 0 0 5 5 5 5
4 3 0 0 5 0 0 0 0 0 4 5 5 5 11 5 5 9 68 85 94 68 52 72 85 81 84 91 35 5 5 5 4 0 0 0 0 3 5 5 5 20 92
0 0 0 0 0 4 0 0 4 5 5 5 5 5 5 5 49 89 92 92 88 100 100 100 91 95 13 5 5 5 4 0 0 0 0 0 2 5 75 45 80 100 42
0 0 0 4 4 0 0 5 5 5 5 27 29 5 47 88 78 94 67 70 100 100 95 100 50 6 5 5 5 0 0 0 0 0 0 0 5 48 95 100 100 81 73
0 1 0 0 1 0 0 5 5 46 99 71 5 62 67 84 88 84 95 100 97 100 94 6 5 5 2 2 5 0 0 0 2 5 5 5 5 6 100 100 100 100 100
4 0 0 0 0 0 4 5 38 77 79 48 68 100 100 93 100 100 98 100 86 10 12 5 5 4 5 5 1 0 1 5 5 5 5 5 5 42 31 21 98 77 100
0 0 0 0 0 0 2 5 10 98 72 98 100 94 99 92 98 100 98 48 5 8 5 5 5 5 5 1 0 2 5 5 5 5 5 29 63 70 100 100 83 100 74
0 0 1 4 5 5 5 67 90 96 76 99 99 89 97 100 100 88 9 5 5 5 5 5 5 5 5 4 0 5 5 5 5 5 18 100 79 97 100 100 100 81 25
4 5 5 5 5 26 96 90 70 63 82 90 100 100 100 100 90 5 5 5 27 5 5 5 5 5 1 0 5 47 6 5 5 8 84 38 74 100 100 100 100 76 5
5 5 5 5 35 49 16 98 97 97 100 96 97 100 100 66 30 9 29 42 39 52 5 6 5 0 0 0 5 72 100 72 85 84 83 5 35 100 100 100 82 70 100
32 29 21 58 28 60 68 69 31 65 98 100 100 97 41 5 20 45 61 23 5 5 10 4 0 0 0 0 4 78 100 100 100 100 42 87 100 100 100 86 100 100 100
48 63 17 5 54 64 57 65 74 95 81 100 80 41 23 67 41 10 5 5 5 5 0 0 0 0 0 4 2 44 100 100 100 100 100 88 93 34 6 73 100 100 89
84 88 96 100 100 100 51 85 84 100 100 53 28 94 96 54 6 5 6 5 5 0 0 0 0 3 5 5 12 95 100 96 90 99 64 5 5 45 99 100 100 96 100
100 100 100 100 97 81 100 100 100 92 58 87 100 76 29 5 31 48 5 3 0 0 0 0 5 7 5 26 100 100 100 100 100 100 5 14 76 94 100 100 100 100 100
100 100 100 100 95 100 100 98 45 89 95 99 59 55 7 46 27 5 5 0 0 0 0 4 5 6 63 100 100 100 100 100 100 86 56 100 100 100 100 100 100 99 100

GFSMW_prec_cloud_036.txt.gz
Cloud_Cover
0 0 0 1 5 92 100 100 100 100 100 100 100 100 100 100 100 100 100 100 22 5 8 35 5 5 19 5 55 58 11 12 3 0 0 0 0 0 0 0 0 0 0
0 0 0 5 78 98 100 100 100 100 100 100 100 100 100 96 100 100 95 1 3 0 0 1 5 5 5 0 0 0 0 0 0 0 0 0 0 0 0 3 5 0 2
0 0 2 14 79 46 92 100 100 100 100 100 99 66 58 96 100 30 5 5 3 0 0 0 0 0 0 0 0 0 0 0 0 0 0 0 0 0 5 5 5 5 5
0 0 3 5 8 23 15 62 61 92 68 46 87 60 79 9 5 5 5 4 0 0 0 0 0 0 0 0 0 0 0 0 0 0 0 0 0 0 0 3 5 6 8
0 0 34 5 14 32 79 66 44 72 96 66 38 28 5 4 5 5 4 0 0 0 0 0 0 0 0 0 0 0 0 0 0 0 0 0 0 0 0 0 0 0 0
0 0 14 6 43 60 58 68 55 77 64 5 5 5 5 5 2 0 0 0 0 0 0 0 0 0 0 0 0 0 0 3 4 4 0 0 0 0 0 0 0 0 0
0 0 47 5 85 66 42 17 5 5 5 5 5 5 3 0 0 0 0 0 0 0 0 0 0 0 0 0 0 5 5 5 4 3 5 2 0 0 0 0 0 0 0
0 0 97 11 62 60 9 5 11 5 5 5 2 0 0 0 0 0 0 0 0 0 0 0 0 0 1 5 5 5 3 5 5 5 5 1 0 4 0 0 0 2 0
0 6 43 11 47 35 5 30 10 5 0 0 0 0 0 0 0 0 0 0 0 0 0 0 1 5 5 5 5 5 5 5 5 5 5 5 5 4 2 0 0 2 5
1 18 31 5 5 20 47 5 5 0 0 0 0 0 0 2 2 0 0 1 0 1 0 5 5 5 5 5 5 5 5 5 5 5 5 3 0 0 0 0 0 0 5
5 5 21 67 5 6 19 5 5 5 0 0 0 0 4 3 0 4 5 5 5 2 3 5 5 5 5 5 5 5 5 5 5 5 5 4 0 0 0 0 0 4 5
47 23 17 47 6 39 5 5 5 5 1 0 1 5 4 3 5 6 72 6 5 5 5 5 5 5 5 9 11 5 5 5 5 5 0 0 0 4 4 0 5 5 5
62 89 48 51 11 6 5 5 5 4 0 5 5 5 5 5 5 5 5 4 5 28 28 5 11 5 64 93 31 4 1 0 0 2 2 5 3 0 1 5 5 6 79
78 94 35 14 5 5 5 5 1 1 5 5 5 5 5 33 5 5 5 10 60 26 5 31 33 30 50 12 4 3 5 5 5 5 2 0 5 1 42 69 76 100 50
23 61 14 27 5 5 5 5 4 5 5 5 5 5 59 55 14 5 88 95 34 72 72 66 98 55 5 5 5 5 5 5 4 0 3 5 3 26 100 100 96 95 98
5 6 54 14 5 5 5 5 5 5 5 5 5 59 72 34 41 100 92 98 80 76 62 81 5 5 5 5 5 2 5 0 5 5 5 0 5 18 99 99 100 100 97
61 14 5 5 5 5 5 5 5 5 5 5 78 88 52 77 81 78 99 100 94 88 60 37 5 5 5 5 4 2 3 5 5 1 4 2 5 22 5 7 81 7 100
22 17 5 5 5 5 3 2 5 5 5 72 100 88 99 93 96 78 100 73 41 98 61 5 5 5 5 4 0 4 5 4 1 5 5 60 6 5 100 92 82 99 21
5 5 5 5 5 0 0 3 4 86 97 98 99 100 99 93 58 51 70 97 99 59 49 17 5 5 5 0 2 5 5 5 5 4 88 78 36 39 100 100 78 78 7
5 5 5 2 0 5 5 58 93 76 86 100 100 82 8 73 93 100 100 85 72 98 25 5 5 0 0 0 5 26 5 5 5 64 63 87 74 100 100 100 82 32 7
5 5 5 5 5 6 66 76 26 88 100 97 22 33 99 100 100 100 75 69 97 60 5 5 5 0 0 0 5 75 98 18 99 13 77 5 79 100 100 100 52 54 100
0 4 5 5 5 13 16 72 98 75 6 5 83 87 74 91 99 98 85 28 5 5 5 5 5 5 0 0 4 85 100 100 90 82 5 88 100 100 100 84 100 100 99
5 5 5 5 5 11 58 6 5 5 5 50 56 64 97 86 53 69 32 5 5 24 5 5 2 0 0 4 2 76 100 99 100 57 98 90 64 9 54 73 100 95 98
5 5 5 5 5 5 5 5 5 5 5 9 88 96 71 76 58 5 5 5 5 5 5 0 0 4 5 5 13 100 99 93 82 90 54 5 5 62 98 63 8 93 100
5 6 10 5 5 5 5 5 5 63 93 100 86 78 94 9 8 14 16 95 48 5 5 3 5 5 5 34 100 100 100 100 100 100 5 6 56 92 78 95 98 100 100
5 11 5 5 5 5 21 79 100 100 99 78 86 28 12 42 21 95 100 91 57 50 10 4 5 5 22 77 100 100 100 100 100 76 46 100 100 100 100 100 100 100 100

GFSMW_prec_cloud_039.txt.gz
Cloud_Cover
0 0 0 0 0 0 0 0 0 5 61 100 100 100 100 100 100 100 100 100 100 100 9 5 4 0 0 0 0 0 0 0 0 0 0 0 0 0 0 0 0 0 0
0 0 0 0 0 0 0 0 0 5 41 100 100 100 100 100 100 100 100 100 100 40 5 6 0 0 0 0 0 0 0 0 0 0 0 0 0 0 0 0 4 0 0
0 0 0 0 0 0 0 0 5 5 25 95 100 100 100 100 100 100 100 99 45 5 10 2 0 0 0 0 0 0 0 0 0 0 0 0 0 0 1 0 4 0 0
0 0 0 0 0 0 0 3 8 79 100 100 100 100 100 100 100 100 94 78 30 44 5 0 0 0 0 0 0 0 0 0 0 0 0 0 0 0 0 0 0 5 1
0 0 0 0 0 0 0 5 14 100 100 100 100 100 100 98 80 96 70 96 24 4 0 0 0 0 0 0 0 0 0 0 0 0 0 0 0 0 0 0 0 0 5
0 0 0 0 0 0 0 5 6 65 73 31 62 67 84 76 46 60 72 18 3 0 0 0 0 0 0 0 0 0 0 0 0 0 0 0 0 0 0 0 0 0 0
0 0 0 2 0 0 0 5 5 56 42 97 87 76 44 24 47 49 5 4 0 0 0 0 0 0 0 0 0 0 0 0 0 0 0 0 0 0 0 0 0 0 0
0 0 0 0 0 0 5 5 5 6 22 56 78 79 63 26 12 5 3 0 0 0 0 0 0 0 0 0 0 0 0 0 0 0 0 0 0 0 0 0 3 5 0
0 0 3 0 0 0 5 5 16 5 33 24 11 5 51 7 5 0 0 5 1 0 0 0 0 0 0 0 0 4 2 4 5 5 5 5 0 1 0 0 0 5 35
0 5 1 0 0 2 7 49 5 5 53 5 6 46 37 5 0 0 3 4 0 1 0 0 0 0 1 3 4 1 5 5 5 5 5 5 0 0 0 0 0 3 5
4 5 34 5 0 5 25 61 16 5 5 5 48 23 5 5 2 3 4 1 5 5 0 0 0 5 5 4 4 5 5 5 5 5 5 5 4 0 0 0 0 5 5
5 27 40 0 5 24 5 5 5 5 5 60 36 10 5 5 5 5 5 5 5 5 0 2 5 5 5 5 5 5 5 5 5 5 5 3 4 0 0 0 5 5 5
7 41 6 5 5 19 5 5 5 5 60 100 78 54 13 5 5 5 5 6 5 2 5 41 26 5 9 5 5 5 5 5 5 5 4 0 0 0 0 5 5 83 100
76 42 3 5 59 31 5 5 5 58 71 90 62 6 5 5 5 5 12 78 5 8 27 5 5 9 6 5 5 5 5 5 5 5 0 0 0 1 14 59 75 89 14
22 5 5 54 55 6 13 77 64 92 83 62 61 9 5 5 6 66 83 5 39 5 5 56 63 5 5 9 5 5 5 5 1 0 0 0 2 5 90 100 85 91 85
5 4 4 38 13 11 48 94 89 90 100 85 8 5 5 40 86 96 93 74 5 50 5 5 5 31 65 6 5 5 5 5 0 0 0 0 2 5 36 86 100 100 100
5 4 4 87 74 54 53 84 91 81 41 45 33 5 64 97 100 99 95 92 43 5 24 32 65 74 5 5 5 5 5 0 2 0 0 3 5 5 8 7 44 100 99
5 6 44 34 31 67 76 80 76 67 42 5 5 50 94 100 94 99 99 10 16 78 87 80 52 5 5 5 0 5 5 5 0 2 5 55 5 32 100 84 97 5 5
28 56 46 37 22 46 50 14 5 15 5 5 76 99 100 99 100 36 5 76 92 99 100 22 5 5 5 5 5 5 5 5 5 5 98 59 92 99 100 100 85 63 4
31 28 5 5 14 9 5 6 41 20 94 100 88 100 100 82 5 47 100 100 100 88 5 58 5 5 5 5 5 5 5 5 6 99 58 44 92 100 100 100 97 67 55
5 5 5 5 5 5 5 11 60 87 100 100 100 81 5 8 81 100 100 94 42 18 26 11 5 5 5 5 5 5 50 10 96 13 49 5 58 100 100 100 75 62 100
60 43 14 5 5 5 36 60 88 79 84 99 12 5 42 98 100 100 69 5 10 68 61 77 61 80 58 5 4 42 99 100 94 76 8 40 100 100 83 73 100 100 97
79 9 5 5 5 20 100 87 22 58 29 5 19 98 100 100 94 55 13 60 56 56 29 5 54 31 5 5 4 37 100 100 100 69 100 100 78 7 5 70 100 94 66
14 9 32 5 5 9 24 6 41 8 5 54 85 78 81 63 17 46 68 86 83 28 14 58 8 5 3 5 7 84 81 91 84 82 76 5 5 5 28 73 23 79 100
93 33 14 48 35 5 5 5 5 5 61 66 59 49 11 86 83 72 80 48 47 42 17 5 5 5 5 20 100 100 100 100 100 100 11 5 30 71 74 83 92 100 100
62 70 38 5 5 5 5 5 5 15 10 7 57 71 49 53 75 78 94 62 57 28 5 5 5 5 5 62 95 100 100 100 100 72 28 97 100 100 100 100 100 100 100

GFSMW_prec_cloud_042.txt.gz
Cloud_Cover
0 0 0 0 0 0 0 0 0 0 0 0 1 5 64 29 100 100 100 100 100 100 100 100 100 37 100 82 7 5 5 0 0 0 0 0 0 0 0 0 0 0 0
0 0 0 0 0 0 0 0 0 0 0 0 0 4 7 100 100 100 100 100 100 100 100 100 100 100 90 5 5 5 1 0 0 0 0 0 0 0 0 0 0 0 0
0 0 0 0 0 0 0 0 0 0 0 0 0 0 34 96 100 100 100 100 100 100 100 100 100 87 50 36 23 5 0 0 0 0 0 0 0 3 0 0 0 0 0
0 0 0 0 0 0 0 0 0 0 0 0 0 0 8 28 100 100 100 100 100 100 100 99 63 21 33 45 5 0 0 0 0 0 0 0 0 0 0 0 4 0 0
0 0 0 0 0 0 0 0 0 0 0 0 5 16 96 99 100 100 100 100 100 98 78 58 57 50 50 8 1 0 0 0 0 0 0 0 0 0 0 0 0 0 5
0 0 0 0 0 0 0 0 0 0 0 1 5 61 97 100 100 100 100 91 23 69 25 86 61 49 6 4 0 0 0 0 0 0 0 0 0 0 0 0 0 0 0
1 0 0 0 0 0 0 0 0 0 0 0 65 100 100 100 100 72 28 6 66 63 86 88 40 6 5 0 0 0 0 0 0 0 3 0 0 0 0 0 0 0 0
1 2 3 0 0 0 0 0 0 0 5 87 100 100 100 72 60 28 5 60 80 98 74 16 5 0 0 0 0 0 0 0 5 2 0 5 0 0 0 0 0 3 0
0 2 0 0 0 0 0 0 0 2 29 100 98 96 38 11 12 5 32 71 76 77 24 5 5 5 5 1 0 0 5 5 1 5 5 5 5 1 0 0 3 3 5
0 0 0 0 0 0 0 5 3 3 18 43 74 88 5 5 44 95 79 84 72 56 5 5 5 5 5 0 4 5 5 5 5 5 5 5 5 0 0 4 3 5 5
5 2 3 0 0 0 5 5 28 38 22 9 66 33 5 48 26 95 71 54 42 7 5 5 5 5 5 5 5 5 5 5 5 5 5 4 0 0 0 5 0 5 5
5 17 5 0 0 4 64 13 71 98 22 12 43 33 23 65 19 66 54 11 5 5 5 18 5 5 5 5 5 5 5 5 5 5 5 4 0 0 0 0 5 5 5
3 5 0 0 0 25 67 37 43 15 5 26 98 100 27 50 35 17 5 5 5 5 11 73 5 5 5 5 5 4 5 5 5 5 0 0 0 0 3 5 5 12 90
30 57 8 0 11 37 56 5 3 5 37 100 100 100 28 8 7 17 30 5 20 53 73 38 38 5 5 5 4 5 5 5 5 5 5 4 0 1 8 38 53 99 13
100 93 89 99 100 87 10 5 5 93 100 100 99 44 6 5 14 48 16 58 48 60 80 93 5 5 5 5 5 5 5 5 5 5 4 0 2 5 57 100 98 97 20
54 97 100 100 100 82 5 6 100 100 100 100 62 41 26 60 51 27 94 74 77 80 80 56 4 5 5 5 5 5 5 5 23 5 5 0 5 5 45 78 100 100 100
100 100 100 100 46 12 92 100 100 100 100 88 82 89 83 68 73 99 78 94 86 97 9 5 5 5 5 5 5 5 11 89 6 5 4 5 5 5 5 8 90 100 93
100 100 100 65 31 100 100 100 100 99 84 57 63 64 46 45 98 98 96 100 89 7 5 5 5 5 5 5 9 59 84 33 5 4 5 5 5 5 100 98 100 9 5
100 88 41 71 100 100 100 100 100 80 78 50 36 20 35 93 100 100 95 35 6 5 5 5 5 5 20 74 92 61 49 5 5 5 70 37 60 96 100 100 79 5 5
100 93 94 99 98 99 86 70 66 14 5 6 28 91 100 100 91 78 25 53 5 16 65 58 19 10 60 71 10 5 5 5 5 80 10 28 100 100 100 100 100 36 9
100 96 75 100 83 75 96 78 48 38 72 90 97 100 100 96 16 66 53 60 17 5 5 26 62 61 5 5 5 5 17 17 99 15 67 32 93 100 100 100 66 76 100
99 99 100 100 100 66 64 86 92 85 97 99 100 100 87 5 9 50 16 5 5 5 5 9 54 6 5 5 5 19 79 94 95 95 20 82 100 100 91 40 99 100 96
100 100 90 24 37 59 100 100 100 100 32 100 100 63 17 67 62 6 5 5 5 5 5 15 5 5 5 5 3 5 62 92 100 93 99 98 74 7 5 81 98 92 40
100 100 88 59 14 62 100 100 100 55 98 92 18 85 55 40 82 94 77 55 10 5 5 5 5 5 5 5 6 52 28 84 76 77 58 5 5 5 10 5 5 18 95
100 100 99 92 50 44 78 88 38 99 38 10 22 11 54 44 24 67 78 95 24 5 7 5 5 5 5 8 94 100 100 100 100 100 5 5 15 41 41 33 71 75 100
100 100 100 88 91 91 79 82 14 10 5 5 5 5 5 5 5 53 87 20 5 5 5 0 5 5 5 25 93 100 100 100 98 28 13 83 100 100 100 100 100 100 100

GFSMW_prec_cloud_045.txt.gz
Cloud_Cover
0 0 0 0 0 0 0 0 0 2 13 22 27 40 57 99 100 100 31 98 91 100 100 100 100 100 100 100 100 100 100 97 82 6 5 5 5 2 0 0 0 0 0
0 0 0 0 0 0 0 0 0 0 0 0 0 3 44 97 100 94 79 50 100 100 100 100 100 100 100 100 100 100 100 92 36 62 5 5 5 0 0 0 0 0 0
0 0 0 0 0 0 0 0 0 0 0 1 4 5 52 97 100 99 98 100 100 99 100 100 100 100 100 100 100 100 69 74 39 6 5 11 1 0 0 0 0 0 0
0 0 0 0 0 0 0 0 0 0 0 1 5 0 2 73 100 99 100 100 100 99 100 100 100 100 100 100 93 76 11 6 28 21 5 2 0 0 0 0 0 0 0
0 0 0 0 0 0 0 0 0 0 0 0 5 0 27 62 65 100 100 100 84 93 100 100 100 100 94 29 57 5 5 5 6 5 4 0 0 0 0 0 0 2 5
0 0 0 0 0 0 0 0 0 0 0 5 0 13 55 90 87 100 100 100 100 100 100 100 100 100 20 20 34 53 5 5 5 5 0 0 0 0 0 0 0 0 0
0 0 0 0 0 0 0 0 0 0 0 5 3 45 98 100 100 100 100 100 100 100 100 91 100 16 65 42 24 7 5 5 5 0 0 3 0 0 0 0 0 0 0
0 0 0 0 0 1 0 0 0 0 0 5 4 62 100 99 100 100 100 100 100 100 77 93 53 35 16 5 5 5 5 5 3 5 5 0 0 0 0 0 0 1 0
0 0 0 0 0 4 2 0 0 0 0 1 5 24 100 100 100 100 100 100 100 84 60 56 46 36 6 8 5 5 5 5 4 5 5 3 2 0 0 0 0 5 3
2 0 0 0 0 4 1 0 0 0 0 16 51 100 100 100 83 90 96 98 56 5 14 29 11 6 27 5 5 5 5 5 5 5 5 0 0 0 0 0 0 5 5
0 0 2 1 0 0 3 0 0 0 52 100 100 100 100 43 58 93 99 23 5 11 50 6 11 64 30 5 5 5 5 5 5 5 0 0 0 0 0 0 0 5 5
0 19 7 2 1 0 0 0 4 19 100 100 100 93 6 14 100 100 97 7 30 6 8 36 65 50 5 5 5 5 5 5 2 0 1 5 3 5 0 0 5 5 12
31 100 18 47 15 13 28 44 78 98 100 100 93 5 5 92 100 100 47 17 51 51 68 69 21 5 51 5 23 28 5 0 1 1 4 5 5 1 0 7 68 81 96
100 100 43 52 24 40 77 100 100 100 100 100 46 5 46 100 100 100 64 64 70 91 61 47 18 61 56 34 23 2 5 5 5 5 5 5 1 5 18 97 100 100 95
100 100 99 90 94 97 100 100 100 100 100 100 47 48 62 100 100 78 92 91 100 56 54 40 73 70 82 12 1 5 5 5 5 5 5 5 5 5 86 100 100 99 90
100 100 100 100 100 100 100 100 100 100 100 100 68 64 96 99 83 90 100 100 50 59 79 81 70 38 5 5 5 5 5 5 5 5 5 3 5 5 94 73 100 100 100
100 100 100 93 63 58 98 98 100 100 100 100 72 53 67 91 99 100 97 59 59 94 77 9 5 5 5 5 5 5 5 5 5 5 2 5 5 5 5 19 96 100 89
95 100 100 100 100 97 100 100 100 100 100 75 58 86 100 100 100 81 96 98 78 44 5 4 5 5 5 5 5 5 5 5 5 0 5 5 5 57 100 94 98 10 59
78 99 100 100 100 100 100 100 100 100 97 96 100 100 100 100 84 99 100 81 8 3 5 5 5 5 5 13 39 6 5 5 5 5 5 5 98 100 100 100 60 99 64
100 100 100 100 100 100 100 100 100 100 100 100 100 100 77 75 100 100 72 5 5 5 5 13 5 51 26 46 56 12 5 81 21 84 67 93 100 100 100 100 100 93 7
100 100 100 100 100 100 100 100 100 100 100 100 75 74 98 100 100 16 5 5 5 75 71 16 5 5 39 7 5 5 56 82 81 21 71 58 93 100 100 100 94 90 100
100 100 100 100 100 100 100 100 100 100 100 96 100 100 100 100 17 5 5 5 12 6 5 5 5 5 5 5 5 18 71 91 88 97 59 88 100 95 76 41 96 100 99
100 100 100 100 100 100 100 100 100 100 100 100 100 100 100 9 5 5 5 5 5 5 5 5 5 5 5 5 1 5 63 82 100 72 98 76 54 5 5 32 94 98 80
100 100 100 100 100 100 100 100 100 100 100 100 100 85 9 5 5 5 5 5 5 5 5 5 5 5 5 5 6 37 5 77 88 50 51 5 5 5 5 12 7 79 99
100 100 100 100 100 100 100 100 100 100 100 100 66 44 6 5 5 5 5 3 5 5 5 5 5 5 5 7 75 100 98 100 100 100 13 5 6 18 29 69 64 98 97
100 100 100 100 100 100 100 100 100 100 100 100 60 5 5 5 5 3 4 5 5 5 5 5 4 4 5 52 95 100 100 100 100 82 6 47 99 100 98 100 100 100 100

GFSMW_prec_cloud_048.txt.gz
Cloud_Cover
0 0 0 0 0 0 0 0 0 0 0 0 0 23 97 74 41 38 49 69 87 100 100 100 100 35 86 72 99 100 100 100 100 100 100 100 100 100 82 68 84 6 5
0 0 0 0 0 0 0 0 0 0 0 0 0 1 61 69 95 99 100 100 100 100 100 100 96 79 83 94 100 100 100 100 100 100 100 100 91 71 66 33 7 5 5
0 0 0 0 0 0 0 0 0 0 0 0 2 9 35 100 100 100 100 100 97 100 100 100 98 72 100 100 100 100 100 100 100 100 100 96 54 23 34 5 5 5 3
0 0 0 0 0 0 0 0 0 0 0 0 0 0 0 82 100 100 100 83 100 100 100 100 100 100 97 100 94 77 82 84 100 95 93 87 78 72 86 8 5 3 0
0 0 0 0 0 0 0 0 0 0 0 0 0 0 0 96 99 100 100 100 100 100 100 100 100 100 100 99 100 93 91 82 70 82 86 76 37 36 5 70 5 1 0
0 0 0 0 0 0 0 0 0 0 0 0 0 0 1 49 100 100 100 100 100 100 100 100 100 100 97 65 91 74 70 76 96 75 56 21 47 5 5 5 2 3 3
0 0 0 0 0 0 0 0 0 0 0 0 0 0 7 86 100 100 100 100 100 100 100 100 100 100 100 100 98 89 6 58 64 45 5 5 5 5 5 4 0 2 0
0 0 0 0 0 0 0 0 0 0 0 0 0 4 60 100 100 99 100 100 100 84 22 11 92 100 100 100 74 20 24 52 48 22 5 5 5 5 5 5 0 0 0
0 0 0 0 0 0 0 0 0 0 0 0 0 11 97 100 100 100 100 100 97 100 96 85 88 100 100 87 19 5 36 19 6 5 5 5 5 5 5 0 0 0 0
1 0 0 0 0 0 0 0 0 0 0 1 0 2 47 100 100 97 100 100 100 100 100 100 99 98 88 18 5 5 12 5 5 5 5 5 5 5 0 0 0 0 0
27 21 4 0 0 0 0 0 5 0 3 5 5 18 88 100 100 100 100 76 99 100 91 52 35 5 5 19 56 5 5 6 16 5 5 5 3 0 0 0 0 0 0
30 0 0 5 3 21 14 4 5 2 5 5 7 63 46 100 100 100 95 84 66 26 57 58 15 5 71 92 22 5 54 57 7 6 5 2 0 0 0 0 0 5 5
88 7 2 8 5 30 1 5 2 5 5 11 5 46 100 100 100 100 90 70 40 54 79 72 29 79 98 41 44 68 34 17 5 5 1 0 0 0 0 5 13 85 96
100 100 14 26 1 29 52 10 4 44 97 50 76 100 100 100 100 100 100 100 47 89 99 51 85 97 29 27 34 23 12 5 5 5 0 0 1 1 5 18 72 100 99
99 75 72 31 20 100 100 62 97 100 100 100 100 100 85 100 100 100 98 85 100 82 52 99 89 57 47 68 24 5 5 5 5 5 5 5 5 5 65 98 100 100 98
100 100 96 100 100 100 100 100 100 100 100 100 90 94 100 100 100 98 100 98 74 79 100 68 75 97 86 12 5 5 5 5 5 5 5 5 5 19 87 100 100 100 99
100 100 100 100 100 100 100 100 100 100 100 100 100 100 100 100 100 100 100 100 95 89 80 84 91 68 5 5 5 5 5 5 5 5 5 5 22 85 100 100 100 100 94
100 100 100 100 100 100 100 100 100 100 100 100 100 98 99 100 100 100 100 100 100 91 89 92 29 5 5 5 5 5 5 5 5 5 5 64 92 100 100 100 72 88 98
100 100 100 100 100 100 100 100 100 100 100 100 100 100 100 100 100 100 100 100 79 85 68 5 5 5 5 5 5 5 5 5 5 5 55 93 100 100 100 98 83 100 99
100 100 100 99 99 97 100 100 100 100 100 100 100 100 100 100 100 100 100 99 93 5 5 5 5 5 5 5 5 5 5 5 5 6 56 78 100 100 100 99 100 99 78
100 100 100 100 100 100 100 100 100 100 100 100 100 100 100 100 100 100 96 28 6 5 5 5 5 5 3 1 3 5 5 5 54 77 74 91 90 100 100 100 100 100 100
100 100 100 100 100 100 100 100 100 100 100 100 100 100 100 100 82 32 32 35 5 5 5 5 5 0 0 0 5 5 67 84 77 92 100 83 100 60 64 33 63 99 100
100 100 100 100 100 100 100 100 100 100 100 100 100 100 87 38 66 74 51 13 5 5 5 2 0 5 4 5 5 5 56 53 100 100 100 99 41 5 5 30 98 97 99
100 100 100 100 100 100 100 100 100 100 100 100 100 97 62 100 93 73 9 5 5 1 0 2 3 5 5 5 5 10 81 98 100 100 64 44 21 5 10 15 60 96 100
100 100 100 100 100 100 100 100 100 100 100 100 99 100 100 99 52 7 5 5 0 0 0 1 5 5 5 5 23 78 96 99 100 98 39 5 5 25 30 92 97 98 99
100 100 100 100 100 100 100 100 100 100 100 100 100 100 99 29 5 5 1 0 0 4 2 5 5 5 5 24 81 100 100 99 70 39 5 6 81 93 94 98 98 95 99

GFSMW_prec_cloud_051.txt.gz
Cloud_Cover
0 0 0 0 0 0 0 0 0 0 0 0 0 0 18 100 100 100 100 93 4 44 5 9 75 100 100 86 59 56 98 98 80 64 53 99 100 100 100 99 100 100 100
0 0 0 0 0 0 0 0 0 0 0 0 0 0 77 81 89 87 100 71 8 1 92 100 100 100 100 100 93 81 57 88 98 86 85 85 99 88 58 56 68 100 67
5 0 0 0 0 0 0 0 0 0 0 0 0 17 12 15 76 100 100 100 97 95 100 100 100 100 100 100 100 100 98 96 74 74 79 74 68 63 44 5 32 34 22
12 5 0 0 0 0 0 0 0 0 0 0 0 0 0 4 22 91 100 100 100 100 99 100 100 100 100 100 100 100 100 100 94 92 44 74 37 5 72 70 5 5 5
25 80 7 1 0 0 0 0 0 0 0 0 0 0 0 0 58 100 100 100 100 100 100 100 100 100 100 100 100 100 100 100 100 67 89 100 86 10 8 45 6 6 5
5 2 1 11 9 4 0 0 0 0 0 0 0 0 0 0 72 100 100 100 100 100 100 100 100 100 100 100 100 100 100 100 97 76 100 82 26 13 5 5 5 12 9
25 5 5 5 76 23 5 5 0 0 0 0 0 3 0 0 19 76 98 100 100 100 100 100 100 100 100 100 100 100 97 68 77 99 73 8 5 5 5 5 5 5 5
0 2 0 3 5 2 0 0 0 0 0 0 0 21 0 0 37 54 98 100 100 100 100 100 100 100 100 100 97 71 80 96 96 100 52 5 3 5 1 0 0 4 5
0 0 0 0 0 0 0 0 0 0 0 1 39 0 0 2 60 100 100 100 100 100 100 94 100 100 100 95 63 86 100 94 69 36 5 5 5 5 2 3 4 0 3
11 14 2 3 3 0 0 0 0 0 1 23 1 0 9 38 100 100 100 100 100 100 100 96 86 100 97 94 98 76 48 77 41 5 5 5 5 5 5 5 5 5 0
5 5 4 13 7 10 0 1 32 3 2 0 0 4 45 100 100 100 100 100 99 100 98 100 100 100 91 63 75 63 70 68 7 5 5 5 5 5 5 5 5 5 0
78 5 34 97 92 6 11 78 62 21 5 2 1 17 98 100 100 100 100 97 97 100 100 100 100 100 91 66 50 85 53 5 5 5 5 5 5 5 5 2 0 0 1
98 92 77 100 97 85 98 100 0 5 92 100 22 78 100 100 100 87 100 96 100 100 100 100 100 100 74 69 85 30 5 5 5 5 5 5 5 5 5 0 0 5 5
98 96 100 98 99 100 100 91 5 100 100 100 85 100 100 100 100 100 100 99 100 100 100 100 99 80 64 76 68 5 14 5 5 5 5 5 4 0 0 4 5 5 6
100 100 100 100 100 100 100 56 42 100 100 100 100 100 100 100 100 100 97 100 99 100 100 100 100 86 96 77 55 33 5 5 5 5 5 1 0 0 6 65 12 75 84
100 100 100 100 100 97 22 24 100 100 100 100 100 99 100 100 100 100 98 70 100 100 100 100 94 100 74 76 67 33 16 5 5 5 5 0 0 3 39 80 98 100 100
100 100 98 11 39 80 68 99 100 100 100 100 100 100 100 95 98 100 96 100 100 100 100 100 97 77 88 79 68 16 5 5 4 0 0 1 5 5 29 33 96 89 86
100 100 100 100 100 100 100 100 100 100 100 100 100 100 87 97 100 100 100 100 100 100 100 100 98 97 46 23 5 5 5 0 0 0 1 5 5 8 84 75 74 85 59
100 100 100 100 100 100 100 100 100 100 100 100 99 99 90 100 100 100 100 100 100 100 100 100 100 20 22 5 5 5 5 0 4 1 0 5 33 80 100 100 82 47 5
100 100 100 100 100 100 100 100 100 100 100 100 100 100 100 100 100 100 100 100 100 100 100 97 24 7 6 70 10 5 5 2 2 5 5 35 72 98 100 100 74 30 5
100 100 100 100 100 100 100 100 100 100 93 95 100 100 100 100 100 100 100 100 100 100 80 24 73 99 47 5 5 5 5 5 5 5 5 5 83 100 100 97 51 84 100
100 100 100 100 100 99 94 86 98 100 100 100 100 100 100 100 100 100 100 100 97 44 90 100 44 13 9 5 3 3 46 30 48 5 14 10 98 99 67 56 63 99 100
100 100 100 100 100 100 100 100 100 100 100 100 100 100 100 100 100 100 100 65 91 100 88 22 8 14 5 0 0 4 6 54 13 6 62 70 44 64 6 17 95 100 70
100 100 100 100 100 100 100 100 100 100 100 100 100 100 100 100 100 100 100 100 97 38 19 12 6 2 0 0 5 5 5 5 23 31 8 5 22 5 5 5 5 5 46
100 100 100 100 100 100 100 100 100 100 100 100 100 100 100 100 100 100 98 63 44 22 5 5 1 4 5 5 5 32 27 77 87 82 5 5 2 4 5 5 5 5 63
100 100 100 100 100 100 100 100 100 100 100 100 100 100 100 100 98 76 86 25 17 5 5 5 5 5 5 5 50 72 88 80 82 17 5 5 5 5 5 51 73 91 100

GFSMW_prec_cloud_054.txt.gz
Cloud_Cover
5 5 5 0 0 0 0 0 0 0 0 0 0 0 0 30 100 100 100 100 66 1 5 0 0 0 59 41 84 53 93 100 98 32 13 18 88 86 19 100 88 100 49
1 5 5 5 4 0 0 0 0 0 0 0 0 0 7 78 56 6 89 100 95 5 0 1 1 2 11 100 100 100 93 100 45 63 43 20 90 98 81 86 30 9 15
5 4 5 5 5 4 4 0 0 0 0 0 0 0 0 50 2 3 23 36 97 98 0 0 9 93 99 100 100 100 100 100 100 96 68 54 45 100 100 100 81 65 65
5 5 4 1 5 5 5 5 5 1 0 0 0 0 0 27 20 19 32 66 100 100 96 94 97 98 100 100 100 100 100 99 100 100 100 100 20 100 100 100 87 100 80
5 5 5 5 5 5 7 5 37 32 5 0 0 0 0 2 29 77 13 100 100 100 100 100 100 100 99 100 100 100 100 100 80 61 72 99 100 96 94 99 66 6 15
1 0 0 0 0 19 70 76 8 40 81 5 4 4 2 0 2 53 98 100 100 100 100 100 100 100 52 97 100 100 100 97 54 100 100 100 100 94 5 62 99 67 14
10 37 5 4 0 0 1 5 53 64 63 93 20 21 5 0 0 1 57 54 99 100 100 100 100 100 100 100 100 100 96 26 82 100 100 100 53 96 24 5 5 5 5
0 0 2 0 0 1 4 0 0 8 12 10 18 5 4 5 1 0 33 27 99 99 100 100 100 100 100 100 68 100 59 25 94 100 100 61 44 5 5 5 5 3 3
0 0 0 0 0 0 0 0 0 4 4 5 6 32 63 7 3 27 78 100 100 100 100 100 100 98 55 92 26 96 100 100 100 100 68 12 12 5 5 5 5 2 1
0 0 0 0 0 0 0 0 0 0 0 0 60 71 5 5 12 71 97 100 100 100 100 100 100 100 100 100 93 85 81 100 100 65 38 5 7 5 5 5 5 0 0
5 0 0 0 2 2 4 0 0 0 92 97 100 68 7 0 46 100 100 99 100 100 100 97 100 99 100 100 100 100 98 91 95 59 38 5 5 5 5 4 0 0 0
32 2 5 28 40 10 17 5 0 3 100 100 100 51 5 43 100 100 100 100 100 98 100 100 100 100 100 100 100 100 100 100 58 60 6 5 5 5 2 5 0 0 0
35 90 5 42 59 84 100 100 26 16 100 100 36 6 60 100 100 100 100 100 100 100 100 100 98 100 100 100 100 100 98 82 74 10 37 5 4 5 5 0 0 0 1
100 18 5 55 62 64 55 100 58 100 77 83 70 84 100 100 100 100 100 100 100 94 100 98 100 100 100 100 100 100 99 70 8 6 5 5 5 5 5 2 4 5 5
96 69 53 100 59 100 100 100 100 100 0 39 100 100 100 100 100 100 100 79 100 100 100 100 100 100 100 100 100 100 93 44 44 23 5 5 5 1 4 5 5 50 62
100 100 100 100 100 100 100 100 100 59 5 100 100 100 100 100 100 100 100 100 99 100 100 92 100 100 100 100 100 100 100 98 99 34 5 4 0 0 3 5 68 83 99
100 100 100 100 100 100 100 100 99 16 95 100 100 100 100 100 100 100 100 100 100 100 95 100 100 100 100 100 100 100 100 93 91 10 5 5 0 0 5 5 17 12 30
100 100 100 100 100 100 100 99 100 96 100 100 100 100 100 100 100 100 100 100 100 97 100 100 100 100 100 100 100 100 100 98 7 5 5 0 0 5 5 38 95 26 5
100 100 100 32 42 100 100 100 100 100 100 100 100 100 100 100 100 100 100 100 100 100 100 100 100 100 100 100 100 100 86 75 6 5 1 0 4 5 94 100 71 5 5
100 100 100 100 100 100 100 100 100 100 100 100 100 100 100 100 100 100 100 100 100 100 100 100 100 100 100 100 100 96 17 30 5 5 4 5 11 78 99 100 96 72 5
100 100 100 100 100 100 100 100 100 100 100 100 100 100 100 100 100 100 100 100 100 100 100 100 100 100 100 100 100 33 10 5 10 5 5 5 33 100 100 100 75 7 100
100 100 100 100 100 100 100 100 100 100 100 100 100 100 100 100 100 100 100 100 100 100 100 100 100 100 100 97 96 28 5 5 22 5 5 12 82 88 80 50 22 98 100
100 100 100 100 100 100 100 100 100 100 100 100 100 100 100 100 100 100 100 100 100 100 100 100 100 100 71 69 34 5 2 5 5 5 57 89 35 7 4 2 68 71 5
100 100 100 100 100 100 100 100 100 100 100 100 100 100 100 100 100 100 100 100 100 100 100 100 100 66 43 6 2 3 5 5 5 10 29 5 5 4 3 4 5 5 5
100 100 100 100 100 100 100 100 100 100 100 100 100 100 100 100 100 100 100 100 100 100 100 97 69 36 5 5 14 58 76 91 100 95 5 0 2 2 5 5 5 5 9
97 100 100 100 100 100 100 100 100 100 100 100 100 100 100 100 100 100 100 100 100 100 90 36 6 5 4 5 25 75 88 93 78 14 3 5 5 5 5 5 5 23 96

GFSMW_prec_cloud_057.txt.gz
Cloud_Cover
6 5 0 0 0 0 1 1 0 0 0 0 0 0 0 0 22 100 15 29 0 0 0 0 0 2 0 0 0 0 5 82 74 74 50 46 100 31 5 5 92 62 54
5 5 5 4 2 5 0 3 4 0 0 0 3 2 8 27 38 85 100 88 0 0 0 0 0 3 0 4 3 26 15 19 99 96 100 100 100 92 87 99 76 53 5
5 5 4 5 5 5 5 5 2 0 0 0 0 10 3 6 6 10 75 72 2 0 0 5 0 0 0 7 48 66 100 90 100 100 100 74 95 82 93 86 100 68 80
5 2 0 5 9 23 58 62 5 5 2 2 0 0 0 8 59 2 1 21 28 7 20 92 40 14 68 100 75 96 100 98 100 100 100 100 100 100 83 100 100 100 96
5 5 0 5 5 9 21 5 5 5 5 0 5 3 0 25 37 93 66 52 15 66 63 100 100 100 100 100 99 76 99 100 100 100 100 100 90 100 100 100 100 100 90
5 5 4 5 5 5 5 5 2 0 0 0 2 9 14 24 4 28 13 31 64 82 82 98 100 100 100 100 100 92 100 44 95 87 100 100 100 100 100 100 100 100 100
5 5 5 5 3 0 0 0 0 0 0 0 0 2 85 5 0 5 6 42 88 56 5 100 100 100 100 100 100 42 71 96 76 100 100 100 100 100 95 100 100 100 100
72 95 25 7 33 92 86 1 0 0 0 0 0 0 0 4 5 5 68 100 86 40 94 99 80 99 100 100 100 68 93 100 55 90 100 100 100 100 94 53 81 100 88
5 5 5 5 5 5 5 5 3 0 0 0 0 0 0 0 5 67 96 100 100 100 65 87 99 94 100 100 80 100 97 86 74 92 95 98 100 72 71 44 5 5 25
6 2 2 0 0 0 0 0 0 0 0 0 0 0 0 2 1 1 15 91 100 97 94 98 99 100 100 100 100 63 100 100 100 55 100 100 96 36 8 5 5 5 5
5 5 5 0 3 4 1 2 2 0 0 0 0 0 0 2 5 5 5 29 100 100 100 100 99 100 50 70 100 69 93 100 100 100 100 100 100 89 5 5 5 5 5
5 5 0 0 0 1 5 5 5 3 4 2 0 0 3 0 5 3 50 100 100 100 100 100 100 100 100 90 100 99 100 100 100 100 100 100 100 74 74 6 6 12 5
5 4 0 0 0 0 2 5 95 5 5 97 92 8 100 100 98 26 83 100 100 100 100 100 100 100 100 100 100 100 90 100 100 100 100 100 100 100 60 7 8 5 5
31 80 50 23 0 0 0 16 37 89 96 97 100 97 100 100 99 56 100 100 100 100 100 100 100 100 100 100 100 100 100 100 100 98 99 100 100 100 55 55 34 7 5
100 100 100 100 81 58 73 55 88 99 76 100 100 100 100 100 100 100 100 100 100 100 100 100 100 100 100 100 75 90 100 100 100 92 94 100 98 25 57 33 6 5 5
100 100 100 100 100 61 34 100 100 100 100 100 100 100 100 96 100 100 100 100 100 100 100 100 100 100 100 97 79 100 100 100 100 90 99 100 61 100 7 5 5 44 95
100 100 100 100 100 100 100 100 100 100 100 100 100 100 100 100 100 100 100 100 100 100 100 100 100 100 76 98 100 100 100 100 98 95 100 100 90 5 5 5 5 70 50
100 100 100 100 100 100 100 100 100 100 100 100 100 100 100 100 100 100 100 100 100 100 100 100 100 100 98 99 100 100 100 100 100 100 100 86 44 6 5 15 72 92 60
100 100 100 100 100 100 100 100 100 98 100 100 100 100 100 100 100 100 100 100 100 100 100 100 99 100 100 100 100 100 100 100 100 100 88 51 5 5 41 98 98 79 8
100 100 100 100 100 100 100 100 100 100 100 100 100 100 100 100 100 100 100 100 100 100 100 100 100 100 100 100 100 100 100 100 100 100 24 5 5 50 97 100 100 64 5
100 100 100 100 100 100 100 100 100 100 100 100 100 100 100 100 100 100 100 100 100 100 97 100 100 100 100 100 100 100 100 100 91 33 6 5 9 96 98 95 80 34 98
100 100 100 100 100 100 100 100 100 100 100 100 100 100 100 100 100 100 100 100 94 100 100 100 100 100 100 100 100 100 99 58 35 8 5 20 87 90 56 29 9 80 90
100 100 100 100 100 100 100 100 100 100 100 100 100 100 100 100 100 100 100 100 100 100 100 100 100 100 100 100 100 100 54 5 5 5 81 98 86 7 2 1 8 19 5
100 100 100 100 100 100 100 100 100 100 100 100 100 100 100 100 100 100 100 100 100 100 100 100 100 100 100 100 83 29 5 5 5 11 77 9 1 3 5 5 4 5 6
100 100 100 100 100 100 100 100 100 100 100 100 100 100 100 100 100 100 100 100 100 100 100 100 100 100 87 8 17 36 31 76 92 75 5 0 2 5 5 5 5 5 12
100 100 100 100 100 100 100 100 100 100 100 100 100 100 100 100 100 100 100 100 100 100 94 62 26 6 5 5 12 52 69 74 51 4 1 5 5 5 5 5 6 51 90

GFSMW_prec_cloud_060.txt.gz
Cloud_Cover
16 68 13 5 5 5 1 0 0 0 0 2 10 23 17 83 92 66 5 2 0 5 0 0 0 0 0 0 4 0 0 2 76 32 5 32 75 78 100 100 100 90 88
25 10 7 5 4 0 0 0 5 1 1 0 0 2 5 57 96 100 100 100 65 6 5 5 5 3 0 0 0 0 2 60 56 50 6 62 76 99 100 45 68 98 95
80 6 5 4 1 4 0 4 4 5 3 1 27 66 27 76 100 100 100 100 100 100 23 5 1 4 56 50 12 19 33 62 18 95 55 57 98 100 100 100 100 100 100
97 6 5 5 5 4 0 5 5 0 0 5 5 5 9 33 23 55 85 100 100 100 97 82 32 98 100 99 37 90 100 57 5 100 100 84 73 100 100 99 100 100 100
27 5 5 5 5 4 5 5 5 5 1 0 4 5 5 16 36 12 5 13 78 100 100 100 100 100 100 94 98 100 100 42 86 68 100 32 10 5 67 100 100 100 100
7 5 5 5 5 5 5 56 49 56 23 5 0 5 14 35 49 10 3 2 5 59 100 100 100 100 100 98 100 100 100 100 86 55 100 76 8 5 7 86 100 100 100
5 5 5 5 57 100 100 99 91 88 6 5 0 4 5 5 72 100 65 2 4 14 100 100 100 100 100 100 100 100 100 87 100 100 98 98 5 5 5 11 96 100 100
38 5 5 27 100 100 57 30 23 6 5 3 0 0 4 2 2 11 5 0 0 5 73 100 100 100 100 100 98 100 100 100 100 100 99 9 22 5 5 32 8 44 100
82 70 100 100 99 83 16 5 8 4 2 4 5 18 11 1 0 0 0 0 2 4 73 100 100 100 100 100 100 100 100 100 100 100 92 50 38 5 18 5 27 62 66
100 100 100 93 21 13 33 33 43 94 71 30 5 18 15 0 0 0 0 5 6 59 96 100 100 100 100 100 100 100 100 100 100 98 57 8 5 17 40 5 5 5 9
83 31 23 25 17 7 5 5 3 2 2 4 4 1 23 16 1 0 0 5 57 99 100 100 100 100 100 100 100 100 100 100 100 94 5 55 34 5 24 5 5 5 5
100 100 100 86 7 4 1 0 5 3 0 0 0 1 4 33 23 45 50 99 100 100 100 100 100 100 100 100 100 100 100 100 95 79 96 71 33 55 32 5 45 21 6
41 18 11 7 4 2 0 0 0 0 4 4 5 5 2 5 20 41 34 67 97 100 100 100 100 100 100 100 100 100 100 100 100 100 98 5 13 58 56 59 90 32 9
92 82 24 0 0 0 0 0 0 0 2 68 14 64 27 52 57 47 98 100 100 100 100 100 100 100 100 100 100 100 100 100 100 100 15 38 85 77 36 86 100 61 7
100 100 44 3 36 36 12 29 11 5 3 100 18 91 77 83 16 96 100 100 100 100 100 100 100 100 100 100 100 100 100 100 80 57 72 72 70 18 92 100 100 88 86
99 100 100 41 100 95 100 70 27 79 98 96 100 90 100 100 100 85 100 100 100 100 100 100 100 100 100 100 100 100 100 99 87 72 50 13 53 94 100 100 100 20 58
90 100 100 100 100 74 98 96 100 100 100 100 100 100 90 100 100 100 100 100 100 100 100 100 100 100 100 100 100 100 99 94 52 68 88 89 98 100 100 84 41 98 56
100 100 100 100 100 100 88 98 100 100 100 100 100 100 100 100 100 100 100 100 100 100 100 100 100 100 100 100 100 100 100 90 87 99 93 100 100 100 100 99 69 48 94
100 100 100 100 100 100 100 100 100 100 100 100 100 100 100 100 100 100 100 100 100 100 100 100 100 100 100 77 100 98 88 100 99 100 100 97 100 100 98 91 99 72 22
100 100 100 100 97 93 100 100 100 100 100 100 100 100 100 100 100 100 100 100 100 100 100 100 99 100 100 100 99 100 100 100 100 100 100 100 94 96 82 100 88 74 5
100 100 100 100 100 100 100 100 100 100 100 100 100 100 100 100 100 100 100 100 100 100 100 100 100 99 100 100 100 100 100 100 100 100 100 100 91 99 88 76 36 5 84
100 100 100 100 100 100 100 100 100 100 100 100 100 100 100 100 100 100 100 100 100 100 100 92 100 100 100 100 100 99 100 100 100 100 68 31 64 87 16 5 5 68 84
100 100 100 100 100 100 100 100 100 100 100 100 100 100 100 100 100 100 100 100 100 100 100 100 100 100 100 100 100 100 91 28 6 5 62 83 39 6 3 4 9 30 5
100 100 100 100 100 100 100 100 100 100 100 100 100 100 100 100 100 100 100 100 100 100 100 100 100 100 100 100 88 23 5 6 5 21 8 2 0 0 5 3 4 5 6
100 100 100 91 100 100 100 100 100 100 98 100 100 100 100 100 100 100 100 100 100 100 100 100 100 100 94 79 27 32 20 49 52 6 0 0 2 5 5 5 5 5 12
100 100 99 81 100 100 100 100 100 100 100 100 100 100 100 100 100 100 100 100 100 100 100 96 74 59 24 55 58 60 65 70 7 4 3 5 5 5 5 12 44 64 86

GFSMW_prec_cloud_063.txt.gz
Cloud_Cover
100 100 100 100 76 19 5 5 14 52 6 35 99 100 66 2 4 39 80 97 44 59 54 49 14 5 5 5 5 5 3 4 0 2 12 4 5 5 6 8 45 36 71
100 100 98 100 16 5 5 5 5 5 5 5 21 55 30 17 3 36 92 100 85 68 91 77 56 54 5 59 86 44 10 5 20 6 94 6 5 5 5 28 47 73 55
100 100 82 100 100 72 5 5 0 5 5 5 15 91 76 85 55 14 5 43 57 100 100 100 100 100 100 100 64 86 92 54 58 96 59 20 12 64 5 52 6 5 8
100 100 100 100 90 99 96 5 5 1 3 3 11 49 12 37 19 1 7 29 96 56 100 100 100 100 100 98 100 100 100 100 100 100 95 100 89 6 21 5 1 1 5
100 100 100 100 100 100 100 93 12 6 14 5 5 8 5 5 24 27 19 0 16 58 93 99 100 100 100 100 100 100 100 100 100 100 96 68 70 60 5 54 2 0 2
100 100 100 100 100 100 100 54 79 51 5 15 19 10 5 23 66 64 38 22 51 60 63 49 82 99 100 100 100 100 100 100 100 100 15 100 100 86 94 46 7 5 5
100 100 100 100 100 100 100 63 24 21 13 5 5 5 5 33 98 93 11 84 93 6 2 5 5 58 96 100 100 100 100 100 100 100 100 100 100 43 73 68 7 5 5
100 99 100 100 100 100 96 33 12 21 6 87 98 95 99 99 63 47 45 5 22 89 6 5 24 55 86 100 100 100 100 100 100 100 100 100 100 77 64 8 5 5 5
100 100 98 50 21 7 5 10 11 9 100 100 100 99 83 21 10 5 5 5 5 29 11 5 34 98 100 100 100 100 100 100 100 100 100 100 100 100 63 74 6 45 5
100 69 20 10 31 67 74 93 100 100 100 99 68 27 41 27 11 1 2 4 5 6 11 5 12 91 100 100 100 100 100 100 100 100 100 100 100 100 78 84 77 19 5
32 17 12 29 73 45 37 70 65 59 41 23 35 42 47 33 31 17 11 9 5 4 4 23 80 100 100 100 100 100 100 100 100 100 100 100 100 100 95 91 98 85 5
6 92 100 99 76 97 97 93 70 5 5 6 80 85 56 38 50 49 43 47 50 27 31 91 100 100 100 100 100 100 100 100 100 100 100 100 100 77 100 99 100 35 5
76 94 39 6 5 12 23 54 73 23 4 5 21 48 72 79 100 100 99 90 100 100 100 100 100 100 100 100 100 100 100 100 100 100 100 100 100 100 100 100 91 17 44
16 47 96 61 96 72 14 2 0 0 0 7 33 58 100 100 100 100 100 100 100 100 100 100 100 100 100 100 100 100 100 100 100 100 100 100 100 100 100 66 59 66 92
98 64 100 67 2 0 0 0 5 2 7 70 100 100 100 100 100 100 100 100 100 100 100 100 100 100 100 100 100 100 100 100 100 100 100 100 92 100 100 100 98 92 85
5 100 100 69 4 0 39 11 22 8 93 100 100 100 100 100 100 100 100 100 82 100 100 100 100 100 100 100 100 100 100 100 100 96 100 100 100 100 100 81 50 13 98
63 100 100 100 2 10 20 39 38 99 99 100 100 100 100 100 100 100 100 100 100 100 100 100 100 100 100 100 100 100 100 100 100 100 100 100 100 100 95 66 58 98 86
51 100 100 100 94 98 100 99 100 100 100 90 100 100 100 100 100 100 100 100 100 100 100 100 100 100 100 100 100 100 100 99 100 100 100 100 100 54 66 99 100 100 100
41 100 100 100 100 100 100 100 100 100 93 88 100 100 100 100 100 100 100 100 100 100 100 100 100 100 100 100 100 100 100 100 100 100 100 95 100 100 100 100 100 100 52
93 100 100 100 100 100 100 100 95 100 94 100 100 100 100 100 100 100 100 100 100 100 100 100 100 100 100 100 100 100 100 100 100 99 78 100 99 96 92 100 71 5 5
100 100 100 100 100 100 100 100 100 100 100 100 100 100 100 100 100 100 100 100 100 100 100 100 100 100 100 100 97 81 86 100 100 100 98 55 20 87 83 71 19 5 46
100 100 100 96 100 100 100 100 100 100 100 100 100 100 100 100 100 100 100 100 100 100 100 100 100 100 100 99 97 100 100 100 100 83 34 53 60 33 5 5 5 42 80
100 89 97 100 100 100 100 100 100 100 100 100 100 100 100 100 100 100 100 100 100 100 100 100 100 100 100 100 100 100 57 10 5 24 45 10 5 5 1 1 5 30 5
100 100 84 100 100 100 100 100 100 100 100 100 98 100 100 100 100 100 100 100 100 100 100 100 100 100 99 82 41 22 5 20 45 32 5 5 1 0 4 2 1 5 6
100 100 91 100 100 100 100 100 100 100 100 97 100 99 99 96 97 100 100 100 100 100 100 100 98 100 98 91 58 36 70 73 32 6 4 1 4 5 5 5 5 5 12
98 76 99 100 100 100 100 100 100 100 100 97 95 96 100 100 100 100 100 92 91 99 95 100 97 84 94 65 71 72 62 54 5 4 4 5 5 5 15 58 70 74 76

GFSMW_prec_cloud_066.txt.gz
Cloud_Cover
100 100 100 100 100 72 100 91 100 100 58 100 100 100 100 99 42 8 8 5 5 5 5 5 5 18 17 27 91 84 37 5 5 5 5 3 2 5 5 5 5 5 5
100 100 100 100 100 68 84 94 100 100 100 100 72 97 94 100 72 20 44 5 7 5 6 100 99 100 100 100 91 64 75 94 100 100 71 53 14 72 5 5 5 5 33
100 100 100 100 100 100 100 99 100 100 100 100 90 99 98 100 100 86 12 2 5 25 38 15 72 100 100 100 100 100 100 99 71 45 97 100 100 100 20 50 5 5 5
100 100 100 100 100 100 100 100 100 100 100 100 100 93 98 93 99 52 4 0 1 6 11 9 63 65 86 100 100 95 100 100 100 100 100 89 100 100 100 99 90 99 49
88 100 100 100 100 100 100 100 100 100 100 100 89 88 68 27 5 21 33 28 16 5 5 5 5 77 100 100 98 93 100 100 100 100 100 100 97 100 100 100 100 100 100
83 95 100 100 100 100 100 100 100 100 100 90 20 44 35 55 75 93 68 47 57 44 5 8 63 32 63 95 66 64 81 79 90 100 100 100 100 100 100 100 100 100 100
100 100 100 100 100 100 100 100 100 100 100 93 84 57 37 74 97 88 98 98 94 71 25 5 5 19 12 24 90 66 78 65 67 100 100 100 100 100 100 100 100 100 100
100 100 100 100 100 98 91 100 100 100 100 100 100 79 64 64 51 98 91 100 100 100 100 56 65 89 91 99 100 98 100 100 99 70 100 100 100 100 100 100 100 100 100
100 100 100 100 100 100 100 100 100 100 100 100 36 18 22 40 51 24 48 97 98 100 100 99 94 98 100 99 100 100 100 100 100 100 100 100 100 100 100 100 100 100 55
100 100 100 100 100 100 100 100 100 100 87 80 87 97 100 100 99 100 100 100 100 100 100 100 100 100 100 100 100 100 100 100 100 100 100 100 100 100 100 100 100 100 100
94 32 93 98 93 94 96 98 92 43 83 91 43 58 67 94 100 100 71 65 60 47 57 52 90 99 100 100 100 100 100 100 100 100 100 100 100 100 100 100 100 100 100
33 5 5 5 6 6 5 5 5 36 63 14 44 100 98 100 100 100 100 100 100 100 100 100 100 100 100 100 100 100 100 100 100 100 100 100 100 100 100 100 100 100 100
5 5 5 7 5 5 3 0 2 7 8 10 42 100 100 100 100 100 100 100 100 100 100 100 100 100 100 100 100 100 100 100 100 100 100 100 100 100 100 100 100 100 100
5 16 5 4 16 2 2 4 3 2 4 76 100 100 100 100 100 100 100 100 100 100 100 100 100 100 100 100 100 100 100 100 100 100 100 100 100 100 100 100 100 100 100
15 19 41 84 32 5 5 3 0 0 0 38 100 100 100 100 100 100 100 100 100 100 100 100 100 100 100 100 100 100 100 100 100 100 100 100 100 100 100 100 99 100 100
100 100 100 100 81 4 4 0 11 1 64 63 100 100 100 100 100 100 100 100 100 100 100 100 100 100 100 100 100 100 100 100 100 100 100 100 100 100 100 100 100 100 100
100 100 100 100 81 5 21 82 96 93 100 95 100 100 100 96 100 100 100 100 100 100 100 100 98 93 100 100 100 100 100 100 100 100 100 100 100 100 100 100 100 100 100
100 100 100 100 95 26 46 66 100 72 100 100 100 100 100 92 100 100 100 100 100 100 100 100 100 100 100 100 100 100 100 100 100 100 100 100 100 100 94 96 100 100 100
86 76 100 100 65 43 31 73 71 100 100 100 100 98 100 100 100 100 100 100 100 100 100 100 100 100 100 100 100 100 100 100 100 100 100 100 100 100 90 98 100 100 100
14 100 100 100 100 90 95 100 100 100 100 100 100 100 100 100 100 100 100 100 100 100 100 100 100 100 100 100 100 100 100 100 100 100 100 100 100 100 100 100 100 89 47
28 68 100 100 100 100 100 100 100 100 100 100 100 100 100 100 100 100 100 100 100 100 100 100 100 100 100 100 100 100 100 100 100 100 100 100 100 100 100 71 12 6 51
100 97 100 89 100 100 100 100 100 100 100 100 100 100 100 100 100 100 100 100 100 100 100 100 100 100 100 100 100 100 100 100 100 100 100 100 100 78 13 5 5 72 79
64 100 100 98 100 100 100 100 100 100 100 100 100 100 100 100 100 100 100 100 100 100 100 100 100 100 100 100 100 100 100 100 100 100 100 100 72 8 5 5 44 35 5
95 54 100 100 100 100 100 100 100 100 100 100 100 100 90 100 100 100 90 100 100 100 100 100 100 100 100 100 100 100 100 100 100 98 39 5 5 5 5 5 5 5 6
100 90 100 100 99 100 100 100 100 100 100 100 100 78 96 100 100 97 100 100 100 100 99 100 96 100 98 100 100 100 100 91 38 15 30 9 5 5 5 5 5 5 8
40 91 100 100 91 100 100 100 100 100 100 97 73 96 97 83 80 76 98 89 80 71 37 51 48 54 83 99 100 94 76 69 11 5 5 5 5 15 46 73 69 59 58

GFSMW_prec_cloud_069.txt.gz
Cloud_Cover
100 100 100 98 48 98 100 100 100 88 100 100 100 100 100 100 99 92 36 34 5 5 5 5 6 8 5 5 5 5 5 5 5 5 5 22 39 5 2 2 5 5 5
100 100 100 100 100 100 100 100 100 100 100 100 97 100 100 100 100 100 52 6 5 8 5 5 5 12 5 5 11 75 12 16 16 20 5 62 98 99 15 60 67 5 5
100 100 100 100 100 100 100 100 100 100 96 100 100 100 100 100 100 100 100 32 5 5 5 5 5 5 5 5 5 40 70 54 54 28 35 73 60 87 88 79 75 9 6
95 100 100 100 100 100 100 100 100 100 100 100 100 100 100 100 100 99 99 100 68 5 2 5 5 5 5 5 5 5 44 76 100 97 99 85 67 83 100 100 100 100 84
100 100 100 100 100 100 100 100 100 100 100 100 100 100 100 100 100 100 100 100 92 33 5 18 5 5 5 60 81 26 96 100 47 77 100 100 100 100 100 100 100 100 100
81 100 100 100 100 100 100 100 100 100 100 100 100 100 100 100 100 100 100 100 100 93 72 39 17 48 46 8 99 80 93 100 100 100 100 97 98 100 100 100 100 100 100
100 100 100 100 100 100 100 100 70 81 100 100 100 100 100 100 100 100 100 100 100 100 100 70 52 39 37 77 100 94 100 100 100 92 100 100 100 100 100 100 100 100 100
100 100 100 100 49 48 96 100 100 100 100 100 100 100 100 100 100 100 100 100 100 100 100 100 75 60 59 88 96 99 99 100 100 100 100 100 100 100 100 100 100 100 98
100 100 100 100 100 100 100 100 100 100 100 100 100 100 100 100 100 100 100 100 100 100 100 100 100 100 100 100 100 100 100 100 100 100 100 100 100 100 100 100 100 100 100
100 100 100 100 98 100 100 100 100 100 100 100 100 100 100 100 83 86 100 100 100 100 100 100 100 100 100 100 100 100 100 100 100 100 100 100 100 100 100 100 100 100 100
100 100 100 100 100 100 100 87 70 70 90 98 93 74 29 14 97 100 100 100 100 100 100 100 100 100 100 100 100 100 100 100 100 100 100 100 100 100 100 100 100 100 100
100 100 100 100 100 100 100 59 9 6 14 47 5 5 94 100 100 100 100 100 100 100 100 100 100 100 100 100 100 100 100 100 100 100 100 100 100 100 100 100 100 100 100
100 100 98 96 80 77 33 32 72 38 18 100 100 100 100 100 100 100 100 100 100 100 100 100 100 100 100 100 100 100 100 100 100 100 100 100 100 100 100 100 100 100 100
21 9 26 43 49 56 83 73 41 25 4 100 100 100 100 100 100 100 100 100 100 100 100 100 100 100 100 100 100 100 100 100 100 100 100 100 100 100 100 100 100 100 100
9 16 15 57 5 5 3 5 1 0 8 77 100 100 100 100 100 100 100 100 100 100 100 100 100 100 100 100 100 100 100 100 100 100 100 100 100 100 100 100 100 100 100
100 100 100 100 42 5 2 4 5 0 5 100 100 100 100 100 100 100 100 100 100 100 100 100 100 100 100 100 100 100 100 100 100 100 100 100 100 100 100 100 100 100 100
100 100 100 100 92 28 44 95 44 6 87 100 100 100 100 100 100 100 88 96 100 100 100 100 100 100 100 100 100 100 100 100 100 100 100 100 100 100 100 100 100 100 99
42 100 100 100 100 11 5 10 81 100 100 100 100 100 100 100 99 93 87 100 100 100 100 100 100 100 100 100 100 100 100 100 100 100 100 100 100 100 100 100 100 100 100
100 98 100 100 100 5 77 8 26 51 100 100 100 100 100 100 100 100 100 100 100 100 100 100 100 100 100 100 100 100 100 100 100 100 100 100 100 100 100 100 100 100 100
100 74 100 100 100 100 77 56 59 91 100 100 100 100 100 100 100 100 100 100 100 100 100 100 100 100 100 100 100 100 100 100 100 100 100 100 100 100 100 100 100 100 100
100 97 80 100 100 100 84 99 100 100 100 100 100 100 100 100 100 100 100 100 100 100 100 100 100 100 100 100 100 99 100 100 100 95 100 100 100 100 100 100 100 90 58
100 100 100 100 100 100 100 100 100 100 100 100 100 100 100 100 99 95 100 100 100 100 100 100 100 100 100 100 100 100 100 100 100 100 100 100 100 100 100 57 8 66 43
25 94 35 48 93 100 100 100 100 100 100 100 100 100 100 98 100 100 100 100 99 100 100 100 100 100 100 100 100 100 100 100 100 100 100 99 52 23 5 5 23 11 5
5 20 100 100 100 100 100 100 99 95 100 100 100 100 100 81 96 86 81 100 100 100 100 96 64 68 70 51 58 90 100 95 61 7 5 7 34 45 6 5 5 5 9
5 8 65 93 100 100 100 100 100 100 100 100 100 71 71 41 63 43 80 78 64 37 51 35 18 10 10 19 28 44 31 24 5 19 50 22 5 5 5 5 5 5 26
12 5 22 80 100 95 100 100 100 100 100 100 94 79 64 55 49 43 48 43 34 5 21 48 17 5 5 10 37 79 72 27 13 5 5 5 32 62 69 77 57 69 89

GFSMW_prec_cloud_072.txt.gz
Cloud_Cover
100 100 95 72 47 8 60 98 96 100 88 100 100 100 100 100 58 32 12 5 5 5 25 20 12 5 12 14 5 0 2 0 0 5 5 5 5 5 5 5 5 37 5
100 100 100 100 100 98 100 100 100 100 48 48 90 92 92 100 100 100 89 39 28 6 65 80 70 5 5 41 44 5 3 4 5 4 10 9 5 5 35 45 86 62 74
100 100 100 100 100 100 100 100 100 100 96 83 53 48 97 87 75 99 100 88 34 99 100 98 62 5 5 36 48 6 5 5 5 4 4 31 5 10 41 80 100 98 96
100 100 100 100 100 100 100 100 100 100 59 8 13 12 6 74 100 100 76 100 100 100 100 100 100 88 42 38 23 49 47 24 5 5 5 5 5 10 77 89 97 100 100
100 100 100 100 100 100 100 100 100 100 56 56 5 38 74 98 100 100 100 100 100 100 100 100 100 100 100 100 100 50 96 100 72 76 36 28 37 53 64 100 100 100 100
100 100 100 100 100 100 100 100 100 100 100 100 100 100 100 100 100 100 100 100 100 100 100 100 100 100 100 100 100 66 100 100 100 100 100 100 100 94 94 100 100 100 100
90 92 95 98 100 100 100 100 99 80 100 100 100 100 100 100 100 100 100 100 100 100 100 100 100 100 100 100 100 100 100 100 100 100 100 100 100 100 100 100 100 100 100
100 100 100 100 52 93 100 100 100 100 100 100 100 100 100 100 100 100 100 100 100 100 100 100 100 100 100 100 100 100 100 100 100 100 100 100 100 100 100 100 100 100 100
98 97 60 5 12 45 53 100 100 100 100 100 100 100 100 100 100 100 100 100 100 100 100 100 100 100 100 100 100 100 100 100 100 100 100 100 100 100 100 100 100 100 98
100 100 93 86 85 96 89 100 100 100 100 100 100 100 100 100 100 100 100 100 100 100 100 100 100 100 100 100 100 100 100 100 100 100 100 100 100 100 100 100 100 100 100
100 100 100 99 90 93 99 100 100 100 100 100 100 100 100 100 100 94 100 100 100 100 100 100 100 100 100 100 100 100 100 100 100 100 100 100 100 100 100 100 100 100 100
100 100 100 100 100 100 100 100 100 100 100 100 100 68 47 48 74 98 100 100 100 100 100 100 100 100 100 100 100 100 100 100 100 100 100 100 100 100 100 100 100 100 100
100 100 100 100 100 100 100 100 100 72 58 100 100 100 100 100 100 100 100 100 100 100 77 99 100 100 100 100 100 100 100 100 100 100 100 100 100 100 100 100 100 100 100
100 100 100 100 100 100 100 100 100 94 67 100 100 100 100 100 100 100 100 100 100 100 100 100 100 100 100 100 100 100 100 100 100 100 100 100 100 100 100 100 100 100 100
100 100 100 100 100 100 100 62 13 5 5 11 100 100 100 100 100 100 100 100 100 100 100 100 100 100 100 100 100 100 100 100 100 100 100 100 100 100 100 100 100 100 100
62 91 100 100 100 100 70 46 6 5 21 100 100 100 100 100 100 100 100 100 100 100 100 100 100 100 100 100 100 100 100 100 100 100 100 100 100 100 100 100 100 100 100
98 98 92 100 100 87 24 5 5 9 97 100 100 100 100 100 100 100 100 100 100 100 100 100 100 100 100 100 100 100 100 100 100 100 100 100 100 100 100 100 100 99 98
99 35 66 100 100 100 6 5 5 84 100 100 100 100 100 100 100 100 100 100 100 100 100 100 100 100 100 100 100 100 100 100 100 100 100 100 100 100 100 100 100 100 100
61 100 100 100 100 100 19 15 17 26 100 100 100 100 100 100 100 100 100 100 100 100 100 100 100 100 100 100 100 100 100 100 100 100 100 100 100 100 100 100 100 100 100
100 100 79 99 100 100 35 7 56 73 98 100 100 100 100 100 100 100 100 100 100 100 100 100 100 100 100 100 100 100 100 100 100 100 100 100 100 100 100 100 100 100 100
100 100 100 100 100 100 99 38 89 100 100 100 100 100 100 100 100 100 100 100 100 96 100 100 97 92 100 100 100 100 100 100 100 100 100 100 100 100 100 100 100 100 100
87 95 100 100 100 100 100 100 100 100 100 100 100 100 100 100 100 88 81 62 51 41 76 100 100 100 100 100 100 100 100 100 100 100 100 100 100 100 88 75 55 59 52
5 16 39 36 97 100 100 100 100 100 100 100 100 99 83 100 81 31 6 5 5 30 90 92 59 62 85 100 100 100 100 92 57 40 39 18 8 5 5 5 5 5 5
5 5 93 99 100 98 100 100 100 100 97 100 100 84 42 21 5 5 36 23 52 97 96 95 89 83 57 28 7 5 5 5 6 5 5 5 5 0 4 4 5 5 7
14 5 38 79 96 100 100 100 100 100 58 73 59 34 6 6 11 26 30 70 77 71 72 67 51 42 6 8 5 5 5 5 5 5 3 0 0 2 5 5 9 12 59
28 6 5 10 91 97 81 82 79 100 100 65 61 86 22 58 100 96 96 80 67 92 71 68 38 5 5 5 5 5 25 9 5 2 0 1 5 30 47 72 86 90 97

GFSMW_prec_cloud_075.txt.gz
Cloud_Cover
100 100 100 100 96 45 8 5 5 9 51 62 100 100 100 53 18 7 5 5 5 5 5 5 12 7 24 16 99 87 54 28 5 5 5 4 1 4 0 0 0 0 5
100 100 100 100 100 74 9 14 5 5 5 5 82 100 100 100 99 61 49 53 19 6 85 90 13 45 14 5 79 100 59 14 40 58 5 5 5 17 5 5 5 12 5
100 100 100 100 100 98 81 60 12 47 54 37 14 32 50 99 100 100 89 83 22 51 34 96 95 50 15 50 76 99 97 100 98 98 15 100 85 69 46 18 12 12 18
100 100 100 100 100 100 100 100 100 58 52 21 7 73 100 99 100 73 68 100 98 51 50 50 98 100 100 96 50 6 56 93 100 100 100 96 90 85 99 92 60 90 96
100 97 100 100 100 100 100 100 100 92 60 32 11 29 41 100 100 100 5 54 93 100 100 100 100 100 51 88 84 32 63 47 94 100 100 100 100 100 100 100 100 100 100
100 93 100 100 100 100 100 96 100 100 99 93 94 61 100 100 78 90 29 100 100 100 100 100 100 100 100 100 70 99 92 100 100 100 100 100 100 100 100 100 100 100 100
100 100 100 100 100 100 100 100 100 68 59 79 99 96 100 45 47 33 6 5 55 100 100 100 86 98 100 100 100 100 100 100 100 100 100 100 100 100 100 100 100 100 100
100 100 100 100 100 100 100 100 100 100 100 100 100 100 100 100 97 100 100 88 98 100 100 100 100 100 100 100 100 100 100 100 100 100 100 100 100 100 100 100 100 100 100
100 100 100 100 100 100 100 100 100 100 100 100 100 100 100 100 100 100 100 100 100 100 100 100 100 100 100 100 100 100 100 100 100 100 100 100 100 100 100 100 100 100 100
100 100 100 100 100 100 100 100 100 100 100 100 100 100 100 100 100 100 100 100 100 100 100 100 100 100 100 100 100 100 100 100 100 100 100 100 100 100 100 100 100 100 100
100 100 100 100 100 100 87 28 33 51 91 87 78 58 99 100 100 100 100 100 100 100 100 100 100 100 100 100 100 100 100 100 100 100 100 100 100 100 100 100 100 100 100
100 100 100 100 96 54 58 40 51 24 5 30 78 100 100 100 100 100 100 100 100 100 100 100 100 100 100 100 100 100 100 100 100 100 100 100 100 100 100 100 100 100 100
100 100 100 95 96 100 97 99 98 100 100 100 100 100 100 100 100 100 100 100 100 100 100 100 100 99 99 100 100 100 100 100 100 100 100 100 100 100 100 100 100 100 100
100 100 100 100 100 100 100 100 100 100 100 100 100 100 100 100 100 100 100 100 100 100 100 100 100 100 100 100 100 100 100 100 100 100 100 100 100 100 100 100 100 100 92
100 100 100 100 100 100 100 100 100 100 100 99 97 100 100 100 100 100 100 100 100 100 100 100 100 100 100 100 100 100 100 100 100 100 100 100 100 100 100 100 100 100 100
100 100 100 100 100 100 100 100 100 100 100 100 100 100 100 100 100 100 100 100 100 100 100 100 100 100 100 100 99 100 100 100 100 100 100 100 100 100 100 100 100 100 100
100 93 82 99 100 100 100 100 100 100 93 100 100 100 100 100 100 100 100 100 100 100 100 100 100 100 100 100 100 100 100 100 100 100 100 100 100 100 100 100 100 100 100
80 37 6 42 79 100 100 56 86 50 93 100 100 100 100 100 100 100 99 100 100 100 100 100 100 100 100 91 96 94 100 100 100 100 100 100 100 100 100 100 100 100 100
94 100 100 100 100 100 96 83 29 11 88 100 100 100 100 100 100 100 100 100 100 100 100 99 84 88 100 95 96 48 47 71 90 100 100 100 100 100 100 100 100 100 100
100 100 100 100 100 100 68 6 13 28 41 100 100 100 100 100 100 100 100 100 100 100 100 100 99 88 48 29 15 5 72 80 79 99 100 100 100 100 100 100 100 100 100
100 100 99 100 100 100 100 100 65 99 95 100 100 100 100 100 100 100 100 100 100 100 72 32 9 25 13 5 57 90 98 100 100 100 100 100 100 100 100 100 100 86 58
100 71 93 100 100 100 100 100 100 100 100 100 99 98 95 100 99 92 90 86 58 13 2 5 5 5 5 5 5 25 60 36 7 5 6 6 8 5 5 5 5 5 5
15 42 7 53 99 100 100 100 100 100 100 100 100 100 100 100 100 100 60 6 5 5 5 5 5 5 5 5 5 5 13 5 5 5 5 5 5 5 5 5 5 5 5
41 93 58 57 84 100 100 100 100 100 100 100 100 100 100 64 14 5 5 5 5 5 5 5 5 5 5 10 56 72 5 5 5 5 5 5 5 0 5 5 5 5 5
62 56 30 29 71 100 100 100 100 100 100 100 81 81 14 5 5 2 5 5 30 6 5 5 9 14 34 56 47 9 5 5 5 5 5 5 0 1 5 5 5 5 5
40 54 46 52 89 100 99 100 100 100 94 57 21 65 7 9 9 22 7 61 83 51 14 37 58 67 69 44 9 6 5 5 5 5 4 0 1 5 18 36 64 87 99

GFSMW_prec_cloud_078.txt.gz
Cloud_Cover
100 100 100 100 96 66 81 100 99 64 59 95 96 99 82 78 44 6 35 22 11 6 5 5 27 100 75 5 5 5 43 55 6 5 40 98 100 100 94 97 100 100 21
100 100 100 100 72 78 78 64 100 68 59 100 48 82 99 58 69 7 53 26 6 30 47 100 95 54 8 17 32 14 47 58 32 82 81 87 100 92 100 100 100 97 70
99 100 100 100 100 100 98 43 30 72 76 82 42 31 26 89 86 40 7 6 5 5 32 79 100 100 60 65 88 81 91 100 100 100 100 100 97 100 100 100 100 93 100
62 100 100 100 100 100 100 100 98 42 65 28 93 53 5 37 57 5 5 5 5 71 99 73 70 62 66 61 89 100 100 100 100 100 100 100 100 72 100 100 100 100 100
100 23 23 100 100 100 100 100 96 87 71 76 75 90 100 83 21 55 5 5 5 14 78 100 100 76 97 100 100 100 100 100 100 100 100 100 90 55 88 99 100 100 100
100 98 100 89 100 100 100 100 100 100 98 96 91 74 60 100 67 41 7 5 37 13 69 100 99 100 100 100 100 100 100 100 100 100 100 100 100 100 95 100 100 100 100
100 100 100 66 99 98 100 100 100 100 100 100 95 100 86 37 71 70 52 26 5 80 94 92 100 100 100 100 100 100 100 100 100 100 100 100 100 100 100 100 100 100 100
100 100 100 95 99 100 100 97 97 93 76 69 96 95 93 85 63 8 25 56 80 87 99 100 100 100 100 100 100 100 100 100 100 100 100 100 100 100 100 100 100 100 100
100 100 100 100 100 83 97 100 96 100 93 100 100 100 77 75 58 12 67 99 100 100 100 100 100 100 100 100 100 100 100 100 100 100 100 100 100 100 100 100 100 100 100
100 100 100 100 100 100 100 100 100 100 100 100 100 100 100 95 92 100 98 100 100 99 75 69 100 100 100 100 100 100 100 100 100 100 100 100 100 100 100 100 100 100 100
100 100 100 100 100 100 100 100 100 100 100 100 100 100 100 96 95 100 100 100 91 95 100 100 100 100 100 100 100 100 100 100 100 100 100 100 100 100 100 100 100 100 100
100 100 100 100 100 100 100 100 100 100 100 100 100 100 100 100 100 100 100 100 100 100 100 100 100 100 100 100 100 100 100 100 100 100 100 100 100 100 100 100 100 100 100
100 100 100 100 100 100 99 100 100 100 100 100 100 100 100 100 100 100 100 100 100 100 100 100 100 100 100 100 100 100 100 100 100 100 100 100 100 100 100 100 100 100 100
100 100 100 100 100 100 100 98 92 35 30 15 53 99 100 100 100 100 100 100 100 100 100 100 100 100 100 100 100 100 100 100 100 100 100 100 100 100 100 100 100 100 100
100 100 100 100 100 100 100 100 97 100 100 100 100 100 100 100 100 100 100 100 100 100 100 100 100 100 100 100 100 100 95 100 100 100 100 100 100 100 100 100 100 81 98
100 100 100 100 100 100 100 100 100 100 100 100 100 100 100 100 100 100 100 100 100 100 100 100 100 100 95 30 18 27 80 100 100 100 100 100 100 100 100 100 100 100 100
100 100 100 100 100 100 100 100 100 100 100 100 100 100 100 100 100 100 100 100 100 100 100 99 100 100 100 97 84 48 44 76 70 100 96 97 94 72 89 95 96 97 100
100 100 100 100 100 100 100 100 100 100 100 100 100 100 100 100 100 100 100 100 100 100 100 100 100 100 100 100 79 60 64 90 36 5 5 5 26 50 71 98 100 99 100
100 100 93 99 100 100 100 100 100 100 100 100 100 100 100 100 100 100 100 100 100 100 100 44 40 36 58 65 72 5 5 5 5 5 6 34 88 98 100 100 100 100 100
100 94 100 100 100 100 100 100 69 58 62 100 100 100 100 100 100 100 100 100 100 99 99 42 6 5 5 5 4 3 5 5 5 5 5 10 31 71 16 9 1 3 5
100 100 100 100 100 100 100 100 100 100 100 100 100 100 100 100 100 100 100 100 100 91 18 5 5 5 0 5 5 3 5 3 2 5 5 0 5 5 5 5 5 5 7
100 100 100 100 100 100 100 100 100 95 100 100 100 100 100 100 100 100 100 62 11 5 2 3 5 5 5 5 5 5 5 5 5 3 4 5 5 7 34 9 5 5 6
100 100 100 100 100 100 100 100 100 98 100 100 100 100 99 98 97 95 38 5 5 5 5 2 0 5 5 5 5 5 5 5 5 5 5 5 5 7 5 4 5 5 5
100 100 100 100 100 88 100 100 100 100 100 100 99 100 100 100 96 12 5 5 5 5 5 5 5 5 5 5 5 5 5 5 5 5 5 5 5 5 3 1 4 5 5
86 62 24 7 71 86 100 100 100 100 100 100 100 100 95 12 17 60 20 5 5 27 5 5 9 5 5 34 28 5 5 5 5 5 5 5 5 0 2 5 5 5 8
100 91 51 42 33 71 100 99 90 100 100 100 100 62 5 37 94 98 100 75 76 96 41 9 5 76 78 8 5 5 5 5 5 5 5 5 5 5 5 5 7 61 98

GFSMW_prec_cloud_081.txt.gz
Cloud_Cover
100 100 100 100 100 100 17 24 5 5 5 5 5 5 5 26 33 8 72 27 5 19 43 45 30 5 5 5 5 5 5 5 5 5 5 14 59 100 100 100 100 100 100
100 100 100 100 98 97 100 68 94 8 31 96 67 72 54 87 100 92 97 30 60 50 17 6 5 5 5 26 5 15 5 7 12 7 12 65 97 100 100 100 100 100 100
93 100 100 100 100 62 94 90 80 95 55 81 100 100 100 100 76 53 93 95 100 100 41 5 5 5 13 5 5 87 78 97 94 5 32 99 100 100 100 100 100 100 100
99 96 100 100 100 100 100 100 100 100 100 60 33 27 40 37 28 29 97 100 95 89 54 89 52 9 5 35 39 41 84 99 100 65 100 100 100 100 100 100 100 100 100
100 60 92 100 100 100 100 100 94 28 13 88 100 100 100 100 99 43 20 90 90 96 97 91 83 58 81 78 95 89 98 100 100 100 98 94 100 100 99 91 50 98 87
100 78 53 100 100 100 100 100 100 52 61 56 92 100 100 73 27 59 84 46 71 7 60 55 47 68 98 100 100 100 100 100 100 100 98 100 100 100 96 65 66 96 97
100 100 100 84 29 70 100 100 100 100 100 93 56 60 96 100 100 100 84 51 58 94 75 32 55 100 100 100 100 100 100 100 100 100 100 100 100 100 100 100 100 100 100
100 100 100 100 98 86 87 86 53 94 100 100 100 100 100 95 100 100 100 100 100 100 100 95 100 100 100 100 100 99 99 100 100 93 100 98 100 100 100 100 100 100 100
94 100 100 100 100 100 100 93 60 61 77 100 100 100 100 100 100 96 98 100 100 100 100 100 100 100 100 100 100 100 99 87 100 100 96 100 100 100 100 100 100 100 100
5 34 100 100 100 100 100 100 100 85 69 86 84 98 90 88 80 80 87 89 88 99 82 43 84 98 98 96 100 100 100 100 100 100 100 100 100 100 100 100 100 100 100
98 5 5 94 100 100 100 100 100 100 100 100 100 72 68 61 44 51 36 75 60 63 54 48 35 97 100 100 100 100 100 100 100 100 100 100 100 100 100 100 100 100 100
100 95 8 4 100 100 100 100 100 100 100 100 100 100 90 56 23 95 100 88 100 90 87 66 92 91 100 100 100 100 100 100 100 100 100 100 100 100 100 100 100 100 99
100 100 100 14 100 100 100 100 100 100 100 100 99 100 100 100 100 100 100 100 100 89 100 81 100 100 100 100 100 100 100 100 100 100 100 100 100 100 100 100 100 100 100
100 100 100 100 100 100 100 100 100 100 100 100 100 100 100 100 100 100 100 100 100 100 100 100 100 100 100 100 100 100 100 100 84 94 100 100 100 100 100 100 100 100 100
100 100 100 100 100 100 100 100 100 100 100 100 100 100 100 100 100 100 100 100 100 100 100 100 100 100 100 100 100 100 100 100 92 98 100 100 100 100 100 100 100 100 96
100 100 100 100 100 100 100 100 100 100 100 100 100 100 100 100 100 100 100 100 100 100 100 100 100 100 100 100 98 13 35 62 100 100 100 100 100 100 94 100 99 83 54
100 100 100 100 100 94 100 100 100 100 100 100 100 100 100 100 100 100 100 100 100 100 100 100 100 100 100 97 53 13 9 32 56 70 90 77 43 32 39 16 6 30 79
100 100 100 100 100 100 100 100 100 100 100 100 100 100 100 100 100 100 100 100 100 100 100 100 100 100 100 98 73 70 50 26 7 5 5 5 5 5 5 5 5 5 5
100 100 100 100 100 100 100 100 100 100 100 100 100 100 100 100 100 100 100 100 100 100 100 100 63 52 10 7 5 5 5 5 5 5 5 0 3 5 35 4 2 2 1
100 100 100 100 100 100 100 100 100 100 100 100 100 100 100 100 100 100 100 100 96 41 48 17 5 5 5 5 1 2 5 5 5 4 1 5 3 5 5 4 5 4 0
100 100 100 100 100 100 100 100 100 87 56 100 100 100 100 100 100 100 100 88 66 8 5 5 5 2 0 5 4 0 1 0 1 0 0 5 5 5 5 5 0 1 12
100 100 100 100 100 100 100 100 100 100 100 100 100 100 100 100 100 100 100 92 8 39 28 5 5 4 5 5 5 3 4 5 5 5 5 5 3 0 4 3 5 15 12
100 100 100 100 100 100 100 100 100 100 100 100 100 100 100 100 100 92 46 8 6 5 0 3 5 5 5 4 5 5 5 5 5 5 5 5 3 2 4 0 5 5 0
100 100 100 100 100 100 100 100 100 100 100 100 100 100 100 100 64 62 5 5 5 5 5 5 5 5 9 26 32 25 62 9 5 5 5 5 4 4 0 0 4 5 5
100 100 100 100 100 100 100 100 100 100 100 100 100 100 100 100 83 6 35 20 50 8 5 5 21 7 62 96 76 55 16 14 5 5 5 4 0 0 0 4 5 5 8
100 100 96 96 86 70 100 100 100 100 100 100 99 100 100 56 3 4 5 46 68 66 73 99 94 96 100 100 88 64 22 16 5 5 5 2 0 4 5 5 5 30 97

GFSMW_prec_cloud_084.txt.gz
Cloud_Cover
100 100 100 100 100 50 100 52 8 96 7 5 5 5 8 23 37 65 70 5 5 5 5 67 100 100 100 100 35 5 11 5 5 5 52 99 70 57 12 94 71 44 79
100 100 100 40 97 90 97 98 31 5 11 5 5 5 5 5 13 5 5 5 5 21 99 100 100 100 93 84 49 38 24 6 15 52 66 43 54 80 95 59 86 99 100
96 99 100 100 100 100 100 100 100 97 84 78 47 42 40 18 45 16 18 77 91 100 100 100 100 92 62 75 84 72 94 53 37 38 25 16 45 66 98 97 99 98 100
100 55 100 100 100 72 100 100 100 100 93 100 100 99 100 88 97 38 66 100 100 100 100 99 99 100 80 98 100 100 98 97 96 36 44 50 57 92 100 100 99 79 8
100 97 53 100 100 88 100 100 100 100 100 33 44 100 100 100 100 100 100 100 100 100 100 100 100 100 100 100 100 100 100 100 100 100 100 100 100 100 100 100 99 22 40
100 100 96 98 100 100 100 100 100 100 100 86 26 87 100 98 100 100 100 100 100 100 100 100 100 100 100 100 100 100 100 100 100 100 100 100 100 100 100 100 100 100 100
100 98 100 100 99 80 100 100 100 90 100 100 100 72 90 77 44 99 100 100 100 100 100 100 100 100 100 100 100 100 100 100 100 100 97 36 72 68 95 99 100 100 54
100 100 100 100 100 100 93 100 100 100 100 100 100 100 100 96 75 76 80 100 100 100 100 100 98 89 100 100 100 100 100 74 89 85 73 90 36 72 100 100 100 100 100
93 100 100 100 100 100 100 100 100 100 99 81 100 100 100 100 100 100 100 100 100 100 100 100 100 100 100 100 100 98 100 100 100 100 100 100 100 100 100 100 100 100 100
0 20 100 100 100 100 100 100 100 85 52 37 56 59 100 100 100 100 100 100 100 100 100 100 100 100 94 97 100 100 98 100 100 100 100 100 100 100 100 100 100 100 100
0 0 0 89 100 100 100 100 100 100 100 100 96 60 78 84 52 86 100 100 100 100 100 100 98 100 100 98 100 100 99 100 100 100 100 100 100 100 100 100 100 100 100
0 0 0 0 6 100 100 100 100 100 100 100 100 100 100 100 98 100 100 100 42 80 66 81 96 67 100 100 100 100 100 100 100 100 100 100 100 100 100 100 100 100 100
34 3 30 30 97 66 9 100 100 100 100 100 100 100 100 100 100 100 100 99 100 98 69 39 99 82 100 100 93 100 100 100 100 100 100 100 100 100 100 100 100 100 97
26 23 75 100 100 100 93 77 100 100 100 100 100 100 100 100 100 100 100 100 100 100 100 100 100 100 100 100 100 100 100 100 100 100 100 99 100 96 100 91 100 99 100
81 100 88 100 100 100 100 90 100 100 100 100 100 100 100 100 100 100 100 100 100 100 100 100 100 100 100 100 100 100 100 100 100 99 99 100 100 100 100 87 69 100 97
98 100 100 100 100 100 100 100 100 100 100 100 100 100 100 100 100 100 100 100 100 100 100 100 100 100 100 100 100 100 100 100 100 100 100 100 100 100 98 49 16 5 5
100 100 100 100 100 100 100 100 100 100 100 100 100 100 100 100 100 100 100 100 100 100 100 100 100 100 100 100 100 100 100 99 100 100 90 14 6 5 5 5 5 4 12
100 100 100 100 100 100 100 100 100 100 100 100 100 100 100 100 100 100 100 100 100 100 100 100 100 100 100 100 100 100 49 10 9 5 5 5 5 5 5 5 5 5 5
100 100 100 100 100 100 100 100 100 100 100 100 100 100 100 100 100 100 100 100 100 100 100 100 100 100 100 100 99 6 8 5 5 5 5 3 5 5 5 5 5 3 0
100 100 100 100 100 100 100 100 100 100 100 100 100 100 100 100 100 100 100 100 100 100 100 100 100 100 88 74 39 13 5 5 5 4 5 5 5 5 5 5 5 5 4
100 100 100 100 100 100 100 100 100 100 100 100 100 100 100 100 100 100 100 100 100 100 100 55 70 78 58 46 8 14 5 1 5 2 5 5 5 5 5 5 5 5 5
100 100 100 100 100 100 100 100 100 100 100 100 100 100 100 100 100 100 100 93 100 99 48 83 80 20 6 52 19 5 0 5 5 5 14 26 8 5 5 5 5 6 25
100 100 100 100 100 100 100 100 100 100 100 100 100 100 100 100 100 100 100 52 39 36 12 30 5 5 5 5 4 3 5 5 11 37 59 14 7 7 5 5 5 5 0
100 100 100 100 100 100 100 100 100 100 100 100 100 100 100 100 100 100 100 88 5 4 5 5 6 5 6 5 5 5 8 47 62 57 48 17 59 53 26 5 5 5 5
100 100 100 100 100 100 100 100 100 100 100 100 100 100 100 100 100 50 5 5 5 5 38 87 88 39 20 16 19 20 74 100 100 100 25 79 76 27 29 5 5 5 5
100 100 100 100 100 100 100 100 100 100 100 100 100 100 100 100 99 18 21 5 5 5 5 5 22 66 82 96 99 100 100 100 100 63 67 28 52 39 6 5 5 5 59

GFSMW_prec_cloud_087.txt.gz
Cloud_Cover
100 100 100 100 100 93 100 100 100 100 100 100 100 100 100 90 100 100 100 100 100 100 96 77 65 14 47 7 5 5 48 40 7 5 17 87 39 93 100 93 5 29 69
100 97 100 100 100 100 100 94 100 97 97 100 100 100 100 91 100 100 100 100 92 75 95 64 51 44 18 62 60 94 100 53 35 99 100 100 100 100 100 62 100 53 23
100 47 100 100 100 100 100 100 100 91 100 97 100 100 100 100 100 100 30 73 66 44 41 22 69 76 99 100 100 100 100 89 100 96 100 100 100 100 100 100 66 10 77
100 100 100 100 100 100 100 100 100 100 100 100 100 90 83 100 100 100 100 100 98 78 100 100 91 92 96 91 100 100 100 100 100 100 100 100 100 100 100 100 96 98 98
100 97 100 100 100 100 99 96 100 100 100 100 100 100 100 100 100 99 100 100 100 100 100 100 100 100 89 100 100 100 100 100 100 100 100 100 100 100 100 100 100 88 99
100 100 100 100 100 82 100 98 83 100 100 100 100 100 100 100 100 100 100 100 100 100 100 100 100 100 100 100 100 100 100 100 100 100 100 100 100 100 100 88 100 100 85
100 100 100 100 100 100 100 100 100 100 99 100 100 100 100 100 100 100 100 100 100 100 100 100 100 100 100 100 100 100 100 100 100 100 100 100 100 99 100 99 100 86 88
100 100 100 99 100 100 100 100 100 100 100 91 39 92 100 100 100 100 100 100 100 100 100 100 100 100 100 100 100 100 100 100 100 100 100 100 100 100 100 100 100 100 100
0 0 92 100 100 100 100 100 100 100 100 87 53 20 98 98 92 100 100 100 100 100 100 100 100 100 100 100 100 100 100 100 100 100 100 100 100 100 100 100 100 100 100
0 0 0 82 99 100 100 100 100 97 58 100 83 85 79 96 98 100 100 100 100 100 100 100 100 100 100 100 100 100 88 100 100 87 100 100 100 100 100 100 100 100 100
0 0 0 0 4 28 99 100 42 83 94 93 72 99 100 100 84 90 100 100 100 100 100 100 100 100 100 98 100 100 88 81 100 91 100 100 100 100 100 56 99 96 100
0 0 0 0 0 4 100 100 99 98 100 100 99 88 99 100 100 100 100 100 100 100 100 100 100 100 100 100 100 100 99 100 99 99 100 100 100 100 100 100 100 100 100
4 0 0 0 0 0 24 99 100 100 100 100 100 100 100 100 100 100 100 98 100 100 100 100 100 100 100 100 100 100 100 100 100 100 100 100 100 100 100 100 94 100 100
5 1 0 0 0 0 0 4 97 100 100 100 100 100 100 95 100 100 88 99 100 100 100 100 100 100 100 100 100 100 100 100 100 100 100 100 100 100 100 79 96 64 99
22 63 5 14 43 0 0 4 48 100 99 94 100 100 100 100 100 100 100 100 100 100 100 100 100 100 100 100 100 100 100 100 100 100 100 100 100 100 76 61 63 36 71
68 9 66 100 96 96 86 5 58 100 100 100 100 100 100 100 100 100 100 100 100 100 100 100 100 100 100 100 100 100 100 100 100 100 100 100 100 100 73 9 11 5 5
100 96 94 100 99 100 100 100 100 100 100 100 100 100 100 100 100 100 100 100 100 100 100 100 100 100 100 100 92 100 100 100 100 100 100 100 100 19 5 5 5 4 16
88 88 57 100 100 88 91 100 100 100 100 100 100 100 100 100 100 100 100 100 100 100 100 100 100 100 100 100 100 100 100 100 100 100 100 100 29 5 5 5 5 5 5
100 100 99 100 100 100 100 100 100 100 100 100 100 100 100 100 100 100 100 100 100 100 100 100 100 100 100 100 100 100 100 100 100 100 97 17 5 26 5 0 5 5 5
100 100 100 100 100 100 100 100 100 100 100 100 100 100 100 100 100 100 100 100 100 100 100 100 100 100 100 100 100 100 100 100 59 9 34 6 42 5 5 5 5 6 10
100 100 100 100 100 100 100 100 100 100 100 100 100 100 100 100 100 100 100 100 100 100 100 100 100 100 100 100 100 100 76 73 5 12 5 23 5 4 5 5 28 38 9
100 100 100 100 100 100 100 100 100 100 100 100 100 100 100 100 100 100 100 100 100 100 100 100 100 100 100 78 41 40 11 12 5 37 7 2 5 5 38 70 59 32 12
100 100 100 100 100 100 100 100 100 100 100 100 100 100 100 100 100 100 100 100 100 100 100 100 100 68 49 18 6 5 4 30 8 3 1 5 12 56 75 92 59 14 24
100 100 100 100 100 100 100 100 100 100 100 100 100 100 100 100 100 100 100 100 99 77 48 87 44 40 5 5 5 6 70 14 7 24 64 100 100 100 100 55 58 62 10
100 100 100 100 100 100 100 100 100 100 100 100 100 100 100 100 100 100 100 77 52 61 67 38 8 5 5 5 4 5 31 92 100 100 100 100 100 100 77 55 61 8 5
98 88 99 100 100 100 100 100 100 100 100 100 100 100 100 100 100 100 98 100 90 26 6 5 5 5 5 5 20 68 100 100 100 100 100 100 100 87 63 32 46 5 5

GFSMW_prec_cloud_090.txt.gz
Cloud_Cover
100 100 100 100 100 100 100 100 100 100 100 100 100 100 100 100 100 100 100 100 100 100 100 100 100 100 100 100 100 93 82 5 14 5 18 43 7 5 29 80 58 75 9
100 100 100 100 100 100 100 100 100 100 100 100 100 100 100 100 100 100 100 100 96 96 97 100 100 100 100 100 100 100 9 5 5 53 52 51 45 96 91 100 99 54 5
80 99 100 100 100 100 100 100 100 100 100 100 100 100 100 100 100 100 100 100 100 100 100 100 100 100 100 100 100 69 48 33 53 37 13 63 100 100 100 100 98 14 6
100 97 100 100 100 100 100 100 100 100 100 100 100 100 100 100 100 100 100 100 100 100 100 100 100 100 100 100 100 64 65 78 92 69 91 100 100 100 100 100 100 94 94
100 99 97 99 100 100 100 100 100 100 100 100 100 100 100 100 100 100 100 100 100 100 100 100 100 100 100 100 100 94 95 100 90 100 100 100 100 100 100 100 100 100 100
100 100 100 100 99 99 100 100 100 100 100 100 100 100 100 100 100 100 100 100 100 100 100 100 100 100 100 100 100 100 100 100 100 100 100 100 100 100 100 100 100 96 100
100 100 100 100 100 100 100 100 90 100 100 100 100 100 100 100 100 100 100 100 100 100 100 100 100 100 100 100 100 100 100 100 100 100 100 100 100 100 100 100 100 100 100
100 100 100 100 100 100 100 100 100 100 100 100 100 100 100 100 100 100 100 100 100 100 100 100 100 100 100 100 100 100 100 100 100 100 100 100 100 100 100 100 100 100 100
0 100 100 100 100 100 100 74 87 100 99 100 100 100 100 100 100 100 100 100 100 100 100 100 100 100 100 100 100 100 100 100 100 100 100 100 100 100 100 100 100 100 100
0 34 100 100 100 69 100 100 100 100 96 99 73 98 100 98 100 100 100 100 100 100 100 100 100 100 100 100 100 100 100 100 100 100 100 100 100 100 100 100 100 100 100
0 0 1 94 100 100 100 91 81 77 100 94 100 74 30 8 27 68 98 100 100 100 100 100 100 100 100 100 100 100 100 100 100 100 100 100 100 100 100 100 100 100 100
0 0 0 0 14 100 100 100 100 77 100 100 99 100 100 86 88 99 93 91 82 47 52 99 100 100 100 100 100 100 100 100 100 100 100 100 100 100 100 100 100 100 100
0 0 0 0 0 0 0 0 36 96 100 100 100 100 100 100 100 96 97 68 19 60 63 96 100 95 97 100 100 100 100 100 100 100 100 100 100 100 100 100 100 100 100
1 0 0 0 0 0 0 0 0 74 100 100 100 100 100 100 100 100 100 100 100 100 100 100 100 100 100 100 100 100 100 100 100 100 100 100 100 100 100 100 100 100 85
1 0 0 0 0 0 0 0 0 0 0 0 0 35 99 100 100 100 100 100 100 100 100 100 98 100 100 100 100 100 100 100 100 100 100 100 100 100 100 100 100 91 65
0 0 1 1 23 2 0 0 0 0 0 0 0 1 100 100 100 100 100 100 100 100 100 100 100 100 100 100 100 100 100 100 100 100 100 100 100 100 100 100 100 96 36
2 5 5 5 21 64 5 39 4 5 0 1 4 21 100 100 100 100 100 100 100 100 100 100 100 100 100 100 100 100 100 100 100 100 100 100 100 100 100 100 100 100 16
74 63 64 64 84 26 67 93 54 89 85 100 83 19 100 100 100 100 100 100 100 100 100 100 100 100 100 100 100 100 100 100 100 100 100 100 100 100 100 100 100 18 5
77 81 100 84 100 75 73 38 83 98 100 82 81 92 99 92 100 100 100 100 100 100 100 100 100 100 100 100 100 100 100 100 100 100 100 100 100 100 92 48 12 15 5
5 7 74 100 100 98 73 100 84 63 100 96 100 100 100 100 100 100 100 100 100 100 100 100 100 100 100 100 100 100 100 100 100 100 100 100 100 83 25 42 17 5 5
27 64 63 100 98 100 100 100 100 100 100 97 100 100 100 100 100 100 100 100 100 100 100 100 100 100 100 100 100 100 100 100 100 100 100 76 68 5 17 5 5 3 5
99 67 100 100 100 100 100 100 100 100 100 100 100 100 100 100 100 100 100 100 100 100 100 100 100 100 100 100 100 100 100 100 99 55 22 41 20 5 5 5 5 5 35
100 96 98 100 100 100 100 100 100 100 100 100 100 100 100 100 100 100 100 100 100 100 100 100 100 100 100 100 100 100 93 85 22 26 5 68 96 42 24 97 90 97 99
100 100 100 100 100 100 100 100 100 100 100 100 100 100 100 100 100 100 100 100 100 100 100 100 100 100 100 97 50 27 17 7 8 5 5 5 12 100 100 100 100 100 95
100 100 100 100 100 100 100 100 100 100 100 100 100 100 100 100 100 100 100 100 100 100 100 100 100 80 62 12 5 23 7 5 5 5 5 50 100 100 100 100 100 85 42
100 100 100 100 100 100 100 100 100 100 100 100 100 100 100 100 100 100 100 100 100 100 100 100 69 45 5 15 12 5 5 5 5 5 30 97 100 100 100 99 59 49 8

GFSMW_prec_cloud_093.txt.gz
Cloud_Cover
100 100 100 100 97 100 78 100 100 100 100 100 100 100 100 100 100 100 100 100 100 94 8 37 100 100 100 100 98 99 100 100 100 100 98 71 38 66 47 5 5 5 5
100 100 100 84 100 100 100 100 100 100 100 100 100 100 100 100 100 100 100 100 100 100 100 100 100 100 100 99 79 100 100 100 100 100 100 33 74 78 41 10 6 5 8
100 100 100 100 100 100 100 100 100 100 100 100 100 100 100 100 100 100 100 100 100 100 100 100 100 100 100 100 100 98 100 100 100 96 65 100 100 98 96 90 36 89 89
100 100 100 100 100 100 100 100 100 100 100 100 100 100 100 100 100 100 100 100 100 100 100 100 100 100 100 100 100 100 100 100 98 50 100 98 100 100 100 100 100 100 98
100 100 100 100 100 100 100 100 100 100 100 100 100 100 100 100 100 100 100 100 100 100 100 97 98 100 77 100 100 100 98 100 100 100 91 100 99 100 100 100 100 100 100
100 100 100 78 94 100 100 93 100 100 100 100 100 100 100 100 100 100 100 100 100 100 100 100 100 100 100 100 100 100 99 100 96 100 100 100 100 100 100 100 100 100 100
99 100 100 100 95 89 100 100 78 92 100 100 100 100 100 100 100 100 100 100 100 100 100 100 100 100 100 100 100 100 100 100 100 100 100 100 100 100 100 100 100 100 100
7 39 98 100 100 100 97 78 100 100 100 100 100 100 100 100 100 100 100 100 100 100 100 100 100 100 100 100 100 100 100 100 100 100 100 100 100 100 100 100 100 100 100
0 51 100 100 100 100 100 90 60 95 100 100 100 100 100 100 100 100 100 100 100 100 100 100 100 100 100 100 100 100 100 100 100 100 100 100 100 100 100 100 100 100 100
0 0 10 29 92 100 97 43 72 91 48 84 100 82 98 100 100 100 100 100 100 100 100 100 100 100 100 100 100 100 100 100 100 100 100 100 100 100 100 100 100 100 100
0 0 0 48 100 69 100 100 100 45 5 5 5 5 52 65 100 100 100 100 100 100 100 100 100 99 100 100 100 100 100 100 100 100 100 100 100 100 100 100 100 100 100
0 0 0 0 0 44 99 98 58 83 100 90 36 5 5 19 100 100 95 100 100 100 100 100 100 100 100 100 100 100 100 100 100 100 100 100 100 100 100 100 100 100 100
26 1 0 0 0 0 7 97 98 51 100 100 100 100 85 60 59 29 15 44 90 60 67 46 96 100 100 100 100 100 100 100 100 100 100 100 100 100 100 98 100 100 100
5 1 0 0 0 0 0 0 0 44 98 100 67 88 78 46 38 50 5 73 99 96 100 47 99 97 68 98 88 100 100 100 100 100 100 100 100 100 100 100 100 100 100
27 5 0 1 0 0 0 0 0 0 0 13 100 39 8 7 10 5 5 74 100 100 100 100 100 92 80 100 100 100 100 100 100 100 100 100 100 100 100 100 100 100 100
5 4 0 0 0 0 0 0 0 0 0 0 0 2 9 5 5 5 31 100 100 100 100 100 100 100 100 100 100 100 100 100 100 100 100 100 100 100 100 100 100 100 100
5 0 0 0 0 0 4 0 0 0 0 0 0 0 0 0 0 0 0 70 100 100 100 100 100 100 100 100 100 100 100 100 100 100 100 100 100 100 100 100 100 100 100
2 4 0 0 0 4 50 5 5 5 4 4 4 5 5 5 3 5 19 98 100 100 100 100 100 100 100 100 100 100 100 100 100 100 100 100 100 100 100 100 100 100 100
5 1 3 5 5 8 60 5 5 5 33 5 77 14 5 22 70 68 100 100 100 100 100 100 100 100 100 100 100 100 100 100 100 100 100 100 100 100 100 100 100 100 100
5 43 61 80 5 5 67 54 15 100 14 57 88 100 86 100 100 100 100 100 100 100 100 100 100 100 100 100 100 100 100 100 100 100 100 100 100 100 100 100 100 100 60
83 13 5 5 8 22 11 66 100 92 97 100 62 100 97 99 91 84 100 100 100 100 100 100 100 100 100 100 100 100 100 100 100 100 100 100 100 100 100 94 66 51 18
97 71 87 86 6 84 11 34 95 97 100 100 100 100 100 100 100 100 100 100 100 100 100 100 100 100 100 100 100 100 100 100 100 100 100 100 100 100 51 42 14 5 5
100 86 8 89 66 80 71 100 100 100 100 100 100 100 100 100 100 100 100 100 100 100 100 100 100 100 100 100 100 100 100 100 100 100 100 100 61 35 5 5 5 75 99
32 100 100 100 100 77 100 100 100 100 100 100 100 100 100 100 100 100 100 100 100 100 100 100 100 100 100 100 100 100 100 100 100 97 55 25 5 5 5 32 95 31 5
8 100 100 100 100 100 100 100 100 100 100 100 100 100 100 100 100 100 100 100 100 100 100 100 100 100 100 100 100 100 100 80 35 5 5 5 5 5 5 34 74 99 80
83 99 97 100 100 100 100 100 100 100 100 100 100 100 100 100 100 100 100 100 100 100 100 100 100 100 100 100 93 28 38 20 6 5 5 5 5 5 5 5 6 5 13

GFSMW_prec_cloud_096.txt.gz
Cloud_Cover
3 81 100 98 100 100 30 54 100 100 100 100 100 100 100 100 100 100 100 100 100 100 100 92 56 40 91 100 100 69 51 100 100 100 100 100 100 100 99 5 17 74 80
0 8 7 100 100 100 100 100 100 100 100 100 100 100 100 100 100 100 100 100 100 100 100 100 100 100 100 100 100 100 100 100 100 100 100 100 100 95 10 24 8 95 38
0 4 64 91 100 95 100 100 100 100 100 100 100 100 100 100 100 100 100 100 100 100 100 100 100 100 100 100 100 100 100 100 100 100 100 100 100 82 70 10 42 40 100
0 17 93 100 100 100 100 100 100 100 100 100 100 100 100 100 100 100 100 100 100 100 100 100 100 100 100 100 100 100 96 99 100 100 100 100 98 100 100 99 100 97 100
0 33 35 100 100 100 100 100 100 100 100 100 100 100 100 100 100 100 100 100 100 100 100 100 100 100 100 98 92 96 100 99 69 91 89 100 87 100 100 100 100 100 100
2 81 100 100 100 100 100 100 100 100 100 100 100 100 100 100 100 100 100 100 100 100 100 100 100 100 100 100 100 100 99 96 99 99 99 98 100 100 100 100 100 100 100
1 11 100 100 100 100 100 100 100 100 100 100 100 100 100 100 100 100 100 100 100 100 100 100 100 100 100 100 100 100 100 100 100 100 100 100 100 100 100 100 100 100 100
0 11 35 99 100 100 100 100 100 100 100 100 100 100 100 100 100 100 100 100 100 100 100 100 100 100 100 100 100 100 100 100 100 100 100 100 100 100 100 100 100 100 100
5 13 89 100 100 100 100 80 100 99 100 100 100 100 100 100 100 100 100 100 100 100 100 100 100 100 100 100 100 100 100 100 100 100 100 100 100 100 100 100 100 100 100
5 3 52 92 94 88 100 83 100 99 100 98 100 100 100 100 100 100 100 100 100 100 100 100 100 100 100 100 100 100 100 100 100 100 100 100 100 100 100 100 100 100 100
5 4 1 5 100 100 100 99 100 100 83 100 98 46 86 100 100 100 100 100 100 100 100 100 100 100 100 100 100 100 100 100 100 100 100 100 100 100 100 100 100 100 100
5 0 0 0 6 60 86 100 99 69 87 18 22 100 99 64 76 100 100 100 100 100 100 100 100 100 100 100 100 100 100 100 100 100 100 100 100 100 100 100 100 100 100
3 0 0 0 0 0 0 31 96 100 100 100 71 49 61 20 6 36 98 93 85 99 100 100 100 100 100 100 100 100 100 100 100 100 100 100 100 100 100 100 100 100 100
1 0 0 0 0 0 0 0 0 57 90 100 100 100 100 61 6 0 1 3 17 44 52 49 13 24 66 72 84 99 100 100 100 100 100 100 98 99 100 100 100 100 100
4 5 0 4 0 0 0 0 0 0 89 100 100 100 61 85 95 100 97 95 90 27 0 1 0 0 7 75 93 94 68 90 81 71 98 100 100 100 100 92 100 100 100
5 5 5 5 4 0 0 0 0 0 0 0 0 0 1 0 2 2 5 5 9 84 93 100 99 100 100 99 58 90 100 100 100 100 100 100 100 100 100 100 100 100 100
100 6 5 22 13 0 0 0 0 0 0 0 0 0 0 0 0 0 0 0 2 0 0 16 64 85 100 100 100 100 100 100 100 100 100 100 100 100 100 100 100 100 100
11 62 5 5 8 1 0 0 0 0 0 0 0 0 0 0 0 5 2 35 13 35 83 100 100 100 100 100 100 100 100 100 100 100 100 100 100 100 100 100 100 100 100
100 96 5 5 0 0 0 0 4 5 5 5 5 5 5 5 5 9 49 62 74 80 100 100 100 100 100 100 100 100 100 100 100 100 100 100 100 100 100 100 100 100 100
100 85 4 0 0 0 0 0 2 5 5 6 5 38 31 25 66 62 85 82 91 83 100 100 100 100 100 100 100 100 100 100 100 100 100 100 100 100 100 100 100 100 100
5 5 2 0 2 5 5 7 2 1 13 5 5 78 100 99 100 98 82 86 82 100 100 100 100 100 100 100 100 100 100 100 100 100 100 100 100 100 100 100 100 100 100
5 3 3 8 5 26 30 76 10 5 5 22 51 76 100 98 86 96 100 100 100 100 100 100 100 100 100 100 100 100 100 100 100 100 100 100 100 100 100 100 100 100 98
5 26 5 43 5 29 96 66 37 41 14 82 97 100 100 100 100 100 100 100 100 100 100 100 100 100 100 100 100 100 100 100 100 100 100 100 100 100 100 100 100 76 7
70 70 42 97 58 95 100 100 100 100 100 100 100 100 100 100 100 100 100 100 100 100 100 100 100 100 100 100 100 100 100 100 100 100 100 100 100 100 100 97 18 5 5
100 76 48 100 100 100 100 100 96 100 100 100 100 100 100 100 100 100 100 100 100 100 100 100 100 100 100 100 100 100 100 100 100 100 100 100 100 91 13 5 5 5 5
99 44 5 83 100 100 100 100 100 100 100 100 100 100 100 100 100 100 100 100 100 100 100 100 100 100 100 100 100 100 100 100 100 100 100 95 10 11 12 5 5 5 5

GFSMW_prec_cloud_099.txt.gz
Cloud_Cover
97 9 5 4 1 5 100 98 82 100 79 100 100 100 100 100 100 100 100 100 100 100 100 100 100 100 100 95 95 34 5 50 26 43 46 100 100 100 100 93 99 11 8
52 2 32 5 5 5 5 90 97 66 100 100 100 100 100 100 100 100 100 100 100 100 100 100 100 100 100 100 100 100 100 100 100 100 100 100 100 99 94 89 71 6 8
85 53 1 65 5 5 5 66 96 97 71 100 100 100 100 100 100 100 100 100 100 100 100 100 100 100 100 100 100 100 100 100 100 100 100 100 82 100 100 99 63 12 43
100 5 8 0 9 11 5 36 69 92 64 63 100 100 100 100 100 100 100 100 100 100 100 100 100 100 100 100 100 100 100 100 100 98 73 100 100 100 66 100 96 42 5
6 4 6 1 5 0 5 5 80 86 96 100 100 100 100 100 100 100 100 100 99 100 100 100 100 100 100 100 100 100 100 98 100 100 100 100 99 100 100 99 100 100 100
9 100 11 6 4 0 0 13 61 90 97 100 100 100 100 100 100 100 100 100 100 100 100 100 100 98 100 100 100 100 91 100 100 100 100 95 86 100 100 96 100 100 100
92 100 11 5 0 9 96 52 81 93 100 100 100 100 100 100 100 100 100 100 100 100 100 100 100 100 100 100 100 100 100 100 100 100 100 100 100 100 100 100 100 100 100
100 84 6 1 8 18 46 99 100 100 100 100 100 100 100 100 100 100 100 100 100 100 100 100 100 100 100 100 100 100 100 100 100 100 100 100 100 100 100 100 100 100 100
100 100 18 0 5 86 45 98 100 100 100 100 100 100 100 100 100 100 100 100 100 100 100 100 100 100 100 100 100 100 100 100 100 100 100 100 100 100 100 100 100 100 100
100 100 6 0 0 1 42 77 100 100 100 99 74 100 100 100 100 100 100 100 100 100 100 100 100 100 100 100 100 100 100 100 100 100 100 100 100 100 100 100 100 100 100
100 96 5 0 0 0 85 36 100 100 86 93 100 92 99 100 100 100 100 100 100 100 100 100 100 100 100 100 100 100 100 100 100 100 100 100 100 100 100 100 100 100 100
100 84 4 4 0 0 100 100 100 97 26 100 96 99 75 96 98 100 100 100 100 100 100 100 100 100 100 100 100 100 100 100 100 100 100 100 100 100 100 100 100 100 100
100 64 5 4 4 0 11 100 44 100 100 100 98 96 91 100 100 100 100 100 100 100 100 100 100 100 100 100 100 100 100 100 100 100 100 100 100 100 100 100 100 100 100
100 100 26 0 0 0 0 2 81 100 100 100 100 92 78 76 48 2 99 100 94 100 100 92 98 100 100 100 100 100 100 100 100 100 100 100 100 100 100 97 83 66 90
100 100 37 5 0 0 0 0 68 100 100 100 100 100 100 96 88 96 40 15 45 100 100 74 25 4 9 30 76 100 95 100 100 100 83 98 100 100 100 83 69 80 99
100 81 19 5 0 0 0 0 0 5 0 0 60 100 100 100 91 100 100 91 67 26 0 0 0 0 0 0 0 19 30 99 100 100 100 100 100 100 100 87 99 97 100
17 58 56 18 5 6 5 1 0 0 0 0 0 0 0 0 0 12 21 54 78 74 98 43 40 51 88 46 95 100 100 100 100 100 100 100 100 100 100 100 100 100 99
35 38 29 9 9 16 5 2 3 0 0 0 0 0 0 0 0 0 0 0 1 4 24 47 45 51 98 100 100 100 100 100 100 100 100 100 100 100 100 100 100 100 100
49 74 41 59 82 7 5 5 5 5 0 0 0 0 0 0 0 0 4 27 28 60 91 73 62 98 100 100 100 100 100 100 100 100 100 100 100 88 100 100 100 100 100
100 100 100 99 89 5 14 83 5 0 0 0 0 0 5 5 5 5 68 100 100 100 99 97 42 100 100 100 100 100 100 100 100 100 100 84 73 100 100 100 100 100 100
13 50 66 44 60 88 36 1 0 0 0 0 0 0 5 5 8 25 58 100 100 100 100 99 73 100 100 100 100 100 100 100 97 100 100 98 100 100 100 100 100 100 100
5 26 27 5 5 1 0 0 0 2 4 4 4 5 5 5 5 38 97 86 100 100 98 95 93 100 100 100 100 100 100 99 100 100 100 100 100 100 100 100 100 100 100
98 36 15 4 5 4 3 4 9 5 5 5 17 66 52 72 93 100 100 100 100 78 83 100 100 100 100 100 100 100 100 82 100 100 100 100 100 100 100 100 100 100 100
5 5 5 5 10 39 6 98 29 80 72 68 100 96 100 100 100 100 100 100 100 80 100 100 100 100 100 100 100 100 100 100 100 100 100 100 100 100 100 100 100 100 100
21 5 5 5 23 100 90 100 96 100 82 100 100 100 100 100 87 100 100 100 100 100 100 100 100 100 100 100 100 100 100 100 100 100 100 100 100 100 100 100 100 100 100
5 12 8 12 26 99 100 100 100 100 100 100 100 100 100 100 100 99 100 100 100 100 100 100 100 100 100 100 100 100 100 100 100 100 100 100 100 100 100 100 100 100 60

GFSMW_prec_cloud_102.txt.gz
Cloud_Cover
61 5 2 4 100 100 100 100 100 98 92 100 100 100 100 100 100 100 100 100 100 100 100 100 100 100 100 100 100 100 100 100 100 95 100 96 85 100 100 62 98 92 9
100 100 89 18 4 90 99 38 98 100 24 100 100 96 94 100 100 100 100 100 100 100 100 100 100 100 100 100 100 100 100 100 100 100 100 100 100 98 100 99 23 9 45
100 94 98 69 14 78 4 6 5 85 100 56 38 87 97 100 100 100 100 100 100 100 100 100 99 100 100 100 100 100 100 77 100 97 100 80 78 79 83 82 56 6 49
99 76 81 100 94 22 5 5 3 5 36 100 77 85 100 100 100 100 100 100 100 100 100 100 100 100 100 98 100 100 100 100 100 100 98 67 89 84 89 99 69 62 78
59 100 40 82 33 4 94 5 5 5 3 5 96 98 100 100 100 100 100 100 100 100 100 100 100 100 100 100 100 100 100 98 93 100 100 95 79 100 99 91 98 88 73
89 92 85 86 68 11 100 10 5 5 5 0 49 100 100 100 100 100 100 100 100 100 100 100 100 100 100 100 100 100 100 100 100 100 69 100 100 100 95 95 95 81 100
29 61 100 60 73 100 87 20 2 0 3 5 53 95 100 100 100 100 100 100 100 100 100 100 100 100 100 100 100 100 100 100 100 100 100 100 100 100 100 100 84 99 99
89 83 100 0 100 97 26 89 0 0 5 2 6 12 81 100 100 100 100 100 100 100 100 100 100 100 100 100 100 100 100 100 100 100 100 100 99 100 100 100 100 100 100
61 43 5 5 86 7 96 13 47 49 6 52 93 78 100 100 100 100 100 100 100 100 100 100 100 100 100 100 100 100 100 100 100 100 100 100 100 100 100 100 100 100 100
90 99 25 5 5 5 64 100 83 100 30 79 94 82 100 100 100 100 100 100 100 100 100 100 100 100 100 100 100 100 89 100 100 100 100 100 100 100 100 100 100 100 100
48 97 75 10 11 16 72 40 11 44 3 16 100 94 98 100 100 100 100 100 100 100 100 100 100 100 100 100 100 100 100 100 100 100 100 100 100 100 100 100 100 100 100
3 5 5 100 56 93 80 98 21 0 17 5 100 100 100 100 100 100 100 100 100 100 100 100 100 100 100 100 100 100 100 100 100 100 100 100 100 100 98 100 100 100 100
100 100 94 41 100 100 82 68 5 1 5 5 97 86 100 100 100 100 99 100 100 100 98 100 100 100 100 100 100 100 100 100 100 100 100 100 100 100 100 100 100 100 100
100 100 100 100 100 70 6 5 3 3 4 3 9 100 100 100 100 100 99 97 100 100 100 88 100 100 100 100 100 100 100 100 100 100 100 100 100 100 100 100 100 100 100
100 100 100 100 100 83 10 3 0 0 0 13 60 96 100 88 100 100 95 100 97 100 94 53 82 100 100 93 100 100 100 100 100 100 100 100 100 100 100 100 100 100 100
100 100 100 100 100 100 100 17 0 0 0 0 77 93 36 100 100 97 78 85 100 100 100 2 0 98 53 5 4 0 0 3 4 40 100 100 100 92 100 97 100 100 100
100 98 100 100 100 100 18 4 0 0 0 0 0 55 100 100 100 100 94 100 76 9 11 61 67 6 3 4 18 90 100 100 100 100 100 100 100 100 100 100 100 100 100
99 100 100 100 100 94 8 5 0 0 0 0 0 0 2 99 100 100 100 100 100 100 97 59 23 64 98 63 95 100 100 100 100 100 100 100 100 100 100 100 100 100 54
100 100 100 100 91 12 5 5 0 0 0 0 0 0 0 0 6 78 7 5 4 2 12 71 80 38 93 93 100 100 100 100 100 100 100 100 100 100 100 100 65 24 96
100 100 100 100 46 5 5 5 5 4 4 0 0 0 0 0 0 0 5 34 49 100 100 100 14 9 45 100 100 100 100 100 100 100 100 100 100 100 100 63 51 100 100
100 100 100 100 100 41 55 53 55 48 5 5 0 0 0 0 1 5 8 50 99 100 100 100 39 18 5 88 100 100 100 100 100 100 100 100 100 91 81 100 96 100 100
100 100 100 100 100 100 100 100 100 100 57 2 0 1 2 3 5 5 48 91 100 100 100 100 100 67 90 69 100 100 100 100 100 100 100 95 62 85 100 100 100 100 100
100 100 100 100 100 100 100 6 5 4 2 5 5 5 5 53 98 97 30 79 100 100 100 100 99 100 100 100 100 100 100 100 100 100 83 33 62 100 100 100 100 100 100
100 99 98 97 85 78 51 7 8 10 37 42 24 71 90 100 100 100 100 100 100 100 100 100 100 100 100 100 100 100 100 100 100 100 100 100 100 100 100 100 100 100 100
80 42 24 33 37 53 88 100 92 83 79 94 96 95 100 100 100 100 100 84 100 100 100 100 100 100 100 100 100 100 100 100 100 100 100 100 100 100 100 100 100 100 100
61 40 89 16 5 5 7 60 98 100 100 100 100 100 100 100 100 100 96 57 80 100 100 100 100 100 100 100 100 100 100 100 100 100 100 100 100 100 100 100 100 100 100

GFSMW_prec_cloud_105.txt.gz
Cloud_Cover
54 92 100 96 100 100 97 100 100 100 100 100 100 100 100 100 100 100 100 100 100 100 100 100 100 100 100 100 100 100 100 100 100 100 100 100 100 99 100 100 100 16 10
96 7 33 96 45 79 100 100 100 100 100 100 94 100 100 100 100 100 100 100 100 100 100 100 100 98 99 100 100 100 100 100 100 100 100 100 73 11 77 14 5 5 5
49 96 72 5 1 16 100 65 100 100 100 100 100 100 100 100 100 100 100 100 100 100 100 100 100 100 100 100 100 100 100 100 93 100 100 100 73 99 69 16 5 13 47
82 16 19 5 0 1 12 72 82 99 100 100 87 98 100 100 100 100 100 100 100 100 100 100 100 100 100 99 100 100 100 100 100 82 100 100 99 100 100 84 32 73 31
6 44 94 100 9 5 2 24 6 32 69 100 100 100 100 100 100 100 100 100 100 100 100 100 100 100 100 100 100 100 100 100 100 100 82 100 62 100 48 99 100 85 99
86 5 24 100 80 78 5 50 36 48 90 100 51 100 100 100 100 100 100 100 100 100 100 100 100 100 100 100 100 100 100 100 100 100 100 100 100 98 31 38 90 73 89
71 5 40 100 100 100 100 75 41 100 100 64 6 6 90 100 100 100 100 100 95 100 100 100 100 100 100 100 100 100 100 100 100 100 100 100 100 100 95 90 100 62 92
31 100 97 100 100 100 100 100 83 100 85 4 4 10 74 99 100 100 100 100 100 98 100 100 100 100 100 100 100 100 100 100 100 100 100 100 100 100 100 100 98 100 100
100 80 100 70 100 100 98 78 63 55 14 5 39 17 3 4 65 50 90 100 100 95 100 100 100 100 100 100 100 100 100 100 100 100 100 100 100 100 100 100 100 100 100
100 100 100 66 87 100 100 96 93 34 52 20 59 97 37 41 94 80 41 19 82 100 100 100 100 100 100 100 100 100 80 100 100 100 100 100 100 100 100 100 100 100 100
14 49 100 100 100 100 100 100 46 100 15 20 100 66 46 50 50 32 97 100 92 89 100 100 100 100 100 100 100 100 100 100 99 100 100 100 100 100 100 100 100 100 100
25 73 38 39 27 100 100 97 94 100 100 11 9 14 64 96 100 100 83 100 100 100 100 100 100 100 100 100 100 100 100 100 100 100 100 100 100 100 100 100 100 100 100
24 5 73 100 76 100 100 100 64 94 34 14 22 37 61 85 100 88 99 100 98 100 100 100 84 100 98 100 100 100 100 100 100 100 100 100 100 100 100 100 100 100 100
100 100 100 100 100 100 91 100 43 26 44 5 86 5 3 2 3 4 89 100 91 100 99 69 100 100 99 100 100 100 100 100 100 100 100 100 100 100 100 100 100 100 100
38 17 37 56 99 92 78 100 100 63 5 69 52 6 5 0 0 0 0 100 100 100 100 99 100 100 100 100 100 77 86 45 91 100 100 100 100 100 100 100 100 100 100
100 100 100 100 100 100 100 100 100 100 99 100 100 85 8 0 0 0 0 18 100 100 100 100 100 100 72 96 98 100 93 47 59 99 64 93 100 100 100 100 100 100 100
100 100 100 100 100 100 100 100 100 100 100 100 84 5 3 0 0 0 4 59 97 100 100 94 94 39 100 31 5 84 100 100 100 100 98 100 100 100 100 100 100 100 100
100 100 100 100 100 100 100 100 100 100 94 87 96 12 0 0 0 0 0 5 15 100 100 95 88 100 20 69 100 68 99 80 88 100 100 100 100 100 100 100 100 100 100
100 100 100 100 100 100 100 100 100 100 100 100 23 2 0 0 0 0 0 0 0 14 100 84 54 53 17 63 100 100 90 96 100 100 100 100 100 100 100 100 100 100 100
100 100 100 100 100 100 100 100 100 100 100 30 5 3 0 0 0 0 0 0 3 5 22 95 31 18 68 100 100 84 58 89 100 100 100 100 100 100 100 100 100 100 100
100 100 100 100 100 100 100 100 100 100 96 6 5 3 0 0 0 0 0 10 8 89 100 100 99 98 100 95 100 94 47 98 100 100 100 100 100 100 100 100 100 88 85
100 100 100 99 86 100 100 100 100 100 28 10 8 64 38 54 11 2 4 22 48 98 100 100 100 100 100 100 81 100 73 84 77 100 100 100 100 100 100 100 100 100 100
100 100 100 100 100 100 100 100 100 100 100 100 100 100 99 18 5 68 86 100 100 100 100 100 100 100 100 100 100 100 100 100 85 100 100 100 100 100 100 100 100 100 100
100 100 100 100 100 100 100 100 100 100 100 100 100 98 100 95 100 98 100 100 100 100 100 100 100 100 100 100 100 100 100 100 100 100 100 100 100 100 100 100 100 100 100
100 100 100 100 100 100 100 100 100 100 100 100 91 98 100 100 92 100 100 97 100 93 64 100 100 100 100 100 100 100 100 100 100 99 100 100 100 100 100 100 100 100 100
100 100 100 100 100 100 100 100 92 100 100 100 100 100 100 100 100 100 99 100 97 99 97 77 100 100 100 100 100 100 100 100 96 100 100 100 99 100 100 100 100 100 100

GFSMW_prec_cloud_108.txt.gz
Cloud_Cover
52 100 100 100 100 100 100 100 100 100 100 100 100 100 100 100 100 100 100 100 100 100 100 100 100 100 100 100 100 96 72 62 100 95 100 100 100 100 81 100 62 95 100
100 100 78 100 100 100 100 100 100 100 100 100 100 100 100 100 100 100 100 100 100 100 100 100 100 100 96 100 100 100 100 100 96 94 100 100 100 100 59 100 85 11 71
77 100 79 100 100 100 100 100 100 100 100 100 100 100 100 100 100 100 100 100 100 100 100 100 100 100 100 99 100 100 100 100 100 100 100 91 92 48 88 9 74 63 33
95 98 100 100 100 99 100 95 100 100 100 100 100 100 100 100 100 100 100 100 100 100 100 100 100 100 100 100 100 100 100 100 100 100 100 100 100 95 88 51 64 5 86
88 54 100 100 100 86 95 100 76 98 100 100 100 100 100 100 100 100 100 100 100 100 100 100 100 100 100 100 100 100 100 100 100 100 100 94 100 99 100 100 100 83 95
87 39 82 100 100 82 100 83 82 100 100 100 100 100 100 100 100 100 100 100 100 100 100 100 100 100 100 100 100 100 100 100 100 100 100 100 100 100 99 99 96 97 66
100 29 18 38 69 14 59 45 69 100 100 100 100 100 100 100 100 100 100 100 100 100 100 100 100 100 100 99 100 100 100 100 100 100 100 100 100 100 100 100 100 100 75
51 11 5 26 100 47 98 38 34 99 77 100 100 100 100 100 100 100 100 100 100 100 100 100 100 100 100 100 97 100 100 100 100 100 100 100 100 100 100 100 100 100 100
100 100 99 6 20 72 30 18 20 16 5 25 99 100 100 100 100 100 100 100 100 100 100 100 100 100 100 100 100 100 100 100 100 100 100 100 100 100 100 100 100 100 100
100 100 100 72 79 100 85 60 59 43 5 5 4 44 100 100 100 100 90 100 100 100 100 100 100 100 100 100 100 100 100 100 100 100 100 100 100 100 100 100 100 100 100
99 100 100 100 100 100 80 13 14 76 65 67 70 76 83 35 100 29 74 71 100 84 96 100 100 100 100 100 100 100 100 100 100 100 100 100 100 100 100 100 100 100 100
100 100 100 100 100 100 100 91 95 95 63 35 23 46 56 12 87 88 92 100 100 62 83 98 98 100 92 100 100 100 100 100 100 100 100 100 100 100 100 100 100 100 100
100 100 100 100 100 96 100 100 100 100 100 100 92 47 17 23 89 93 100 99 97 76 98 92 100 100 100 100 100 100 100 100 93 100 100 100 100 100 100 100 100 100 100
46 100 100 100 100 100 100 100 100 100 32 26 76 31 72 76 56 77 78 90 28 5 5 39 70 27 94 21 100 100 100 100 100 100 99 100 100 100 100 100 100 100 100
89 20 60 80 100 100 100 88 100 100 100 99 95 83 38 63 63 6 4 2 1 4 76 96 76 17 31 71 97 100 100 100 100 100 100 100 100 100 100 100 100 100 100
2 12 5 5 58 84 77 13 12 53 95 100 67 56 11 46 21 20 0 0 4 1 0 0 0 0 3 100 88 100 100 100 100 100 100 100 100 100 100 100 100 100 100
80 82 64 99 93 90 40 58 100 100 100 100 100 92 83 100 86 5 0 5 3 0 0 0 0 0 5 50 100 100 100 100 100 100 100 100 92 100 100 100 100 100 100
100 95 75 80 85 97 100 100 100 99 90 65 45 94 100 100 34 7 21 12 4 0 0 0 0 0 1 5 98 100 100 100 98 58 80 80 100 100 100 100 100 100 100
84 85 100 100 100 100 100 100 100 100 100 100 100 100 100 47 52 93 12 8 26 1 0 0 0 1 4 13 98 100 77 73 97 100 100 100 100 100 100 100 100 100 100
100 100 100 100 99 100 100 100 100 100 100 100 100 100 100 100 70 72 100 45 5 0 2 12 42 17 13 65 100 98 9 10 32 47 94 98 100 100 100 100 100 100 100
100 100 100 100 100 100 100 100 100 100 100 100 100 100 100 100 100 100 94 5 4 2 27 84 97 47 27 23 100 100 100 17 6 40 80 100 100 100 100 100 100 100 100
100 100 100 100 100 100 100 100 100 100 100 100 70 100 100 100 41 10 5 9 14 40 96 88 71 78 100 92 100 100 100 82 74 82 99 100 100 100 100 100 100 100 100
100 100 100 100 100 100 100 100 100 100 100 100 100 100 100 100 54 3 5 27 25 40 65 76 99 100 100 100 100 100 100 99 71 99 100 82 100 100 100 100 100 100 92
98 97 96 100 100 100 100 100 100 100 100 100 100 100 100 100 58 34 56 85 98 79 98 100 100 99 100 100 100 100 100 95 98 100 100 87 94 97 100 100 100 100 100
100 97 81 82 100 100 100 100 100 100 100 100 100 100 100 95 84 100 99 93 92 85 39 30 62 60 95 100 100 100 100 100 100 100 99 91 100 95 97 100 100 100 100
100 100 100 100 100 100 100 100 100 100 100 100 100 100 97 100 100 100 98 100 100 100 85 75 100 100 98 100 100 100 100 100 100 100 96 75 100 100 98 100 100 100 100

GFSMW_prec_cloud_111.txt.gz
Cloud_Cover
99 93 100 100 100 100 100 100 100 100 100 95 91 100 100 100 100 100 100 100 100 100 100 100 100 100 100 100 100 100 100 100 100 100 100 100 100 100 100 100 93 53 5
69 73 86 100 100 100 100 100 100 100 100 100 100 100 100 100 100 100 100 100 100 100 100 100 100 100 100 100 100 100 100 100 100 100 100 100 91 99 88 100 100 59 80
33 6 99 100 100 100 100 100 100 100 100 100 100 100 100 100 100 100 100 100 100 100 100 100 100 100 100 100 100 100 100 100 100 100 100 100 100 100 100 96 73 56 93
95 13 100 100 100 100 100 100 100 100 100 100 100 100 100 100 100 100 100 100 100 100 100 100 100 100 100 100 100 100 100 100 100 100 100 98 76 99 74 99 75 99 84
91 55 97 100 96 100 100 100 100 100 100 100 100 100 100 100 100 100 100 100 100 100 100 100 100 100 100 100 100 100 100 100 100 100 100 100 100 99 100 100 94 55 100
97 92 49 59 100 100 100 100 100 100 100 100 100 100 100 100 100 100 100 100 100 100 100 100 100 100 100 100 100 100 100 100 100 100 100 100 100 100 100 100 100 100 99
100 100 97 70 100 100 100 100 100 100 100 100 100 100 100 100 100 100 100 100 100 100 100 100 100 100 100 100 100 100 96 100 100 100 100 100 100 100 100 100 100 100 100
99 97 98 100 100 100 100 100 100 100 100 100 100 100 100 100 100 100 100 100 100 100 100 100 100 100 100 100 98 100 100 100 100 100 100 100 100 100 100 100 100 100 100
100 69 100 97 100 100 100 100 100 100 100 100 100 100 100 100 100 100 100 98 98 100 100 100 100 100 100 100 100 100 100 100 100 100 100 100 100 100 100 100 100 100 100
100 100 73 100 100 100 99 100 100 100 96 100 100 100 100 100 100 100 100 100 93 97 74 100 100 100 100 100 100 100 100 100 100 100 100 100 100 100 100 100 100 100 100
100 100 100 78 100 100 85 58 100 96 97 100 100 100 100 100 100 100 96 100 100 100 100 100 100 100 100 100 100 100 100 100 100 100 100 100 100 100 100 100 100 100 100
100 100 95 84 34 100 98 49 74 99 100 100 100 100 100 100 100 100 100 100 100 100 100 100 100 100 100 100 100 100 100 100 100 100 100 100 100 100 100 100 100 100 100
100 100 100 100 86 43 91 100 82 90 100 100 100 100 97 100 100 100 100 100 100 100 100 100 82 91 97 100 100 99 100 100 100 99 54 99 100 99 99 100 100 100 100
100 100 100 100 76 19 84 24 98 94 39 7 75 38 87 73 53 88 100 98 100 100 98 100 100 100 100 100 100 61 76 100 92 73 74 26 73 97 100 100 100 100 100
100 100 100 100 100 91 97 16 64 13 55 80 86 45 36 5 18 20 5 5 5 5 5 5 45 80 43 21 38 5 4 15 5 4 8 84 10 41 100 100 100 99 100
100 100 100 100 100 100 100 100 100 75 13 8 6 16 16 5 5 7 28 48 4 5 0 0 0 0 0 0 13 13 55 92 78 34 4 5 21 5 7 100 96 100 100
100 100 100 100 100 100 79 15 79 21 77 74 100 92 29 5 11 33 10 6 5 3 2 0 0 1 0 0 40 95 100 100 100 100 46 6 5 84 89 77 100 100 100
100 97 100 98 100 68 100 99 40 46 29 57 89 70 46 100 100 72 5 38 11 24 40 50 2 2 4 0 3 81 79 100 96 98 98 92 67 48 50 92 100 100 100
100 91 32 99 100 100 85 96 100 100 96 100 100 100 99 93 54 79 72 100 98 43 50 100 99 29 5 0 80 76 70 25 15 5 7 44 93 80 72 70 100 100 100
16 75 93 100 100 98 100 91 58 28 14 91 100 100 98 77 62 71 91 6 98 100 100 100 99 11 5 4 100 100 53 34 52 8 5 5 68 100 95 72 100 100 100
100 100 100 100 100 100 79 71 41 93 100 100 100 100 100 99 95 94 100 100 100 100 100 94 100 100 6 2 9 99 97 100 100 100 37 31 99 100 100 98 100 100 100
100 100 100 100 100 100 100 100 60 76 78 100 100 100 100 100 100 100 100 100 100 100 98 100 100 78 5 9 85 100 98 87 100 100 87 100 100 100 100 100 100 100 100
100 84 100 100 100 100 100 100 100 100 100 100 95 97 100 98 100 100 100 100 97 47 86 93 100 43 5 95 100 100 100 100 100 100 88 100 100 100 63 76 100 100 100
100 100 100 100 100 100 100 100 100 100 100 100 100 100 100 100 100 100 100 100 100 100 100 100 100 71 96 99 85 65 100 100 100 100 100 100 100 60 25 75 100 100 99
86 100 98 99 100 100 100 100 100 100 100 100 100 100 100 89 100 98 87 100 100 100 93 51 64 30 12 6 5 27 88 100 100 100 100 95 100 74 38 47 84 90 100
99 97 100 100 100 100 100 100 100 100 100 100 100 100 100 100 100 100 100 100 100 100 97 100 99 79 5 10 28 33 74 99 100 100 91 90 97 53 63 66 80 71 95

GFSMW_prec_cloud_114.txt.gz
Cloud_Cover
100 100 100 100 100 100 100 100 100 100 99 100 100 82 100 95 100 100 100 100 100 100 100 100 100 100 100 100 100 100 100 100 100 100 100 100 100 100 100 99 82 70 28
100 100 100 100 100 100 100 100 100 100 100 88 100 79 89 100 100 100 100 100 100 100 100 100 100 100 100 100 100 100 98 100 100 100 100 100 100 100 96 100 91 99 98
100 100 100 100 100 100 100 100 100 100 100 100 100 100 100 100 100 100 100 100 100 100 100 100 100 100 100 100 100 85 80 87 83 78 100 100 100 100 100 85 79 89 98
100 100 76 100 100 100 100 100 100 100 100 94 100 100 100 100 100 100 100 100 100 100 100 100 100 100 72 99 100 100 100 100 100 98 100 100 100 100 100 100 89 99 100
61 100 94 100 100 100 100 100 100 100 100 100 100 100 100 100 100 86 95 100 100 100 100 100 100 100 100 93 100 100 100 100 100 76 87 78 100 98 100 100 100 100 100
19 100 98 100 100 100 100 100 100 100 100 100 100 100 100 100 100 100 100 100 100 100 100 100 100 100 100 100 100 100 100 100 100 84 99 83 98 100 100 100 100 100 100
100 94 100 98 100 100 100 100 100 98 100 100 100 100 100 100 100 100 100 100 100 100 100 100 100 100 100 100 100 100 97 100 100 100 100 100 100 100 100 100 100 100 100
75 43 100 100 100 100 100 100 100 100 100 100 100 100 100 100 100 100 100 100 100 100 100 100 100 100 100 100 100 100 100 100 100 100 100 100 100 100 100 100 100 100 100
95 94 93 100 100 100 100 100 100 100 100 100 100 100 100 100 100 100 100 100 100 100 100 100 100 100 100 100 100 100 100 100 100 100 100 100 100 86 100 100 100 100 100
57 100 88 100 100 100 100 100 100 100 100 100 100 100 100 100 100 100 100 100 100 100 100 100 100 100 100 100 91 100 100 100 100 100 100 100 100 100 100 100 100 100 100
100 100 100 100 100 100 100 100 100 100 100 100 100 100 100 100 100 100 100 100 100 100 100 100 100 100 100 100 94 68 100 100 100 100 100 100 100 100 100 100 100 100 100
100 98 100 100 100 100 100 100 100 100 100 100 100 100 100 100 100 100 100 100 100 100 100 100 100 100 100 100 95 79 95 85 100 99 100 100 100 100 100 100 100 100 100
100 100 100 97 100 100 100 100 100 100 100 100 100 100 100 100 100 100 100 100 100 100 100 100 100 100 100 100 87 100 100 100 100 91 100 100 100 100 100 100 100 100 100
100 100 100 100 99 100 100 100 100 100 100 100 100 67 100 100 98 87 100 100 100 100 100 100 100 100 100 100 100 100 100 100 100 89 100 99 100 100 74 74 68 91 81
100 100 100 100 100 76 100 100 100 100 100 100 100 100 100 100 100 100 100 100 100 100 100 100 100 100 100 100 100 100 100 100 100 100 100 100 100 100 6 58 37 64 62
100 100 100 100 100 99 100 58 100 100 100 100 100 100 100 100 100 100 100 100 100 100 100 100 100 100 100 100 100 100 100 100 100 100 100 100 11 4 1 58 39 95 100
100 100 100 100 100 99 100 7 72 100 100 100 100 100 100 100 100 100 100 100 100 100 100 100 100 100 100 100 100 100 100 100 100 100 61 2 3 3 0 0 3 12 39
100 100 100 99 64 100 89 61 9 64 47 93 74 100 100 100 100 100 100 100 100 100 100 100 100 100 100 100 100 59 49 68 42 21 2 0 1 4 13 4 0 2 6
100 100 75 93 86 98 29 58 15 23 10 5 5 19 64 84 100 100 100 100 100 100 100 86 98 100 100 100 99 26 3 5 5 5 5 5 5 5 80 81 11 15 31
6 4 4 5 9 6 88 100 25 14 8 4 5 33 17 5 5 5 5 5 5 9 16 7 14 25 61 4 92 74 12 5 5 8 85 98 37 6 88 99 100 100 95
99 46 38 24 68 100 84 100 100 100 100 100 89 34 5 5 7 4 5 5 5 9 27 24 61 93 69 77 12 100 90 37 33 100 100 100 100 72 100 100 100 100 90
6 50 17 20 8 63 49 17 6 24 90 47 87 100 100 86 98 94 74 96 99 99 90 95 100 99 100 70 77 99 100 71 100 100 97 100 100 79 100 100 100 100 36
100 74 99 87 94 98 74 99 100 100 100 100 100 100 98 97 100 100 99 100 75 51 41 99 100 100 100 100 100 100 99 80 96 99 100 92 100 100 100 100 46 39 24
100 100 99 100 100 100 92 83 98 100 100 100 80 94 99 100 100 100 100 100 100 100 100 100 100 100 100 100 100 100 100 98 100 100 100 92 100 100 100 100 100 81 11
18 20 99 100 100 100 100 100 100 100 100 62 90 100 100 100 100 100 100 100 100 100 100 100 100 100 100 100 82 75 93 99 100 100 100 100 100 100 100 96 38 25 6
100 100 93 82 100 100 100 100 100 100 100 100 94 76 78 99 98 82 99 100 100 100 100 100 100 93 84 30 47 59 80 98 100 98 100 100 100 88 99 100 68 37 9

GFSMW_prec_cloud_117.txt.gz
Cloud_Cover
100 100 100 100 100 100 100 100 100 100 100 100 100 100 100 100 84 9 46 100 100 100 100 100 100 100 55 84 100 100 100 100 100 100 100 100 100 100 77 100 89 17 12
100 100 100 100 100 100 100 100 100 100 100 100 100 100 100 100 96 21 27 62 47 100 100 100 100 100 100 100 100 100 100 100 100 89 100 100 95 43 86 58 89 99 70
80 100 100 100 100 100 100 100 100 100 100 100 100 100 100 100 100 98 100 100 100 100 100 100 100 100 100 100 100 100 100 100 100 100 100 100 100 47 9 36 76 29 98
100 100 100 100 100 100 100 100 100 100 100 100 100 100 100 100 100 100 98 100 100 100 100 100 100 100 100 100 100 100 93 100 99 100 96 100 100 99 88 67 85 82 90
80 100 100 100 100 100 100 100 100 100 100 100 100 100 100 79 96 100 99 100 100 100 100 100 100 100 100 100 91 80 100 100 100 98 91 10 64 75 86 76 92 100 93
99 100 100 100 100 100 100 100 100 100 100 100 100 100 100 100 100 100 100 100 100 100 100 100 100 100 100 100 100 100 100 100 100 88 98 56 63 100 100 100 100 100 100
100 100 100 100 100 100 100 100 100 100 96 100 100 100 100 100 100 100 100 100 100 100 100 100 100 100 100 100 100 100 100 100 100 48 100 100 100 100 100 100 100 100 100
100 100 100 100 100 100 100 100 100 100 100 100 100 100 100 100 100 100 100 100 100 100 100 100 100 100 100 100 100 100 100 100 100 100 100 100 100 100 100 100 100 100 100
100 100 100 100 100 100 100 100 100 100 100 100 100 100 100 100 100 100 100 100 100 100 100 100 100 100 100 100 100 100 100 100 100 100 100 99 100 100 100 100 97 100 100
100 100 100 100 100 100 100 100 100 100 100 100 100 100 100 100 100 100 100 100 100 100 100 100 100 100 100 100 100 100 100 100 100 100 100 100 100 100 100 100 100 100 100
100 100 100 100 100 100 100 100 100 100 100 100 100 100 100 100 100 100 100 100 100 100 100 100 100 100 100 100 100 100 100 100 100 100 100 100 100 100 99 86 100 100 100
100 100 100 100 100 100 100 100 100 100 100 100 100 100 100 100 100 100 100 100 100 100 100 100 100 100 100 100 100 100 100 100 100 100 100 100 100 100 100 100 100 100 100
100 100 100 100 100 100 100 100 100 100 100 100 100 100 100 100 100 100 100 100 100 100 100 100 100 100 100 100 100 100 100 100 100 100 100 100 100 100 100 100 100 100 93
100 100 100 100 100 100 100 100 100 100 100 100 100 100 100 100 100 100 100 100 100 100 100 100 100 100 100 100 100 100 100 100 100 100 100 100 100 100 100 100 100 100 98
68 100 100 100 100 100 100 100 100 100 100 100 100 100 100 100 100 100 100 100 100 100 100 100 100 100 100 100 100 100 100 100 100 100 100 100 100 100 100 100 100 100 100
96 100 94 95 100 100 100 100 100 100 100 100 100 100 100 100 100 100 100 100 100 100 100 100 100 100 100 100 100 100 100 100 100 100 100 100 100 100 100 100 100 91 69
100 100 89 54 100 100 100 100 100 100 100 100 100 100 100 100 95 82 74 100 100 100 80 93 95 100 100 100 100 100 100 100 100 100 100 100 100 100 100 81 100 92 20
78 72 22 100 50 87 92 100 100 100 100 100 100 100 100 100 100 100 100 100 100 98 100 85 51 88 100 100 100 100 100 100 100 100 100 100 100 100 100 98 98 89 26
100 6 97 95 24 43 92 100 100 100 100 100 100 100 100 100 100 100 100 100 100 100 100 100 92 100 100 100 100 100 100 100 100 100 100 100 100 100 100 89 28 11 6
100 33 52 100 97 5 7 5 62 100 98 100 100 100 100 100 100 100 100 100 100 100 100 85 100 100 100 100 100 100 100 100 98 99 99 100 100 43 99 30 32 100 100
5 5 5 3 5 8 97 46 9 5 64 100 100 100 100 100 100 100 100 100 100 100 100 100 100 100 100 100 100 100 100 100 100 100 100 100 77 92 98 99 100 100 100
5 5 5 5 6 96 46 95 66 7 4 6 84 100 100 100 100 100 100 100 100 100 100 100 100 100 100 100 100 100 99 89 100 100 99 83 70 100 100 100 100 100 89
11 5 5 5 5 5 5 5 5 5 21 5 98 94 57 51 75 100 100 100 100 100 100 100 100 100 100 100 100 100 100 78 100 57 75 86 100 99 100 100 100 100 81
5 7 5 17 89 52 5 5 31 6 7 98 94 15 73 91 87 6 75 54 68 98 100 100 100 66 73 92 96 33 56 74 57 87 100 100 91 100 100 100 100 100 43
98 74 27 7 23 20 59 44 32 52 43 18 19 51 85 23 68 96 73 78 100 63 64 96 100 100 100 100 100 100 91 97 100 98 88 100 100 100 100 100 100 99 21
100 100 100 100 100 94 100 100 100 100 96 99 60 76 91 100 99 88 100 100 99 100 100 100 100 100 100 100 99 100 100 100 100 99 100 100 100 100 100 100 100 100 98

GFSMW_prec_cloud_120.txt.gz
Cloud_Cover
100 94 99 100 100 100 100 100 100 100 100 100 99 89 80 100 100 100 100 94 100 100 100 100 84 100 100 90 100 100 100 100 100 100 100 68 98 58 100 100 5 5 5
100 90 99 100 100 100 100 100 100 100 100 100 100 100 100 85 100 100 100 100 100 100 100 77 100 100 100 100 100 100 100 100 100 100 100 100 91 98 15 6 5 5 5
100 100 97 100 100 100 100 100 100 100 100 100 100 100 99 100 100 100 100 100 100 100 100 100 100 100 100 100 100 100 100 100 100 100 100 99 63 5 13 69 5 5 38
75 30 100 100 100 100 100 100 100 100 100 100 100 100 100 100 100 100 100 100 100 100 99 9 87 95 100 98 100 100 100 100 100 100 100 50 19 74 50 35 20 5 21
100 68 100 100 100 100 100 100 100 100 100 100 100 100 100 100 100 100 100 100 75 66 42 82 100 100 100 100 100 100 100 100 100 93 58 84 100 84 90 42 82 90 16
60 100 100 100 100 100 100 100 100 100 100 100 100 100 100 100 100 100 100 100 100 92 92 100 100 100 100 100 100 100 100 100 100 100 100 100 94 100 98 100 95 100 100
85 100 100 100 100 100 100 100 100 100 100 100 100 100 100 100 100 100 100 100 100 100 100 100 100 100 100 100 100 100 100 100 100 100 100 100 99 100 98 98 100 97 100
100 100 100 100 100 100 100 100 100 100 100 100 100 100 100 100 100 100 100 100 100 100 100 100 100 100 100 100 100 100 100 100 100 100 95 100 100 100 65 61 97 62 84
100 100 100 100 100 100 100 100 100 100 100 100 100 100 100 100 100 100 100 100 100 100 100 100 100 100 100 100 100 100 100 100 100 100 100 100 100 100 73 100 93 100 100
100 100 100 100 100 100 100 100 100 100 100 100 100 100 100 100 100 100 100 100 100 100 100 100 100 100 100 100 100 100 100 100 100 100 100 100 100 100 100 100 100 100 100
100 100 100 100 100 100 100 100 100 100 100 100 100 100 100 100 100 100 100 100 100 100 100 100 100 100 100 100 100 100 100 100 100 100 100 100 100 100 100 100 100 54 100
100 100 100 100 100 100 100 100 100 100 100 100 100 100 100 100 100 100 100 100 100 100 100 100 100 100 100 100 100 100 100 100 100 100 100 100 100 100 100 100 100 100 100
100 100 100 100 100 100 100 100 100 100 100 100 100 100 100 100 100 100 100 100 100 100 100 100 100 100 100 100 100 100 100 100 100 100 100 100 100 100 100 100 100 100 71
100 100 100 100 100 100 100 100 100 100 100 100 100 100 100 100 100 100 100 100 100 100 100 100 100 100 100 100 100 100 100 100 100 100 100 100 100 100 100 98 87 47 98
100 100 100 100 100 100 100 100 100 100 100 100 100 100 100 100 100 100 100 100 100 100 100 100 100 100 100 100 100 100 100 100 100 100 100 100 100 100 100 100 100 100 100
100 100 100 100 100 100 100 100 100 100 100 100 100 100 100 100 100 100 100 100 100 100 100 100 100 100 100 100 100 100 100 100 100 100 100 100 100 100 100 100 100 100 100
100 100 100 100 100 100 100 100 100 100 100 100 100 100 100 100 100 100 100 100 100 100 100 100 100 100 100 100 100 100 100 100 100 100 100 100 100 100 100 100 100 100 100
100 100 100 100 100 100 100 100 100 100 100 100 100 100 100 100 100 100 100 100 100 100 100 100 100 100 100 100 100 100 100 100 100 100 100 100 100 100 100 100 100 100 100
70 85 100 100 99 58 100 100 100 100 100 100 100 100 100 100 100 100 100 100 100 100 100 100 100 100 100 100 100 100 100 100 100 100 100 100 100 100 100 100 62 94 100
3 4 5 100 100 96 86 74 100 100 100 100 100 100 100 100 100 100 100 100 100 100 100 100 100 100 100 100 100 100 100 100 99 98 99 100 100 100 100 100 82 97 24
5 5 3 2 8 85 100 100 100 100 100 100 100 100 100 100 100 100 100 100 100 100 100 100 100 100 100 100 100 100 100 96 100 100 100 100 100 100 100 70 63 86 43
5 6 40 5 5 44 78 100 79 93 100 100 94 100 100 100 100 100 100 100 100 100 100 100 100 100 100 100 100 100 100 100 100 100 100 100 100 99 99 90 98 80 100
100 100 61 38 33 5 8 5 24 89 100 100 100 100 100 100 100 100 100 100 100 100 100 100 100 100 100 100 100 100 100 100 100 100 100 100 100 100 79 76 100 98 100
1 3 2 4 5 5 5 5 5 5 7 5 5 5 96 100 100 100 100 100 100 100 100 100 100 100 100 100 100 100 100 100 100 100 100 100 81 85 99 100 100 100 100
77 91 59 22 5 5 5 5 5 5 5 5 21 87 100 79 100 100 100 100 100 100 100 100 100 100 100 100 100 100 100 100 100 100 100 100 100 100 100 100 100 100 100
100 98 100 100 100 99 97 89 92 93 89 97 100 100 100 88 95 88 83 100 100 100 100 100 100 100 100 100 100 100 100 100 100 100 100 85 97 97 76 100 100 100 100